     2              OBSERVATION DATA    GPS                 RINEX VERSION / TYPE
teqc 1997Jul24 19970814                                     PGM / RUN BY / DATE
                                                            COMMENT
Original Marker Name: ENDD                                  COMMENT
Campaign Name: HPGN 1991                                    COMMENT
4-Character Station Name: ENDD                              COMMENT
6-Character Antenna Code: TRMSST                            COMMENT
Vertical Measurement Point: BPA                             COMMENT
Vertical Offset to Rinex Ref. Point: 0.0000                 COMMENT
Radial Measurement Point: RRP                               COMMENT
Radial Offset to Rinex Ref. Point: 0.0000                   COMMENT
Antenna Height from Field Measurement: 2.2200 m             COMMENT
Original XYZ: -2192417.5059 -4814951.1848 3550550.6846      COMMENT
New XYZ position is based on association with SCEC monument COMMENT
E1D1R8K1+0011. Position of that monument is believed to be  COMMENT
valid to within 1 m horizontally; vertical accuracy         COMMENT
should be no worse than 3-times this value.                 COMMENT
                                                            COMMENT
Revised Rinex header created by UCSD GPS archive for        COMMENT
GSAC on 17-Apr-1999 (1999:107) 00:28:17 GMT                 COMMENT
For assistance contact dagnew@ucsd.edu or hjohnson@ucsd.edu COMMENT
                                                            COMMENT
END 1935                                                    MARKER NAME
unknown NATIONAL GEODETIC SURVEY                            OBSERVER / AGENCY
483 TRIMBLE 4000 SST NP 4.30 / SP 4.20                      REC # / TYPE / VERS
19 TR 4000SST L1/L2 GEO                                     ANT # / TYPE
 -2192419.0000 -4814959.0000  3550555.0000                  APPROX POSITION XYZ
        2.2200        0.0000        0.0000                  ANTENNA: DELTA H/E/N
     1     1     0                                          WAVELENGTH FACT L1/2
     3    C1    L1    L2                                    # / TYPES OF OBSERV
     0                                                      INTERVAL
  1991     4    17    20    34   15.000000                  TIME OF FIRST OBS
  1991     4    18     2    21   60.000000                  TIME OF LAST OBS
     0                                                      # OF SATELLITES
                                                            END OF HEADER
 91  4 17 20 34 15.0000000  0  4G18G 2G11G19
  20764840.914          -0.22018        -0.38033
  23472161.1724         -0.55555        -0.43271
  23105955.9694         -0.67356        -0.43971
  20861295.6804         -0.06857        -0.09472
 91  4 17 20 34 30.0000000  0  4G18G 2G11G19
  20769182.523       22818.788 8     17780.62023
  23463870.0474     -43571.28745    -33951.47861
  23101374.891      -24069.695 6    -18755.43521
  20860547.9614      -3933.38947     -3065.01462
 91  4 17 20 34 45.0000000  0  4G18G 2G11G19
  20773539.180       45708.754 8     35616.90723
  23455580.969      -87132.522 5    -67895.13121
  23096809.9614     -48060.51546    -37449.49961
  20859798.6564      -7868.00847     -6130.94662
 91  4 17 20 35  0.0000000  0  4G18G 2G11G19
  20777909.625       68679.354 8     53516.02523
  23447294.7584    -130674.62945   -101823.86861
  23092260.852      -71963.158 6    -56074.85021
  20859050.1644     -11794.34247     -9190.42762
 91  4 17 20 35 15.0000000  0  4G18G 2G11G19
  20782297.773       91740.007 7     71485.32323
  23439015.227     -174187.664 5   -135729.95721
  23087731.344      -95767.818 6    -74623.85421
  20858307.0864     -15702.72347    -12235.91062
 91  4 17 20 35 30.0000000  0  4G18G 2G11G19
  20786704.609      114897.471 7     89530.05223
  23430740.7974    -217664.81945   -169608.07861
  23083221.9534    -119467.51446    -93091.06661
  20857571.1024     -19586.30347    -15262.06562
 91  4 17 20 35 45.0000000  0  4G18G 2G11G19
  20791130.664      138154.450 7    107652.32523
  23422476.3054    -261103.20945   -203456.00361
  23078732.711     -143059.088 6   -111474.02921
  20856834.8914     -23442.24247    -18266.68562
 91  4 17 20 36  0.0000000  0  4G18G 2G11G19
  20795575.695      161514.071 7    125854.57723
  23414219.133     -304499.583 5   -237271.19621
  23074263.914     -166539.061 6   -129770.03921
  20856110.6804     -27267.49547    -21247.40062
 91  4 17 20 36 15.0000000  0  4G18G 2G11G19
  20800040.414      184976.824 7    144137.19123
  23405964.148     -347853.051 5   -271052.94521
  23069817.0234    -189906.43946   -147978.30361
  20855384.1334     -31061.15447    -24203.49862
 91  4 17 20 36 30.0000000  0  4G18G 2G11G19
  20804525.742      208544.856 7    162501.83823
  23397724.6024    -391161.19745   -304799.38161
  23065391.930     -213158.700 6   -166096.86721
  20854672.2424     -34821.07147    -27133.29762
 91  4 17 20 36 45.0000000  0  4G18G 2G11G19
  20809031.547      232223.479 7    180952.66223
  23389493.6804    -434418.76445   -338506.40961
  23060990.336     -236290.345 6   -184121.43921
  20853961.4924     -38542.06947    -30032.77462
 91  4 17 20 37  0.0000000  0  4G18G 2G11G19
  20813558.188      256010.633 7    199488.05723
  23381270.9924    -477627.25545   -372175.18361
  23056611.336     -259302.736 6   -202053.08821
  20853260.8754     -42225.84347    -32903.24462
 91  4 17 20 37 15.0000000  0  4G18G 2G11G19
  20818104.367      279903.767 7    218106.02523
  23373057.344     -520789.068 6   -405807.60221
  23052255.039     -282198.091 6   -219893.55221
  20852565.0394     -45874.65247    -35746.46762
 91  4 17 20 37 30.0000000  0  4G18G 2G11G19
  20822671.922      303905.538 7    236808.65023
  23364855.1724    -563901.52646   -439401.56761
  23047919.813     -304973.524 6   -237640.56721
  20851880.5004     -49485.81947    -38560.36062
 91  4 17 20 37 45.0000000  0  4G18G 2G11G19
  20827259.547      328011.477 7    255592.44723
  23356657.719     -606968.777 6   -472960.29721
  23043607.242     -327633.062 6   -255297.26921
  20851197.6954     -53063.56647    -41348.20562
 91  4 17 20 38  0.0000000  0  4G18G 2G11G19
  20831870.320      352240.086 7    274471.82623
  23348474.906     -649972.275 6   -506469.36021
  23039321.578     -350158.034 6   -272849.12521
  20850527.8674     -56589.47947    -44095.66862
 91  4 17 20 38 15.0000000  0  4G18G 2G11G19
  20836502.281      376578.984 7    293437.14823
  23340301.7734    -692924.00646   -539938.08961
  23035059.164     -372560.334 6   -290305.37621
  20849862.5004     -60075.93247    -46812.38662
 91  4 17 20 38 30.0000000  0  4G18G 2G11G19
  20841154.117      401027.191 7    312487.64723
  23332135.938     -735824.743 6   -573367.06921
  23030818.422     -394840.414 6   -307666.39921
  20849207.8204     -63523.52947    -49498.82162
 91  4 17 20 38 45.0000000  0  4G18G 2G11G19
  20845826.898      425581.813 7    331621.06723
  23323983.9384    -778677.19146   -606758.42761
  23026601.492     -417000.808 6   -324934.15921
  20848557.9064     -66934.90747    -52157.03762
 91  4 17 20 39  0.0000000  0  4G18G 2G11G19
  20850519.1644     450243.79347    350838.13363
  23315835.898     -821480.346 6   -640111.37421
  23022406.547     -439040.324 6   -342107.73721
  20847920.4144     -70309.30846    -54786.43862
 91  4 17 20 39 15.0000000  0  4G18G 2G11G19
  20855233.453      475014.713 7    370140.09323
  23307701.3834    -864232.27746   -673424.41761
  23018237.469     -460957.088 6   -359185.65621
  20847281.5474     -73645.12847    -57385.78062
 91  4 17 20 39 30.0000000  0  4G18G 2G11G19
  20859968.0784     499894.18747    389526.63963
  23299575.4694    -906932.85546   -706697.44661
  23014090.078     -482750.808 6   -376167.69021
  20846654.1254     -76942.21847    -59954.93862
 91  4 17 20 39 45.0000000  0  4G18G 2G11G19
  20864722.7274     524882.29447    408997.82863
  23291458.7424    -949582.14846   -739930.49761
  23009968.1414    -504421.10346   -393053.56061
  20846034.1644     -80200.54147    -62493.89662
 91  4 17 20 40  0.0000000  0  4G18G 2G11G19
  20869498.6174     549979.70947    428554.19163
  23283356.3984    -992178.94346   -773122.66361
  23005865.000     -525966.858 6   -409842.37021
  20845424.2034     -83419.14747    -65001.89962
 91  4 17 20 40 15.0000000  0  4G18G 2G11G19
  20874294.6094     575183.10047    448193.13763
  23275258.141    -1034726.323 6   -806276.31221
  23001790.922     -547390.940 6   -426536.39021
  20844815.5944     -86601.23047    -67481.44662
 91  4 17 20 40 30.0000000  0  4G18G 2G11G19
  20879110.9064     600493.12247    467915.17363
  23267170.984    -1077223.611 6   -839390.93921
  22997736.0554    -568692.62546   -443135.02561
  20844218.0634     -89746.14147    -69932.02662
 91  4 17 20 40 45.0000000  0  4G18G 2G11G19
  20883947.8594     625908.08147    487718.97463
  23259092.3594   -1119672.19046   -872467.59861
  22993704.953     -589873.006 6   -459639.14421
  20843625.8834     -92855.22247    -72354.68762
 91  4 17 20 41  0.0000000  0  4G18G 2G11G19
  20888804.8674     651429.38347    507605.63863
  23251024.859    -1162070.560 6   -905505.14621
  22989697.078     -610930.326 6   -476047.37021
  20843042.2584     -95926.92147    -74748.21362
 91  4 17 20 41 15.0000000  0  4G18G 2G11G19
  20893681.4924     677058.80047    527576.54963
  23242965.4534   -1204416.62046   -938501.93961
  22985714.9774    -631862.37346   -492357.98361
  20842464.5084     -98959.24047    -77111.05862
 91  4 17 20 41 30.0000000  0  4G18G 2G11G19
  20898579.5944     702798.29947    547633.24463
  23234916.406    -1246708.434 6   -971456.45221
  22981755.656     -652667.135 6   -508569.40621
  20841895.3524    -101950.54247    -79441.94562
 91  4 17 20 41 45.0000000  0  4G18G 2G11G19
  20903498.2114     728644.94047    567773.41863
  23226880.094    -1288948.833 6  -1004370.90721
  22977820.836     -673347.204 6   -524683.67221
  20841332.2664    -104903.62847    -81743.05162
 91  4 17 20 42  0.0000000  0  4G18G 2G11G19
  20908436.9064     754595.38747    587994.48663
  23218851.609    -1331140.554 6  -1037247.43321
  22973906.148     -693905.288 6   -540702.88321
  20840778.9534    -107821.44947    -84016.67862
 91  4 17 20 42 15.0000000  0  4G18G 2G11G19
  20913395.2504     780654.12047    608299.92663
  23210832.3444   -1373278.85546  -1070082.34461
  22970020.273     -714336.575 6   -556623.28321
  20840230.5394    -110699.26247    -86259.13362
 91  4 17 20 42 30.0000000  0  4G18G 2G11G19
  20918375.1954     806824.34047    628692.24363
  23202823.945    -1415360.193 6  -1102872.85321
  22966155.461     -734637.151 6   -572441.84121
  20839692.4614    -113533.62247    -88467.72562
 91  4 17 20 42 45.0000000  0  4G18G 2G11G19
  20923376.6724     833102.27147    649168.49363
  23194826.414    -1457388.201 6  -1135621.81121
  22962318.375     -754810.569 6   -588161.31421
  20839159.5784    -116328.18847    -90645.31062
 91  4 17 20 43  0.0000000  0  4G18G 2G11G19
  20928396.3444     859483.67947    669725.36963
  23186838.8594   -1499367.06146  -1168332.48861
  22958503.5864    -774860.98846   -603784.95261
  20838634.0634    -119087.30347    -92795.27462
 91  4 17 20 43 15.0000000  0  4G18G 2G11G19
  20933436.6094     885968.71947    690363.00463
  23178860.070    -1541296.390 6  -1201004.54121
  22954712.180     -794787.794 6   -619312.24521
  20838114.6024    -121810.55847    -94917.28062
 91  4 17 20 43 30.0000000  0  4G18G 2G11G19
  20938496.4694     912559.31947    711082.89363
  23170891.586    -1583173.833 6  -1233636.18021
  22950941.8054    -814588.68546   -634741.44761
  20837604.3754    -124495.80847    -97009.68762
 91  4 17 20 43 45.0000000  0  4G18G 2G11G19
  20943577.8754     939257.40347    731886.52763
  23162931.0944   -1624997.20446  -1266225.70461
  22947198.4694    -834261.12746   -650070.55461
  20837101.1024    -127140.79447    -99070.72062
 91  4 17 20 44  0.0000000  0  4G18G 2G11G19
  20948676.4064     966058.38147    752770.34163
  23154981.914    -1666770.945 6  -1298776.54021
  22943478.1254    -853809.46246   -665302.95961
  20836607.1024    -129750.14247   -101103.98162
 91  4 17 20 44 15.0000000  0  4G18G 2G11G19
  20953797.1094     992966.32747    773737.50763
  23147040.734    -1708490.663 6  -1331285.27821
  22939784.7974    -873229.32746   -680435.25061
  20836116.3444    -132319.58747   -103106.14162
 91  4 17 20 44 30.0000000  0  4G18G 2G11G19
  20958938.2814    1019978.51047    794785.90063
  23139113.359    -1750159.338 6  -1363754.24021
  22936112.8674    -892523.35746   -695469.49461
  20835634.7114    -134851.99747   -105079.45162
 91  4 17 20 44 45.0000000  0  4G18G 2G11G19
  20964097.2424    1047096.23747    815916.53463
  23131193.2344   -1791775.13646  -1396182.01361
  22932465.633     -911689.554 6   -710404.12721
  20835159.2344    -137345.70047   -107022.59462
 91  4 17 20 45  0.0000000  0  4G18G 2G11G19
  20969277.7664    1074318.99447    837129.00763
  23123283.4144   -1833338.17846  -1428568.67561
  22928842.1414    -930727.92146   -725239.15261
  20834692.7344    -139800.86247   -108935.70962
 91  4 17 20 45 15.0000000  0  4G18G 2G11G19
  20974477.7734    1101645.71347    858422.48763
  23115384.3284   -1874849.23246  -1460914.82961
  22925241.5394    -949639.17046   -739975.12561
  20834231.5634    -142218.29947   -110819.42662
 91  4 17 20 45 30.0000000  0  4G18G 2G11G19
  20979699.3444    1129081.93447    879801.29663
  23107494.9064   -1916302.57746  -1493216.01061
  22921671.1564    -968417.42746   -754607.47561
  20833782.6174    -144592.23647   -112669.25062
 91  4 17 20 45 45.0000000  0  4G18G 2G11G19
  20984940.1254    1156623.94747    901262.53963
  23099619.5864   -1957702.16446  -1525475.30561
  22918122.102     -987066.352 6   -769139.03621
  20833336.2194    -146926.60647   -114488.24362
 91  4 17 20 46  0.0000000  0  4G18G 2G11G19
  20990201.2974    1184271.15547    922805.75063
  23091748.8134   -1999047.76446  -1557692.54061
  22914596.7974   -1005585.72346   -783569.64861
  20832900.3834    -149221.52647   -116276.49762
 91  4 17 20 46 15.0000000  0  4G18G 2G11G19
  20995482.0864    1212018.85147    944427.26363
  23083892.172    -2040343.890 6  -1589871.21421
  22911095.6724   -1023980.00746   -797902.80061
  20832468.7974    -151481.53747   -118037.54862
 91  4 17 20 46 30.0000000  0  4G18G 2G11G19
  21000781.8834    1239869.93147    966129.33563
  23076044.6414   -2081587.53546  -1622008.99761
  22907621.7814   -1042246.00246   -812135.98061
  20832048.4304    -153703.62447   -119769.05462
 91  4 17 20 46 45.0000000  0  4G18G 2G11G19
  21006101.6484    1267822.96647    987910.85363
  23068205.0234   -2122780.15546  -1654107.01461
  22904169.742    -1060384.936 6   -826270.16121
  20831629.5634    -155889.35047   -121472.22262
 91  4 17 20 47  0.0000000  0  4G18G 2G11G19
  21011440.8594    1295880.70947   1009773.96063
  23060376.9064   -2163918.43646  -1686162.70361
  22900742.7894   -1078393.36846   -840302.64361
  20831224.3524    -158035.31647   -123144.40862
 91  4 17 20 47 15.0000000  0  4G18G 2G11G19
  21016798.3364    1324040.61747   1031716.68263
  23052556.3054   -2205004.91446  -1718178.01761
  22897339.172    -1096273.751 6   -854235.35921
  20830820.8054    -160144.12347   -124787.64262
 91  4 17 20 47 30.0000000  0  4G18G 2G11G19
  21022177.906     1352306.323 7   1053741.83823
  23044750.6334   -2246035.54846  -1750149.81761
  22893962.6254   -1114022.08346   -868065.17061
  20830427.4384    -162211.99947   -126398.97962
 91  4 17 20 47 45.0000000  0  4G18G 2G11G19
  21027577.2274    1380679.26447   1075850.55363
  23036952.2814   -2287008.44846  -1782076.63661
  22890608.0164   -1131636.21546   -881790.40761
  20830042.8524    -164237.07147   -127976.96262
 91  4 17 20 48  0.0000000  0  4G18G 2G11G19
  21032996.1804    1409157.60847   1098041.40163
  23029165.430    -2327925.340 6  -1813959.81121
  22887282.4844   -1149117.87146   -895412.41861
  20829668.6414    -166221.18147   -129523.02462
 91  4 17 20 48 15.0000000  0  4G18G 2G11G19
  21038434.492     1437735.948 7   1120310.16723
  23021388.773    -2368791.548 6  -1845803.49321
  22883980.6884   -1166472.17546   -908935.19361
  20829294.3984    -168169.71747   -131041.37062
 91  4 17 20 48 30.0000000  0  4G18G 2G11G19
  21043891.625     1466413.165 7   1142655.97823
  23013622.7424   -2409607.91846  -1877608.33561
  22880701.5234   -1183699.80846   -922359.26061
  20828933.5314    -170083.46746   -132532.60662
 91  4 17 20 48 45.0000000  0  4G18G 2G11G19
  21049368.602     1495195.522 7   1165083.71723
  23005863.953    -2450367.828 6  -1909369.19421
  22877450.1414   -1200794.02546   -935679.36861
  20828573.6564    -171955.86247   -133991.62062
 91  4 17 20 49  0.0000000  0  4G18G 2G11G19
  21054867.586     1524084.988 7   1187594.91623
  22998121.2734   -2491069.54646  -1941084.70161
  22874222.148    -1217752.772 6   -948893.91921
  20828227.8054    -173785.07847   -135416.98762
 91  4 17 20 49 15.0000000  0  4G18G 2G11G19
  21060384.305     1553079.140 7   1210187.68723
  22990386.1564   -2531714.86946  -1972756.25161
  22871021.3054   -1234577.79246   -962004.26561
  20827884.797     -175573.009 7   -136810.18722
 91  4 17 20 49 30.0000000  0  4G18G 2G11G19
  21065922.211     1582177.706 7   1232861.81823
  22982664.289    -2572303.729 6  -2004383.82421
  22867843.281    -1251269.069 6   -975010.40021
  20827554.0314    -177319.67847   -138171.23462
 91  4 17 20 49 45.0000000  0  4G18G 2G11G19
  21071478.391     1611376.274 7   1255613.87723
  22974949.2974   -2612840.33346  -2035970.67061
  22864692.2584   -1267830.77846   -987915.56661
  20827228.5084    -179029.44247   -139503.52562
 91  4 17 20 50  0.0000000  0  4G18G 2G11G19
  21077054.109     1640680.933 7   1278448.59723
  22967245.422    -2653318.381 6  -2067511.89121
  22861566.969    -1284256.321 6  -1000714.63621
  20826912.2114    -180695.94247   -140802.10262
 91  4 17 20 50 15.0000000  0  4G18G 2G11G19
  21082649.891     1670087.427 7   1301362.67123
  22959553.2664   -2693741.73446  -2099010.48961
  22858466.578    -1300549.472 6  -1013410.54921
  20826600.3524    -182323.14547   -142070.06262
 91  4 17 20 50 30.0000000  0  4G18G 2G11G19
  21088265.148     1699592.811 7   1324353.80723
  22951868.094    -2734113.384 6  -2130468.81021
  22855389.805    -1316713.170 6  -1026005.57921
  20826297.9924    -183914.17447   -143309.82862
 91  4 17 20 50 45.0000000  0  4G18G 2G11G19
  21093900.383     1729203.842 7   1347427.26623
  22944198.969    -2774426.048 6  -2161881.15921
  22852339.805    -1332740.078 6  -1038494.02621
  20826003.5704    -185461.78747   -144515.76962
 91  4 17 20 51  0.0000000  0  4G18G 2G11G19
  21099554.281     1758917.749 7   1370580.88723
  22936538.7664   -2814682.46546  -2193249.67961
  22849316.898    -1348632.572 6  -1050877.74021
  20825716.7034    -186968.55147   -145689.87862
 91  4 17 20 51 15.0000000  0  4G18G 2G11G19
  21105227.883     1788730.504 7   1393811.52723
  22928888.328    -2854886.390 6  -2224577.30521
  22846317.078    -1364394.459 6  -1063159.67821
  20825436.250     -188438.374 7   -146835.20822
 91  4 17 20 51 30.0000000  0  4G18G 2G11G19
  21110919.203     1818641.778 7   1417118.93923
  22921246.063    -2895037.818 6  -2255864.02421
  22843343.180    -1380025.702 6  -1075339.81621
  20825168.9064    -189871.33046   -147951.80462
 91  4 17 20 51 45.0000000  0  5G18G 2G16G11G19
  21116631.422     1848657.442 7   1440507.69323
  22913619.0704   -2935130.89346  -2287105.25961
  24243555.2584         -0.04255
  22840393.125    -1395520.138 6  -1087413.35021
  20824899.453     -191261.466 7   -149035.03622
 91  4 17 20 52  0.0000000  0  5G18G 2G16G11G19
  21122363.328     1878775.471 7   1463976.20923
  22905998.813    -2975167.175 6  -2318302.26121
  24240163.2734     -17835.32845
  22837470.898    -1410879.376 6  -1099381.53821
  20824643.5004    -192610.72747   -150086.41462
 91  4 17 20 52 15.0000000  0  5G18G 2G16G11G19
  21128114.6174    1908996.72247   1487525.15463
  22898391.906    -3015145.292 6  -2349453.93621
  24236791.0314     -35546.91345
  22834573.133    -1426101.907 6  -1111243.21021
  20824394.281     -193917.610 7   -151104.77622
 91  4 17 20 52 30.0000000  0  5G18G 2G16G11G19
  21133884.500     1939320.599 7   1511154.06623
  22890795.719    -3055065.836 6  -2380560.74621
  24233446.7344     -53134.65045
  22831702.305    -1441188.079 6  -1122998.61321
  20824156.1644    -195182.58546   -152090.48362
 91  4 17 20 52 45.0000000  0  5G18G 2G16G11G19
  21139674.773     1969746.071 7   1534862.14823
  22883209.633    -3094929.765 6  -2411623.43821
  24230122.3524     -70599.68645
  22828858.172    -1456138.763 6  -1134648.45421
  20823921.133     -196406.661 7   -153044.31322
 91  4 17 20 53  0.0000000  0  5G18G 2G16G11G19
  21145482.859     2000273.407 7   1558649.60423
  22875634.3834   -3134736.41446  -2442641.50361
  24226821.305      -87941.471 5        -0.10231
  22826040.3204   -1470953.34946  -1146192.24161
  20823694.4614    -197589.52747   -153966.03762
 91  4 17 20 53 15.0000000  0  5G18G 2G16G11G19
  21151312.125     2030906.501 7   1582519.46523
  22868068.602    -3174481.735 6  -2473611.78221
  24223546.3754    -105156.01045    -13414.02161
  22823245.180    -1485627.601 6  -1157626.68221
  20823479.1414    -198726.95347   -154852.35062
 91  4 17 20 53 30.0000000  0  5G18G 2G16G11G19
  21157159.656     2061635.586 7   1606464.13023
  22860518.961    -3214175.027 6  -2504541.51121
  24220289.969     -122252.874 4    -26736.27721
  22820479.422    -1500170.719 6  -1168958.93521
  20823270.2344    -199828.31347   -155710.56162
 91  4 17 20 53 45.0000000  0  5G18G 2G16G11G19
  21163027.766     2092465.773 7   1630487.56723
  22852973.5784   -3253810.90546  -2535426.51561
  24217060.992     -139226.345 4    -39962.38021
  22817737.281    -1514577.160 6  -1180184.68821
  20823067.4614    -200888.22747   -156536.47262
 91  4 17 20 54  0.0000000  0  5G18G 2G16G11G19
  21168913.586     2123399.312 7   1654591.54423
  22845444.031    -3293387.110 6  -2566265.00221
  24213857.0784    -156074.19044    -53090.55661
  22815021.680    -1528844.424 6  -1191301.98421
  20822874.7664    -201904.29547   -157328.21162
 91  4 17 20 54 15.0000000  0  5G18G 2G16G11G19
  21174818.031     2154433.376 7   1678773.85123
  22837922.6024   -3332906.11846  -2597058.93661
  24210671.3524    -172798.92944    -66122.84061
  22812334.4384   -1542975.18746  -1202312.93061
  20822689.1644    -202879.29547   -158087.95962
 91  4 17 20 54 30.0000000  0  5G18G 2G16G11G19
  21180744.797     2185569.171 7   1703035.42323
  22830414.375    -3372366.468 6  -2627807.16421
  24207513.508     -189399.237 4    -79058.15421
  22809671.680    -1556967.838 6  -1213216.24321
  20822510.9774    -203811.84147   -158814.62262
 91  4 17 20 54 45.0000000  0  5G18G 2G16G11G19
  21186688.961     2216807.482 7   1727376.88223
  22822914.203    -3411767.128 6  -2658508.87421
  24204383.125     -205873.894 4    -91895.55221
  22807034.227    -1570821.086 6  -1224010.93521
  20822342.0864    -204700.85547   -159507.36862
 91  4 17 20 55  0.0000000  0  5G18G 2G16G11G19
  21192652.266     2248146.497 7   1751796.81223
  22815428.836    -3451109.536 6  -2689165.18921
  24201270.3364    -222224.46344   -104636.27861
  22804424.789    -1584536.314 6  -1234698.08221
  20822182.0004    -205547.77447   -160167.30562
 91  4 17 20 55 15.0000000  0  5G18G 2G16G11G19
  21198635.6334    2279585.87847   1776294.94363
  22807953.0634   -3490394.07046  -2719776.41561
  24198180.2344    -238451.46044   -117280.69561
  22801840.688    -1598113.868 6  -1245277.95121
  20822027.4844    -206352.89947   -160794.68362
 91  4 17 20 55 30.0000000  0  5G18G 2G16G11G19
  21204636.1884    2311123.14347   1800869.34963
  22800488.148    -3529622.957 6  -2750344.27521
  24195117.266     -254556.811 4   -129830.33421
  22799284.109    -1611555.771 6  -1255752.11321
  20821882.8134    -207118.46647   -161391.23462
 91  4 17 20 55 45.0000000  0  5G18G 2G16G11G19
  21210656.508     2342759.422 7   1825520.91423
  22793034.1024   -3568794.54046  -2780867.48761
  24192073.7664    -270539.15644   -142284.11361
  22796750.336    -1624860.417 6  -1266119.32321
  20821743.8834    -207843.06547   -161955.86362
 91  4 17 20 56  0.0000000  0  5G18G 2G16G11G19
  21216696.969     2374495.192 7   1850249.99923
  22785591.461    -3607908.232 6  -2811345.58221
  24189055.7814    -286397.89844   -154641.58561
  22794244.969    -1638027.068 6  -1276379.00621
  20821615.6094    -208525.98347   -162488.00962
 91  4 17 20 56 15.0000000  0  5G18G 2G16G11G19
  21222755.195     2406331.132 7   1875057.14423
  22778157.492    -3646962.837 6  -2841777.64021
  24186062.4454    -302131.91144   -166901.85561
  22791766.719    -1651054.528 6  -1286530.21921
  20821492.2344    -209166.22647   -162986.90162
 91  4 17 20 56 30.0000000  0  5G18G 2G16G11G19
  21228831.430     2438264.962 7   1899940.56322
  22770737.3754   -3685960.47646  -2872165.31361
  24183091.609     -317743.711 4   -179066.91421
  22789313.625    -1663944.794 6  -1296574.53821
  20821380.8524    -209765.94147   -163454.21462
 91  4 17 20 56 45.0000000  0  5G18G 2G16G11G19
  21234927.422     2470298.125 7   1924901.38223
  22763327.602    -3724899.522 6  -2902507.32821
  24180145.5634    -333231.39344   -191135.24861
  22786887.6954   -1676696.12946  -1306510.60461
  20821272.0004    -210323.55447   -163888.72162
 91  4 17 20 57  0.0000000  0  5G18G 2G16G11G19
  21241041.656     2502430.876 7   1949939.80623
  22755928.344    -3763779.495 6  -2932803.30321
  24177222.0944    -348594.34544   -203106.39761
  22784488.1024   -1689307.92446  -1316337.93561
  20821175.6334    -210838.37447   -164289.88162
 91  4 17 20 57 15.0000000  0  5G18G 2G16G11G19
  21247174.1024    2534658.21647   1975051.93363
  22748540.8524   -3802604.95046  -2963056.80761
  24174320.164     -363836.845 4   -214983.70621
  22782115.2814   -1701784.65546  -1326060.02561
  20821084.1884    -211314.95947   -164661.25062
 91  4 17 20 57 30.0000000  0  5G18G 2G16G11G19
  21253327.000     2566987.545 7   2000243.53323
  22741165.414    -3841368.642 6  -2993262.18221
  24171444.0634    -378951.87544   -226761.64861
  22779765.5474   -1714118.93346  -1335671.11761
  20821002.3914    -211746.18747   -164997.27462
 91  4 17 20 57 45.0000000  0  5G18G 2G16G11G19
  21259498.648     2599415.435 7   2025511.93623
  22733798.531    -3880073.579 6  -3023421.77221
  24168591.914     -393942.353 5   -238442.55821
  22777446.2974   -1726313.78446  -1345173.55261
  20820928.9844    -212135.15047   -165300.36662
 91  4 17 20 58  0.0000000  0  5G18G 2G16G11G19
  21265685.3984    2631939.41747   2050855.21563
  22726444.750    -3918721.761 6  -3053537.13621
  24165762.9534    -408810.76645   -250028.34061
  22775150.016    -1738371.126 6  -1354568.85821
  20820864.1954    -212483.92347   -165572.14162
 91  4 17 20 58 15.0000000  0  5G18G 2G16G11G19
  21271894.742     2664564.984 7   2076277.65023
  22719101.4384   -3957307.60446  -3083603.92461
  24162958.0164    -423551.48245   -261514.65961
  22772884.0084   -1750285.28646  -1363852.58661
  20820803.7274    -212786.84147   -165808.18362
 91  4 17 20 58 30.0000000  0  5G18G 2G16G11G19
  21278122.266     2697285.405 7   2101774.00223
  22711767.7734   -3995837.40446  -3113627.05361
  24160175.8364    -438170.79445   -272906.32261
  22770640.8444   -1762062.40646  -1373029.53061
  20820755.1724    -213050.22547   -166013.42562
 91  4 17 20 58 45.0000000  0  5G18G 2G16G11G19
  21284367.078     2730100.590 7   2127344.19422
  22704448.609    -4034311.372 6  -3143606.66621
  24157416.8984    -452668.82145   -284203.49761
  22768426.6884   -1773702.57146  -1382099.74861
  20820710.9844    -213274.31647   -166188.04662
 91  4 17 20 59  0.0000000  0  5G18G 2G16G11G19
  21290629.273     2763012.890 7   2152990.06023
  22697137.289    -4072726.661 6  -3173540.54821
  24154679.8914    -467042.81645   -295404.02661
  22766239.3984   -1785203.02346  -1391061.11561
  20820678.6334    -213456.38847   -166329.92662
 91  4 17 20 59 15.0000000  0  5G18G 2G16G11G19
  21296910.289     2796021.070 7   2178710.63823
  22689839.1804   -4111084.22846  -3203429.47561
  24151970.1644    -481293.51645   -306508.48461
  22764077.9144   -1796564.56746  -1399914.23661
  20820649.8754    -213597.51247
 91  4 17 20 59 30.0000000  0  5G18G 2G16G11G19
  21303209.664     2829130.654 7   2204510.23123
  22682553.7344   -4149378.35046  -3233268.94561
  24149284.7894    -495415.42045   -317512.58261
  22761942.4304   -1807781.35946  -1408654.56361
  20820633.2664    -213691.70947
 91  4 17 20 59 45.0000000  0  5G18G 2G16G11G19
  21309529.094     2862333.940 7   2230382.83723
  22675274.7734   -4187616.47646  -3263064.79561
  24146619.6564    -509416.05845   -328422.19461
  22759835.6414   -1818860.83546  -1417287.89461
  20820620.5474    -213746.48947
 91  4 17 21  0  0.0000000  0  5G18G 2G16G11G19
  21315866.1334    2895635.34747   2256331.89762
  22668009.9694   -4225793.88246  -3292813.32461
  24143978.0314    -523290.73945   -339233.65361
  22757751.8204   -1829798.29846  -1425810.56861
  20820618.8984    -213757.39247
 91  4 17 21  0 15.0000000  0  5G18G 2G16G11G19
  21322221.766     2929033.559 7   2282356.39322
  22660755.2734   -4263911.75846  -3322515.47361
  24141362.523     -537040.615 5   -349947.84221
  22755699.4534   -1840594.73246  -1434223.34761
  20820625.3984    -213725.44647
 91  4 17 21  0 30.0000000  0  5G18G 2G16G11G19
  21328595.1254    2962525.20147   2308453.69063
  22653514.0634   -4301973.01846  -3352173.49961
  24138768.0704    -550668.54345   -360567.02961
  22753669.7194   -1851252.98846  -1442528.45261
  20820640.7664    -213653.52747
 91  4 17 21  0 45.0000000  0  5G18G 2G16G11G19
  21334988.1804    2996113.77247   2334626.51962
  22646281.5314   -4339973.75846  -3381784.36961
  24136199.867     -564171.022 5   -371088.43921
  22751667.945    -1861769.276 6  -1450722.93521
  20820660.8444    -213537.98247
 91  4 17 21  1  0.0000000  0  5G18G 2G16G11G19
  21341396.0704    3029796.79047   2360872.93662
  22639062.6884   -4377916.58146  -3411350.11761
  24133653.8834    -577550.55545   -381514.07261
  22749694.008    -1872145.968 6  -1458808.64521
  20820695.9224    -213381.24346
 91  4 17 21  1 15.0000000  0  5G18G 2G16G11G19
  21347824.461     3063571.493 7   2387190.80122
  22631851.0864   -4415803.92746  -3440872.63261
  24131126.945     -590809.332 5   -391845.57621
  22747745.367    -1882385.175 6  -1466787.22321
  20820727.8754    -213185.58447
 91  4 17 21  1 30.0000000  0  5G18G 2G16G11G19
  21354269.297     3097441.963 7   2413583.29022
  22624654.6724   -4453631.38946  -3470348.47861
  24128630.2814    -603943.22945   -402079.80461
  22745824.9454   -1892482.60346  -1474655.32761
  20820777.1254    -212946.58446   -165932.71262
 91  4 17 21  1 45.0000000  0  5G18G 2G16G11G19
  21360733.641     3131407.967 7   2440050.22222
  22617467.9614   -4491398.89846  -3499777.61561
  24126154.953     -616952.190 5   -412216.68321
  22743929.109    -1902438.231 6  -1482412.93221
  20820827.1334    -212664.25947   -165712.71662
 91  4 17 21  2  0.0000000  0  5G18G 2G16G11G19
  21367214.719     3165466.901 7   2466589.56822
  22610291.0004   -4529108.70046  -3529161.77361
  24123701.641     -629838.463 5   -422257.93021
  22742062.109    -1912254.201 6  -1490061.70921
  20820889.6884    -212340.99347   -165460.82762
 91  4 17 21  2 15.0000000  0  5G18G 2G16G11G19
  21373714.5704    3199620.29647   2493202.51462
  22603125.570    -4566759.059 6  -3558499.62821
  24121274.0004    -642600.32145   -432202.23861
  22740221.094    -1921928.685 6  -1497600.24521
  20820957.3754    -211975.11047   -165175.72562
 91  4 17 21  2 30.0000000  0  5G18G 2G16G11G19
  21380231.1024    3233863.27647   2519885.26963
  22595970.9304   -4604354.65446  -3587794.79861
  24118868.594     -655242.859 5   -442053.60721
  22738405.4774   -1931466.38446  -1505032.19461
  20821037.0554    -211571.35747   -164861.11462
 91  4 17 21  2 45.0000000  0  6G18G 2G16G11G19G 6
  21386764.0314    3268198.49647   2546639.89662
  22588828.6254   -4641892.36746  -3617044.87361
  24116485.6094    -667762.68245   -451809.33061
  22736617.766    -1940864.013 6  -1512354.99621
  20821120.9064    -211126.33747   -164514.35062
  24383430.5394         -0.21355
 91  4 17 21  3  0.0000000  0  6G18G 2G16G11G19G 6
  21393316.6484    3302630.59647   2573470.01362
  22581696.4844   -4679367.46346  -3646246.15961
  24114128.4534    -680155.04945   -461465.74861
  22734855.6254   -1950116.75546  -1519564.90261
  20821213.5004    -210635.54747   -164131.92062
  24376796.383      -34856.642 5
 91  4 17 21  3 15.0000000  0  6G18G 2G16G11G19G 6
  21399886.1254    3337155.66047   2600372.56862
  22574576.8754   -4716783.80946  -3675401.65561
  24111794.914     -692423.714 5   -471025.76921
  22733122.5004   -1959228.29846  -1526664.77461
  20821314.3674    -210102.71947   -163716.72962
  24370163.0394     -69717.11445        -0.28271
 91  4 17 21  3 30.0000000  0  6G18G 2G16G11G19G 6
  21406473.0474    3371769.86447   2627344.58462
  22567468.6254   -4754144.82046  -3704514.04661
  24109480.5704    -704572.45445   -480492.33161
  22731414.1334   -1968202.27946  -1533657.46561
  20821423.2894    -209531.43247   -163271.57762
  24363526.258     -104585.509 4    -27170.34721
 91  4 17 21  3 45.0000000  0  6G18G 2G16G11G19G 6
  21413077.6564    3406478.31347   2654390.04262
  22560369.7114   -4791444.84646  -3733578.90461
  24107195.0314    -716595.51045   -489860.97061
  22729734.5394   -1977032.94546  -1540538.47361
  20821540.1644    -208915.98147   -162792.00862
  24356891.6564    -139456.20844    -54342.23761
 91  4 17 21  4  0.0000000  0  6G18G 2G16G11G19G 6
  21419700.7814    3441280.09047   2681508.21962
  22553283.6094   -4828684.78346  -3762596.94161
  24104931.516     -728493.764 5   -499132.35321
  22728082.547    -1985720.970 6  -1547308.33521
  20821670.3054    -208257.23946   -162278.70562
  24350253.3524    -174330.14245    -81516.61461
 91  4 17 21  4 15.0000000  0  6G18G 2G16G11G19G 6
  21426340.5474    3476174.28947   2708698.41162
  22546207.5234   -4865865.29646  -3791568.68561
  24102691.6094    -740268.14145   -508307.21861
  22726454.383    -1994266.942 6  -1553967.51121
  20821799.3594    -207555.79447   -161732.13562
  24343617.742     -209208.164 5   -108694.19921
 91  4 17 21  4 30.0000000  0  6G18G 2G16G11G19G 6
  21432999.6564    3511163.39747   2735962.55862
  22539145.8054   -4902983.62546  -3820491.96061
  24100471.5314    -751915.76045   -517383.30861
  22724855.9064   -2002668.18746  -1560513.91261
  20821941.4304    -206808.92147   -161150.15962
  24336979.4924    -244087.54144   -135872.83361
 91  4 17 21  4 45.0000000  0  6G18G 2G16G11G19G 6
  21439674.2194    3546241.86447   2763296.33962
  22532090.5704   -4940044.86546  -3849370.75561
  24098278.477     -763441.839 5   -526364.67021
  22723284.039    -2010929.793 6  -1566951.49521
  20822091.6174    -206021.71247   -160536.75362
  24330342.7504    -278973.50644   -163056.60561
 91  4 17 21  5  0.0000000  0  6G18G 2G16G11G19G 6
  21446366.188     3581409.873 7   2790699.89822
  22525049.9224   -4977048.56946  -3878204.71661
  24096109.7424    -774846.27945   -535251.27561
  22721738.266    -2019051.350 6  -1573279.95221
  20822252.6804    -205193.85946   -159891.68062
  24323699.625     -313865.881 4   -190245.34821
 91  4 17 21  5 15.0000000  0  6G18G 2G16G11G19G 6
  21453077.8204    3616673.47947   2818177.94162
  22518020.5784   -5013988.79346  -3906989.22061
  24093963.5164    -786123.00145   -544038.34461
  22720220.4304   -2027026.56346  -1579494.37561
  20822414.9144    -204319.10747   -159210.06062
  24317062.406     -348758.530 4   -217434.32221
 91  4 17 21  5 30.0000000  0  6G18G 2G16G11G19G 6
  21459806.3914    3652031.04147   2845729.19962
  22511001.2894   -5050866.66146  -3935725.12161
  24091841.9454    -797273.09445   -552726.75761
  22718733.234    -2034856.627 6  -1585595.69821
  20822590.7424    -203398.77647   -158492.92862
  24310420.2194    -383652.95044   -244624.68861
 91  4 17 21  5 45.0000000  0  6G18G 2G16G11G19G 6
  21466550.9144    3687476.49847   2873348.95262
  22503995.4844   -5087687.84746  -3964416.86861
  24089743.344     -808302.004 5   -561320.72621
  22717265.797    -2042547.145 6  -1591588.28421
  20822773.672     -202438.748 7   -157744.86222
  24303781.7894    -418554.84844   -271820.87361
 91  4 17 21  6  0.0000000  0  6G18G 2G16G11G19G 6
  21473312.6334    3723009.70547   2901037.06962
  22496998.9694   -5124452.39646  -3993064.47161
  24087667.273     -819210.397 5   -569820.81421
  22715831.352    -2050098.214 6  -1597472.21421
  20822963.3444    -201438.90447   -156965.77562
  24297136.4534    -453464.43044   -299023.02461
 91  4 17 21  6 15.0000000  0  6G18G 2G16G11G19G 6
  21480092.0394    3758637.75647   2928799.09962
  22490016.1484   -5161152.73846  -4021662.04861
  24085616.3754    -829990.64045   -578221.03761
  22714420.055    -2057502.195 6  -1603241.52821
  20823163.539     -200391.676 7   -156149.76422
  24290492.9224    -488374.15744   -326225.29261
 91  4 17 21  6 30.0000000  0  6G18G 2G16G11G19G 6
  21486889.3054    3794354.15947   2956629.96262
  22483042.6954   -5197795.25046  -4050214.55961
  24083586.9774    -840648.87745   -586526.16661
  22713039.8524   -2064765.32646  -1608901.08461
  20823368.2424    -199303.41447   -155301.77662
  24283850.2504    -523290.42143   -353432.68461
 91  4 17 21  6 45.0000000  0  6G18G 2G16G11G19G 6
  21493702.6564    3830161.43847   2984531.64662
  22476080.7974   -5234377.30346  -4078719.95961
  24081583.328     -851182.565 5   -594734.25221
  22711684.117    -2071885.083 6  -1614448.92521
  20823585.8834    -198171.39447   -154419.69162
  24277204.5084    -558210.78643   -380643.20761
 91  4 17 21  7  0.0000000  0  6G18G 2G16G11G19G 6
  21500534.8914    3866060.60147   3012504.92362
  22469131.6804   -5270897.46646  -4107177.13661
  24079604.406     -861590.440 5   -602844.31621
  22710356.070    -2078859.958 6  -1619883.87121
  20823810.1174    -196994.52347   -153502.66362
  24270557.8834    -593133.96744   -407855.97561
 91  4 17 21  7 15.0000000  0  6G18G 2G16G11G19G 6
  21507384.1334    3902052.72247   3040550.63762
  22462193.5864   -5307354.21246  -4135584.89561
  24077645.6954    -871871.10845   -610855.26561
  22709059.320    -2085688.494 6  -1625204.78621
  20824042.578     -195771.121 7   -152549.37222
  24263912.8594    -628058.57443   -435069.82261
 91  4 17 21  7 30.0000000  0  6G18G 2G16G11G19G 6
  21514249.7664    3938134.97147   3068666.57762
  22455268.2814   -5343750.43146  -4163945.50061
  24075712.1484    -882027.38445   -618769.27561
  22707786.375    -2092373.343 6  -1630413.74021
  20824284.563     -194503.917 7   -151561.95322
  24257262.4144    -662987.40143   -462286.96361
 91  4 17 21  7 45.0000000  0  6G18G 2G16G11G19G 6
  21521134.0234    3974305.32047   3096851.17162
  22448352.6414   -5380087.80146  -4192260.23861
  24073803.9924    -892061.17345   -626587.84061
  22706541.898    -2098916.197 6  -1635512.04421
  20824532.1884    -193194.68547   -150541.78062
  24250618.164     -697922.419 4   -489508.97121
 91  4 17 21  8  0.0000000  0  6G18G 2G16G11G19G 6
  21528033.1884    4010562.37747   3125103.32362
  22441449.5084   -5416367.39346  -4220529.96261
  24071917.7424    -901973.54545   -634311.79061
  22705322.055    -2105317.959 6  -1640500.41021
  20824790.0864    -191844.34647   -149489.58062
  24243967.2974    -732864.64844   -516736.55961
 91  4 17 21  8 15.0000000  0  6G18G 2G16G11G19G 6
  21534949.8914    4046910.01047   3153426.06162
  22434557.5314   -5452585.04446  -4248751.41661
  24070056.2114    -911760.33045   -641937.92261
  22704132.148    -2111574.610 6  -1645375.70821
  20825054.133     -190448.789 7   -148402.14722
  24237317.352     -767810.131 4   -543966.70221
 91  4 17 21  8 30.0000000  0  6G18G 2G16G11G19G 6
  21541882.6884    4083344.93447   3181816.81362
  22427677.117    -5488743.889 6  -4276927.05221
  24068215.555     -921424.808 5   -649468.66221
  22702968.984    -2117689.320 6  -1650140.39321
  20825328.7344    -189011.22147   -147281.97762
  24230668.039     -802762.007 4   -571201.79121
 91  4 17 21  8 45.0000000  0  6G18G 2G16G11G19G 6
  21548833.1094    4119869.47247   3210277.38962
  22420806.1414   -5524840.90846  -4305054.51261
  24066402.781     -930964.060 5   -656901.92421
  22701832.555    -2123659.066 6  -1654792.12721
  20825609.5864    -187528.77347   -146126.83062
  24224016.375     -837717.649 5   -598439.81321
 91  4 17 21  9  0.0000000  0  6G18G 2G16G11G19G 6
  21555800.055     4156481.652 7   3238806.26122
  22413950.8984   -5560878.12346  -4333135.38061
  24064610.305     -940380.330 5   -664239.27521
  22700723.383    -2129485.670 6  -1659332.32221
  20825903.5634    -186003.16446   -144938.05362
  24217360.172     -872678.938 5   -625682.27921
 91  4 17 21  9 15.0000000  0  6G18G 2G16G11G19G 6
  21562784.6954    4193181.03847   3267403.08762
  22407103.344    -5596855.798 6  -4361169.83821
  24062839.7034    -949673.74845   -671480.93261
  22699640.750    -2135169.407 6  -1663761.19121
  20826198.7194    -184434.63247   -143715.83062
  24210709.063     -907646.143 5   -652929.32721
 91  4 17 21  9 30.0000000  0  6G18G 2G16G11G19G 6
  21569785.188     4229972.756 7   3296071.86022
  22400269.164    -5632768.664 6  -4389153.81021
  24061096.992     -958839.044 5   -678622.76221
  22698589.6954   -2140704.86446  -1668074.52461
  20826506.9454    -182818.03147   -142456.15362
  24204053.0164    -942614.12945   -680176.98161
 91  4 17 21  9 45.0000000  0  6G18G 2G16G11G19G 6
  21576804.8674    4266852.25647   3324809.03162
  22393447.102    -5668620.699 6  -4417090.37621
  24059376.234     -967880.219 5   -685667.85921
  22697561.359    -2146096.043 6  -1672275.42521
  20826823.109     -181157.206 7   -141162.01822
  24197398.555     -977586.922 5   -707428.39421
 91  4 17 21 10  0.0000000  0  6G18G 2G16G11G19G 6
  21583838.984     4303819.323 7   3353614.44022
  22386634.570    -5704411.922 6  -4444979.56521
  24057680.086     -976797.427 5   -692616.38521
  22696564.2274   -2151342.87746  -1676363.85361
  20827147.508     -179452.234 7   -139833.47922
  24190743.758    -1012564.749 5   -734683.69021
 91  4 17 21 10 15.0000000  0  6G18G 2G16G11G19G 6
  21590890.484     4340873.864 7   3382487.99622
  22379836.578    -5740142.073 6  -4472821.15921
  24056007.6334    -985590.61245   -699468.22861
  22695593.258    -2156445.071 6  -1680339.57621
  20827480.6174    -177702.88247   -138470.35762
  24184083.336    -1047547.358 5   -761942.79821
 91  4 17 21 10 30.0000000  0  6G18G 2G16G11G19G 6
  21597956.922     4378015.116 7   3411429.12422
  22373049.063    -5775811.744 6  -4500615.62721
  24054357.367     -994260.264 5   -706223.85021
  22694650.0944   -2161403.39546  -1684203.19561
  20827823.148     -175909.659 7   -137073.05222
  24177429.0784   -1082535.52345   -789206.17561
 91  4 17 21 10 45.0000000  0  6G18G 2G16G11G19G 6
  21605042.313     4415246.328 7   3440440.34822
  22366273.125    -5811417.308 6  -4528360.14821
  24052732.570    -1002803.027 5   -712880.56521
  22693734.8594   -2166214.12646  -1687951.81161
  20828172.477     -174068.921 7   -135638.72322
  24170767.2034   -1117525.77345   -816471.17561
 91  4 17 21 11  0.0000000  0  6G18G 2G16G11G19G 6
  21612144.094     4452566.572 7   3469520.94522
  22359509.672    -5846959.544 6  -4556055.31221
  24051130.1564   -1011219.75845   -719439.09161
  22692844.266    -2170877.906 6  -1691585.90721
  20828532.555     -172181.485 7   -134168.00922
  24164109.258    -1152518.848 5   -843738.43121
 91  4 17 21 11 15.0000000  0  6G18G 2G16G11G19G 6
  21619263.0864    4489973.21847   3498668.86562
  22352757.523    -5882440.898 6  -4583703.04621
  24049550.8284   -1019512.86945   -725901.30661
  22691986.992    -2175397.135 6  -1695107.37021
  20828898.609     -170249.808 7   -132662.82122
  24157450.4144   -1187517.25645   -871009.80261
 91  4 17 21 11 30.0000000  0  6G18G 2G16G11G19G 6
  21626398.648     4527468.497 7   3527885.85522
  22346018.016    -5917858.637 6  -4611301.21521
  24047995.8444   -1027679.90945   -732265.26161
  22691154.211    -2179769.141 6  -1698514.11521
  20829275.898     -168271.088 7   -131120.97622
  24150787.6174   -1222518.42345   -898283.32961
 91  4 17 21 11 45.0000000  0  6G18G 2G16G11G19G 6
  21633550.836     4565052.515 7   3557171.99122
  22339290.422    -5953212.574 6  -4638849.66521
  24046467.891    -1035720.451 5   -738530.64821
  22690351.8444   -2183993.81346  -1701806.05861
  20829659.352     -166245.255 7   -129542.41522
  24144128.2504   -1257522.25345   -925558.90261
 91  4 17 21 12  0.0000000  0  6G18G 2G16G11G19G 6
  21640720.148     4602726.479 7   3586528.21222
  22332575.8364   -5988501.23246  -4666347.24261
  24044962.7734   -1043633.34045   -744696.56061
  22689575.266    -2188069.496 6  -1704981.90721
  20830057.078     -164170.642 7   -127925.84622
  24137467.820    -1292527.340 5   -952835.51521
 91  4 17 21 12 15.0000000  0  6G18G 2G16G11G19G 6
  21647904.961     4640491.238 7   3615955.18822
  22325872.172    -6023723.505 6  -4693793.09821
  24043480.5004   -1051417.14845   -750761.88461
  22688828.2034   -2191995.25746  -1708040.92561
  20830459.320     -162046.127 7   -126270.40222
  24130804.492    -1327532.590 5   -980112.22021
 91  4 17 21 12 30.0000000  0  6G18G 2G16G11G19G 6
  21655107.188     4678338.468 7   3645446.42722
  22319181.445    -6058887.180 6  -4721193.29221
  24042021.523    -1059080.142 5   -756733.09821
  22688107.0554   -2195778.83946  -1710989.16661
  20830872.8754    -159879.60147   -124582.20662
  24124143.438    -1362546.012 4  -1007395.29621
 91  4 17 21 12 45.0000000  0  6G18G 2G16G11G19G 6
  21662326.805     4716276.320 7   3675008.27622
  22312502.336    -6093984.163 6
  24040588.6024   -1066613.95745   -762603.64461
  22687415.8834   -2199411.97646  -1713820.17261
  20831294.727     -157662.694 7   -122854.75822
  24117479.453    -1397559.438 4
 91  4 17 21 13  0.0000000  0  6G18G 2G16G11G19G 6
  21669563.906     4754304.533 7   3704640.53422
  22305836.484    -6129014.453 6
  24039179.2814   -1074018.86545   -768373.73961
  22686754.297    -2202894.678 6  -1716533.95121
  20831727.953     -155395.614 7   -121088.22122
  24110817.938    -1432573.111 5
 91  4 17 21 13 15.0000000  0  6G18G 2G16G11G19G 6
  21676818.641     4792422.195 7   3734342.50122
  22299182.766    -6163978.221 6
  24037794.6884   -1081295.23845   -774043.68661
  22686120.242    -2206227.219 6  -1719130.72021
  20832165.9384    -153078.48447   -119282.67362
  24104152.797    -1467587.211 4
 91  4 17 21 13 30.0000000  0  6G18G 2G16G11G19G 6
  21684088.086     4830627.915 7   3764113.07922
  22292540.9614   -6198876.75046  -4830275.78661
  24036431.9454   -1088444.57545   -779614.62761
  22685512.977    -2209410.893 6  -1721611.48721
  20832621.523     -150712.515 6   -117439.07522
  24097491.2734   -1502603.22844  -1116530.40961
 91  4 17 21 13 45.0000000  0  6G18G 2G16G11G19G 6
  21691374.039     4868920.294 7   3793951.17822
  22285913.8204   -6233711.29046  -4857419.51861
  24035098.5554   -1095468.02845   -785087.51261
  22684936.570    -2212446.954 6  -1723977.23121
  20833075.578     -148299.037 7   -115558.45922
  24090826.3754   -1537622.31945  -1143817.91461
 91  4 17 21 14  0.0000000  0  6G18G 2G16G11G19G 6
  21698678.586     4907304.849 7   3823861.10922
  22279296.1804   -6268475.89046  -4884508.74861
  24033786.492    -1102359.999 5   -790457.89421
  22684386.953    -2215329.503 6  -1726223.35921
  20833549.953     -145832.086 6   -113636.17622
  24084160.680    -1572638.761 5  -1171103.35321
 91  4 17 21 14 15.0000000  0  6G18G 2G16G11G19G 6
  21706000.336     4945780.534 7   3853842.05122
  22272694.3754   -6303171.37646  -4911544.12761
  24032498.203    -1109121.055 5   -795726.31221
  22683870.258    -2218059.279 6  -1728350.44121
  20834024.352     -143312.350 7   -111672.75922
  24077495.805    -1607653.394 4  -1198387.37321
 91  4 17 21 14 30.0000000  0  6G18G 2G16G11G19G 6
  21713339.195     4984343.909 7   3883891.32022
  22266105.5554   -6337801.00646  -4938528.18361
  24031239.219    -1115754.440 5   -800895.24221
  22683376.695    -2220639.493 6  -1730360.97721
  20834514.141     -140743.090 7   -109670.75222
  24070835.8594   -1642669.49744  -1225672.54761
 91  4 17 21 14 45.0000000  0  6G18G 2G16G11G19G 6
  21720694.258     5022997.625 7   3914010.98322
  22259527.961    -6372361.991 6  -4965458.75121
  24029995.430    -1122257.408 5   -805962.51821
  22682913.688    -2223067.077 6  -1732252.57721
  20835014.617     -138121.284 7   -107627.79822
  24064174.539    -1677684.219 5  -1252956.64221
 91  4 17 21 15  0.0000000  0  6G18G 2G16G11G19G 6
  21728067.703     5061741.934 7   3944201.24222
  22252965.9304   -6406853.90246  -4992335.49761
  24028786.023    -1128629.687 5   -810927.99421
  22682481.750    -2225341.671 6  -1734024.97021
  20835523.6804    -135446.48747   -105543.55262
  24057509.8284   -1712697.18245  -1280239.36461
 91  4 17 21 15 15.0000000  0  6G18G 2G16G11G19G 6
  21735456.484     5100575.868 7   3974461.34122
  22246413.6094   -6441277.30946  -5019158.86661
  24027600.9224   -1134872.30945   -815792.42461
  22682079.164    -2227464.192 6  -1735678.86721
  20836040.844     -132719.423 7   -103418.58222
  24050847.7894   -1747709.35145  -1307521.46061
 91  4 17 21 15 30.0000000  0  6G18G 2G16G11G19G 6
  21742864.766     5139499.549 7   4004791.37222
  22239876.664    -6475631.421 6  -5045928.22921
  24026439.336    -1140984.200 5   -820554.97021
  22681704.914    -2229433.765 6  -1737213.57721
  20836570.0944    -129939.27947   -101252.24862
  24044186.070    -1782719.844 5  -1334802.25621
 91  4 17 21 15 45.0000000  0  6G18G 2G16G11G19G 6
  21750290.602     5178516.828 7   4035194.34022
  22233353.703    -6509912.520 6  -5072640.70121
  24025300.305    -1146961.947 5   -825213.02021
  22681359.695    -2231246.672 6  -1738626.21521
  20837108.367     -127102.278 7    -99041.61022
  24037524.461    -1817725.148 5  -1362079.01321
 91  4 17 21 16  0.0000000  0  6G18G 2G16G11G19G 6
  21757732.445     5217633.236 7   4065674.54722
  22226844.8284   -6544114.78046  -5099291.74361
  24024188.883    -1152799.479 5   -829761.80021
  22681045.492    -2232896.904 6  -1739912.08821
  20837660.750     -124202.449 7    -96782.01422
  24030863.1644   -1852719.30145  -1389347.07261
 91  4 17 21 16 15.0000000  0  6G18G 2G16G11G19G 6
  21765194.461     5256838.565 7   4096224.04722
  22220347.781    -6578248.100 6  -5125889.06021
  24023101.492    -1158507.456 5   -834209.62621
  22680761.227    -2234394.382 6  -1741078.93621
  20838223.750     -121249.762 7    -94481.23522
  24024206.000    -1887712.310 5  -1416614.24321
 91  4 17 21 16 30.0000000  0  6G18G 2G16G11G19G 6
  21772673.172     5296137.560 7   4126846.53222
  22213867.1024   -6612307.48546  -5152428.77561
  24022042.5474   -1164080.62445   -838552.40761
  22680503.461    -2235734.245 6  -1742122.96621
  20838798.0554    -118239.28946    -92135.42562
  24017546.617    -1922699.277 5  -1443876.67821
 91  4 17 21 16 45.0000000  0  6G18G 2G16G11G19G 6
  21780168.391     5335533.197 7   4157544.32322
  22207400.813    -6646289.437 6  -5178908.14621
  24021007.828    -1169515.536 5   -842787.42821
  22680278.484    -2236913.028 6  -1743041.47621
  20839382.070     -115167.340 7    -89741.71222
  24010889.555    -1957676.967 5  -1471131.93821
 91  4 17 21 17  0.0000000  0  6G18G 2G16G11G19G 6
  21787684.9774    5375030.77747   4188321.54162
  22200950.7114   -6680188.51346  -5205322.93661
  24020002.531    -1174806.947 5   -846910.67221
  22680087.859    -2237925.200 6  -1743830.16121
  20839977.766     -112028.441 7    -87295.83222
  24004240.063    -1992639.794 5  -1498375.59521
 91  4 17 21 17 15.0000000  0  6G18G 2G16G11G19G 6
  21795220.539     5414624.701 7   4219173.83722
  22194513.563    -6714010.077 6  -5231677.32821
  24019020.641    -1179960.018 5   -850926.08421
  22679926.352    -2238776.152 6  -1744493.22621
  20840587.750     -108827.986 7    -84801.98322
  23997586.4534   -2027593.32345  -1525612.01561
 91  4 17 21 17 30.0000000  0  6G18G 2G16G11G19G 6
  21802773.234     5454316.152 7   4250102.12922
  22188094.961    -6747752.650 6  -5257970.16721
  24018066.367    -1184973.680 5   -854832.89921
  22679795.641    -2239464.489 6  -1745029.58021
  20841211.5314    -105564.53546    -82259.04562
  23990936.5164   -2062535.98845  -1552839.96861
 91  4 17 21 17 45.0000000  0  6G18G 2G16G11G19G 6
  21810346.711     5494109.027 7   4281109.44922
  22181687.703    -6781412.073 6  -5284198.21222
  24017139.758    -1189843.797 5   -858627.87121
  22679695.680    -2239986.011 6  -1745435.95021
  20841842.727     -102233.829 7    -79663.70522
  23984289.1724   -2097463.82745  -1580056.36961
 91  4 17 21 18  0.0000000  0  6G18G 2G16G11G19G 6
  21817938.109     5534006.895 7   4312198.58322
  22175299.336    -6814984.465 6  -5310358.45021
  24016240.781    -1194566.575 5   -862307.98621
  22679628.273    -2240336.821 6  -1745709.29421
  20842489.055      -98831.991 6    -77012.93122
  23977650.7504   -2132372.98345  -1607258.21161
 91  4 17 21 18 15.0000000  0  6G18G 2G16G11G19G 6
  21825550.9694    5574012.69647   4343371.81662
  22168929.133    -6848466.658 6  -5336448.38821
  24015372.9924   -1199139.16345   -865871.09861
  22679592.164    -2240513.793 6
  20843152.172      -95355.889 6    -74304.29222
  23971011.2664   -2167260.27045  -1634442.99361
 91  4 17 21 18 30.0000000  0  6G18G 2G16G11G19G 6
  21833184.0004    5614124.92547   4374627.98062
  22162571.375    -6881859.823 6  -5362468.96322
  24014529.0084   -1203562.51145   -869317.87161
  22679594.3284   -2240518.14646
  20843826.4774     -91806.69046    -71538.68662
  23964376.273    -2202127.041 5  -1661611.81121
 91  4 17 21 18 45.0000000  0  6G18G 2G16G11G19G 6
  21840837.5164    5654344.81947   4405968.03762
  22156236.242    -6915162.622 7  -5388419.11621
  24013716.594    -1207835.435 5   -872647.48821
  22679625.305    -2240348.399 6
  20844515.672      -88182.744 6    -68714.85222
  23957744.227    -2236971.848 5  -1688763.51221
 91  4 17 21 19  0.0000000  0  6G18G 2G16G11G19G 6
  21848512.9454    5694676.09147   4437394.88162
  22149915.602    -6948370.933 6  -5414295.64322
  24012932.5394   -1211953.90145   -875856.72561
  22679691.531    -2240000.610 6
  20845221.2584     -84479.91246    -65829.53262
  23951119.7974   -2271790.73945  -1715895.01061
 91  4 17 21 19 15.0000000  0  6G18G 2G16G11G19G 6
  21856209.398     5735120.450 7   4468909.84222
  22143616.016    -6981482.745 7  -5440096.97522
  24012179.4924   -1215916.30745   -878944.35761
  22679794.102    -2239472.867 6  -1745036.02421
  20845941.5004     -80696.20146    -62881.19762
  23944497.109    -2306581.796 5  -1743004.84121
 91  4 17 21 19 30.0000000  0  6G18G 2G16G11G19G 6
  21863927.0314    5775675.76347   4500511.27162
  22137332.516    -7014499.759 7  -5465824.44322
  24011453.7584   -1219724.07445   -881911.51461
  22679926.453    -2238766.774 6  -1744485.81121
  20846676.2584     -76833.29546    -59871.14862
  23937881.6094   -2341346.86845  -1770094.41261
 91  4 17 21 19 45.0000000  0  6G18G 2G16G11G19G 6
  21871666.3524    5816345.65347   4532201.97262
  22131067.922    -7047418.235 7  -5491475.12322
  24010756.4774   -1223373.90145   -884755.59161
  22680095.6644   -2237878.64146  -1743793.74961
  20847428.8364     -72887.45346    -56796.47562
  23931270.9454   -2376082.11645  -1797160.72361
 91  4 17 21 20  0.0000000  0  6G18G 2G16G11G19G 6
  21879429.7034    5857139.87647   4563989.55362
  22124825.523    -7080228.048 7  -5517041.13121
  24010096.7424   -1226855.61545   -887468.67261
  22680302.6644   -2236798.33246  -1742951.94861
  20848198.3364     -68848.51646    -53649.26062
  23924668.8524   -2410777.55845  -1824196.03961
 91  4 17 21 20 15.0000000  0  6G18G 2G16G11G19G 6
  21887216.0634    5898057.73347   4595873.47562
  22118602.867    -7112929.602 7  -5542522.79222
  24009463.6414   -1230169.78045   -890051.20561
  22680543.3444   -2235526.33346  -1741960.76861
  20848981.5944     -64716.75146    -50429.71362
  23918074.555    -2445433.657 5  -1851200.71521
 91  4 17 21 20 30.0000000  0  6G18G 2G16G11G19G 6
  21895025.3364    5939098.78247   4627853.38962
  22112398.977    -7145523.425 7  -5567920.50022
  24008865.9924   -1233316.90745   -892503.57861
  22680825.1484   -2234063.09246  -1740820.58161
  20849784.8524     -60492.63946    -47138.20562
  23911485.680    -2480050.856 5  -1878175.04921
 91  4 17 21 20 45.0000000  0  6G18G 2G16G11G19G 6
  21902859.4064    5980266.47147   4659931.98462
  22106218.875    -7178005.347 7  -5593231.00922
  24008300.188    -1236293.064 5   -894822.73021
  22681138.9304   -2232404.52946  -1739528.18661
  20850607.3674     -56172.11546    -43771.56662
  23904904.500    -2514625.081 5  -1905115.89421
 91  4 17 21 21  0.0000000  0  6G18G 2G16G11G19G 6
  21910718.5634    6021567.87947   4692114.77662
  22100060.375    -7210368.367 7  -5618448.87122
  24007766.617    -1239091.488 5   -897003.36621
  22681491.2734   -2230543.78546  -1738078.25061
  20851450.6954     -51747.96946    -40324.18462
  23898338.6024   -2549149.52545  -1932017.95061
 91  4 17 21 21 15.0000000  0  6G18G 2G16G11G19G 6
  21918603.9924    6063002.70847   4724401.53762
  22093923.750    -7242612.392 7  -5643574.01122
  24007267.5004   -1241712.06545   -899045.44161
  22681886.6414   -2228480.58746  -1736470.56061
  20852310.2664     -47220.06146    -36795.95262
  23891775.789    -2583624.046 5  -1958881.13921
 91  4 17 21 21 30.0000000  0  6G18G 2G16G11G19G 6
  21926514.6644    6104574.08947   4756794.70062
  22087811.125    -7274733.911 7  -5668603.68122
  24006807.6024   -1244151.25445   -900946.17061
  22682315.3754   -2226211.58646  -1734702.50361
  20853197.1954     -42584.99646    -33184.21962
  23885227.6254   -2618045.22745  -1985702.73061
 91  4 17 21 21 45.0000000  0  6G18G 2G16G11G19G 6
  21934453.3054    6146288.53847   4789299.34662
  22081722.875    -7306726.177 7  -5693532.63922
  24006375.875    -1246402.336 5   -902700.30521
  22682790.7034   -2223729.98446  -1732768.78061
  20854096.2424     -37835.93046    -29483.65562
  23878684.5234   -2652406.28245  -2012477.45761
 91  4 17 21 22  0.0000000  0  6G18G 2G16G11G19G 6
  21942419.813     6188155.231 7   4821922.62922
  22075661.805    -7338579.900 7  -5718353.63722
  24005985.508    -1248456.185 5   -904300.76721
  22683302.2114   -2221026.54546  -1730662.20261
  20855025.1884     -32963.49846    -25686.95962
  23872163.1254   -2686698.00845  -2039198.20361
 91  4 17 21 22 15.0000000  0  6G18G 2G16G11G19G 6
  21950414.3284    6230166.38047   4854658.46661
  22069624.211    -7370302.439 7  -5743072.42022
  24005631.3204   -1250320.38245   -905753.44861
  22683858.8204   -2218108.66146  -1728388.52561
  20855972.9454     -27975.03046    -21799.84762
  23865646.2814   -2720927.83145  -2065870.68861
 91  4 17 21 22 30.0000000  0  6G18G 2G16G11G19G 6
  21958437.5164    6272334.76847   4887516.83562
  22063615.891    -7401880.686 7  -5767678.76722
  24005316.453    -1251982.038 5   -907048.31921
  22684456.7504   -2214963.28946  -1725937.58461
  20856947.3594     -22857.25046    -17811.97162
  23859148.344    -2755082.637 5  -2092484.70321
 91  4 17 21 22 45.0000000  0  6G18G 2G16G11G19G 6
  21966492.797     6314660.930 7   4920498.14122
  22057633.922    -7433313.878 7  -5792172.08222
  24005036.9304   -1253440.37145   -908184.74861
  22685098.9144   -2211589.77246  -1723308.86661
  20857947.7034     -17609.49346    -13722.81262
  23852662.8754   -2789161.80245  -2119039.79461
 91  4 17 21 23  0.0000000  0  6G18G 2G16G11G19G 6
  21974579.1174    6357152.35747   4953608.22062
  22051682.570    -7464594.076 7  -5816546.18121
  24004799.086    -1254687.668 5   -909156.73021
  22685784.703    -2207980.114 6  -1720496.13621
  20858973.6724     -12223.66646     -9526.06662
  23846192.945    -2823157.445 5  -2145529.77521
 91  4 17 21 23 15.0000000  0  6G18G 2G16G11G19G 6
  21982697.703     6399811.069 7   4986848.64622
  22045758.789    -7495719.439 7  -5840799.63222
  24004604.570    -1255722.010 5   -909962.78821
  22686518.2894   -2204132.28846  -1717497.83261
  20860024.0234      -6697.63746     -5220.07162
  23839736.477    -2857067.548 5  -2171953.13721
 91  4 17 21 23 30.0000000  0  6G18G 2G16G11G19G 6
  21990848.0314    6442641.06247   5020222.53962
  22039865.570    -7526685.377 7  -5864928.85521
  24004449.8284   -1256539.30345   -910599.70161
  22687295.9924   -2200041.98546  -1714310.58561
  20861102.5944      -1027.08047      -801.46562
  23833305.906    -2890887.656 5  -2198306.34921
 91  4 17 21 23 45.0000000  0  6G18G 2G16G11G19G 6
  21999032.5004    6485651.64447   5053737.15062
  22034005.195    -7557482.214 7  -5888926.31322
  24004336.281    -1257129.935 5   -911060.00421
  22688122.7194   -2195699.58446  -1710926.89561
  20862210.6094       4797.67147      3737.29462
  23826886.0394   -2924608.27445  -2224582.05161
 91  4 17 21 24  0.0000000  0  6G18G 2G16G11G19G 6
  22007251.7344    6528841.21647   5087391.23662
  22028176.828    -7588111.537 7  -5912793.24222
  24004265.328    -1257495.507 5   -911344.92121
  22688995.7734   -2191106.66946  -1707347.99561
  20863349.1254      10775.02246      8394.96762
  23820490.9454   -2958231.10445  -2250781.52961
 91  4 17 21 24 15.0000000  0  6G18G 2G16G11G19G 6
  22015502.1954    6572205.66846   5121181.59062
  22022379.352    -7618577.130 7  -5936532.59422
  24004239.930    -1257639.707 5
  22689917.9774   -2186267.00146  -1703576.82461
  20864513.5634      16901.37646     13168.74262
  23814109.492    -2991759.734 5  -2276907.64421
 91  4 17 21 24 30.0000000  0  6G18G 2G16G11G19G 6
  22023789.0944    6615752.89846   5155114.37062
  22016614.266    -7648870.796 7  -5960137.97422
  24004254.391    -1257554.526 5
  22690888.2274   -2181172.56746  -1699607.13661
  20865709.4694      23184.96146     18065.03562
  23807750.4144   -3025186.16245  -2302954.09061
 91  4 17 21 24 45.0000000  0  6G18G 2G16G11G19G 6
  22032112.3134    6659482.58846   5189189.32362
  22010881.008    -7678992.349 7  -5983609.24122
  24004318.7814   -1257239.97745
  22691905.7814   -2175823.21646  -1695438.80861
  20866934.2664      29626.01946     23084.03262
  23801405.9454   -3058510.24745  -2328920.80861
 91  4 17 21 25  0.0000000  0  6G18G 2G16G11G19G 6
  22040468.2814    6703398.22546   5223409.17561
  22005184.938    -7708938.060 7  -6006943.48622
  24004420.0394   -1256692.79045
  22692971.8364   -2170215.26446  -1691068.96961
  20868192.2734      36228.40646     28228.74162
  23795084.984    -3091728.320 5  -2354804.91421
 91  4 17 21 25 15.0000000  0  6G18G 2G16G11G19G 6
  22048860.9614    6747500.76646   5257774.66661
  21999519.930    -7738706.974 7  -6030139.96522
  24004570.8594   -1255911.85845   -910111.22061
  22694091.0314   -2164347.59946  -1686496.75961
  20869477.2734      42993.29746     33500.07662
  23788784.414    -3124839.284 5  -2380605.55121
 91  4 17 21 25 30.0000000  0  6G18G 2G16G11G19G 6
  22057288.7034    6791792.02046   5292287.20262
  21993887.5234   -7768296.93547  -6053197.00762
  24004763.0864   -1254894.98745   -909318.90161
  22695255.1174   -2158218.27946  -1681720.66661
  20870801.3284      49922.68146     38899.58762
  23782505.8524   -3157841.00745  -2406321.09361
 91  4 17 21 25 45.0000000  0  6G18G 2G16G11G19G 6
  22065754.656     6836272.964 6   5326947.54721
  21988292.1334   -7797706.50647  -6076113.48862
  24005002.1334   -1253640.84145   -908341.71661
  22696473.3444   -2151826.06646  -1676739.72461
  20872145.5784      57018.08946     44428.46562
  23776249.000    -3190732.236 5  -2431950.50721
 91  4 17 21 26  0.0000000  0  6G18G 2G16G11G19G 6
  22074253.8834    6880941.36846   5361753.96661
  21982729.758    -7826937.718 7  -6098890.98522
  24005283.164    -1252151.564 5   -907181.29221
  22697735.6884   -2145172.73546  -1671555.31561
  20873533.211       64277.688 6     50085.27922
  23770008.4694   -3223514.87045  -2457495.30861
 91  4 17 21 26 15.0000000  0  6G18G 2G16G11G19G 6
  22082789.1414    6925795.95646   5396705.47061
  21977200.9224   -7855991.71547  -6121530.39362
  24005612.8834   -1250429.05845   -905839.11461
  22699054.1954   -2138259.74146  -1666168.56161
  20874941.6094      71700.15647     55869.01262
  23763790.5474   -3256190.42745  -2482956.65461
 91  4 17 21 26 30.0000000  0  6G18G 2G16G11G19G 6
  22091359.9144    6970833.33346   5431799.39861
  21971704.352    -7884871.116 7  -6144033.75022
  24005983.570    -1248475.655 5   -904317.04821
  22700418.8674   -2131089.79446  -1660581.58761
  20876386.0314      79282.91746     61777.64562
  23757592.6174   -3288761.42145  -2508336.55161
 91  4 17 21 26 45.0000000  0  6G18G 2G16G11G19G 6
  22099965.750     7016052.034 6   5467034.61621
  21966242.578    -7913577.660 7  -6166402.41422
  24006397.3444   -1246293.26345   -902616.51961
  22701831.7664   -2123664.61746  -1654795.73561
  20877855.8054      87024.32447     67809.89862
  23751411.6884   -3321229.54145  -2533636.28661
 91  4 17 21 27  0.0000000  0  6G18G 2G16G11G19G 6
  22108604.6334    7061447.95747   5502407.93461
  21960811.3984   -7942115.24847  -6188639.42462
  24006859.844    -1243885.776 5   -900740.62021
  22703290.0784   -2115987.94846  -1648813.91161
  20879360.8134      94920.78646     73962.97562
  23745254.508    -3353598.599 5  -2558858.81521
 91  4 17 21 27 15.0000000  0  6G18G 2G16G11G19G 6
  22117274.945     7107018.214 6   5537917.09621
  21955412.8364   -7970486.01447  -6210746.45062
  24007354.1094   -1241255.61445   -898691.21361
  22704799.4144   -2108062.21046
  20880892.2814     102970.03146
  23739113.7974   -3385870.96145  -2584005.99761
 91  4 17 21 27 30.0000000  0  6G18G 2G16G11G19G 6
  22125978.6724    7152754.78747   5573555.85061
  21950043.9844   -7998697.86847  -6232729.64462
  24007901.9224   -1238410.94445   -896474.67061
  22706354.1174   -2099895.29346
  20882453.3754     111164.33646
  23732987.156    -3418054.536 5  -2609083.99421
 91  4 17 21 27 45.0000000  0  6G18G 2G16G11G19G 6
  22134712.844     7198650.766 6   5609318.82121
  21944704.297    -8026757.260 7  -6254594.03622
  24008480.031    -1235358.106 5   -894095.90821
  22707951.6884   -2091493.74046  -1629727.50961
  20884037.0394     119497.04947     93113.27462
  23726878.438    -3450155.791 5  -2634097.86621
 91  4 17 21 28  0.0000000  0  6G18G 2G16G11G19G 6
  22143475.7734    7244699.01746   5645200.44761
  21939392.656    -8054671.398 7  -6276345.23722
  24009100.859    -1232104.468 5   -891560.64221
  22709594.6484   -2082864.78046  -1623003.64161
  20885647.039      127961.125 6     99708.64322
  23720781.836    -3482181.992 5  -2659053.22721
 91  4 17 21 28 15.0000000  0  6G18G 2G16G11G19G 6
  22152267.766     7290893.861 7   5681196.29621
  21934106.492    -8082445.763 7  -6297987.53222
  24009755.3524   -1228655.70645   -888873.37561
  22711279.7114   -2074014.01046  -1616106.93461
  20887281.203      136551.221 7    106402.21022
  23714704.430    -3514138.541 5  -2683954.33721
 91  4 17 21 28 30.0000000  0  6G18G 2G16G11G19G 6
  22161085.3204    7337233.74047   5717305.15861
  21928848.789    -8110081.455 7  -6319521.76622
  24010448.891    -1225013.068 5   -886035.01921
  22713006.1804   -2064942.54446  -1609038.25961
  20888939.703      145266.366 6    113193.21222
  23708635.609    -3546026.571 5  -2708802.04121
 91  4 17 21 28 45.0000000  0  6G18G 2G16G11G19G 6
  22169929.3754    7383713.58546   5753523.09161
  21923614.7584   -8137583.11747  -6340951.56262
  24011179.3984   -1221181.62545   -883049.53361
  22714772.4534   -2055655.28646  -1601801.43161
  20890623.375      154101.781 7    120077.93722
  23702581.4064   -3577850.93645  -2733600.15461
 91  4 17 21 29  0.0000000  0  6G18G 2G16G11G19G 6
  22178800.1884    7430324.86446   5789843.43961
  21918405.133    -8164958.914 7  -6362283.28322
  24011941.2814   -1217169.54445   -879923.33261
  22716580.3674   -2046160.45546  -1594402.86261
  20892329.352      163049.330 6    127050.04622
  23696532.445    -3609619.786 5  -2758354.98621
 91  4 17 21 29 15.0000000  0  6G18G 2G16G11G19G 6
  22187693.8364    7477059.89046   5826260.21361
  21913219.141    -8192216.595 7  -6383522.96322
  24012738.695    -1212984.210 5   -876662.08821
  22718424.8054   -2036465.54646  -1586848.38761
  20894045.117      172101.648 7    134103.77822
  23690497.7424   -3641340.71145  -2783072.48361
 91  4 17 21 29 30.0000000  0  6G18G 2G16G11G19G 6
  22196611.0634    7523918.78946   5862773.51161
  21908053.2344   -8219355.82047  -6404670.34062
  24013570.195    -1208625.718 5   -873265.94221
  22720306.5474   -2026570.37846  -1579137.86661
  20895790.109      181259.202 7    141239.52022
  23684466.977    -3673013.356 5  -2807752.35821
 91  4 17 21 29 45.0000000  0  6G18G 2G16G11G19G 6
  22205550.367     7570893.495 6   5899377.05021
  21902910.695    -8246384.013 7  -6425731.20122
  24014428.7424   -1204101.63445   -869740.74161
  22722227.2194   -2016482.60046  -1571277.25861
  20897550.453      190514.311 7    148451.27722
  23678449.6484   -3704645.37145  -2832400.59561
 91  4 17 21 30  0.0000000  0  6G18G 2G16G11G19G 6
  22214510.125     7617979.271 6   5936067.13121
  21897786.3754   -8273305.64947  -6446709.02862
  24015320.6564   -1199416.85745   -866090.34461
  22724183.0314   -2006206.68246  -1563270.04761
  20899332.781      199862.543 6    155735.60122
  23672437.492    -3736241.203 5  -2857020.61821
 91  4 17 21 30 15.0000000  0  6G18G 2G16G11G19G 6
  22223488.961     7665164.143 6   5972834.43021
  21892683.078    -8300132.740 7  -6467613.18622
  24016242.2424   -1194583.29445   -862324.03561
  22726170.9144   -1995754.60846  -1555125.57961
  20901126.094      209292.204 7    163083.37122
  23666429.359    -3767812.730 5  -2881621.70021
 91  4 17 21 30 30.0000000  0  6G18G 2G16G11G19G 6
  22232487.461     7712449.149 6   6009679.75621
  21887595.211    -8326863.701 7  -6488442.43222
  24017190.250    -1189599.482 5   -858440.60921
  22728194.1724   -1985124.93546  -1546842.71561
  20902934.680      218804.765 7    170495.73822
  23660427.2974   -3799358.45645  -2906202.69861
 91  4 17 21 30 45.0000000  0  6G18G 2G16G11G19G 6
  22241503.586     7759832.167 6   6046601.45521
  21882525.6564   -8353500.43447  -6509198.26462
  24018163.367    -1184467.454 5   -854441.73821
  22730251.9384   -1974319.63146  -1538423.00661
  20904759.352      228398.457 7    177971.32322
  23654428.406    -3830880.441 5  -2930765.16621
 91  4 17 21 31  0.0000000  0  6G18G 2G16G11G19G 6
  22250537.438     7807308.739 6   6083596.05021
  21877474.6174   -8380047.17647  -6529883.97162
  24019170.4534   -1179191.62445   -850330.75661
  22732338.3364   -1963343.10446  -1529869.86861
  20906599.336      238068.948 7    185506.75322
  23648434.3594   -3862382.85445  -2955312.42061
 91  4 17 21 31 15.0000000  0  6G18G 2G16G11G19G 6
  22259589.297     7854874.502 6   6120660.14321
  21872439.3444   -8406507.95947  -6550502.70062
  24020201.438    -1173776.413 5   -846111.19521
  22734459.0234   -1952199.52846  -1521186.56261
  20908455.258      247812.119 7    193098.81922
  23642439.4304   -3893869.82945  -2979847.63661
 91  4 17 21 31 30.0000000  0  6G18G 2G16G11G19G 6
  22268657.156     7902524.923 6   6157790.20021
  21867420.1024   -8432887.26347  -6571057.93762
  24021254.945    -1168226.289 5   -841786.47921
  22736610.8204   -1940893.40746  -1512376.59961
  20910321.789      257623.970 7    200744.40022
  23636452.4844   -3925345.68345  -3004374.19361
 91  4 17 21 31 45.0000000  0  6G18G 2G16G11G19G 6
  22277740.609     7950260.162 6   6194986.35721
  21862414.8444   -8459184.32347  -6591549.08662
  24022337.0084   -1162540.85345   -837356.35361
  22738793.7344   -1929423.98546  -1503439.38961
  20912202.055      267505.211 7    208444.05022
  23630467.188    -3956809.782 5  -3028891.55521
 91  4 17 21 32  0.0000000  0  6G18G 2G16G11G19G 6
  22286839.914     7998071.518 6   6232241.81921
  21857425.4384   -8485407.73247  -6611982.84162
  24023448.094    -1156728.322 5   -832827.17621
  22741006.3914   -1917799.88346  -1494381.64661
  20914093.227      277447.380 7    216191.17622
  23624478.703    -3988270.630 5  -3053406.39721
 91  4 17 21 32 15.0000000  0  6G18G 2G16G11G19G 6
  22295951.539     8045958.846 6   6269556.48021
  21852448.2194   -8511557.24447  -6632359.02262
  24024576.109    -1150789.044 5   -828199.24821
  22743246.5314   -1906021.09546  -1485203.37961
  20915997.477      287450.769 7    223986.01122
  23618491.422    -4019728.043 5  -3077918.56221
 91  4 17 21 32 30.0000000  0  6G18G 2G16G11G19G 6
  22305079.477     8093923.026 6   6306931.02521
  21847487.3054   -8537632.10047  -6652677.02562
  24025728.406    -1144721.885 5   -823471.66521
  22745518.8134   -1894086.61546  -1475903.79061
  20917914.141      297516.473 7    231829.40122
  23612504.7504   -4051181.14245  -3102427.38461
 91  4 17 21 32 45.0000000  0  6G18G 2G16G11G19G 6
  22314220.453     8141960.996 6   6344363.07521
  21842539.1024   -8563634.56447  -6672938.62962
  24026907.477    -1138529.933 5   -818646.82021
  22747817.2894   -1881999.12446  -1466484.96561
  20919840.461      307641.918 7    239719.33622
  23606522.6254   -4082632.46145  -3126934.79161
 91  4 17 21 33  0.0000000  0  6G18G 2G16G11G19G 6
  22323376.984     8190072.736 6   6381852.60421
  21837604.8674   -8589564.24947  -6693143.51262
  24028108.7274   -1132212.99345   -813724.61861
  22750148.3204   -1869758.35146  -1456946.71361
  20921777.906      317827.611 7    247656.22822
  23600533.7194   -4114081.58545  -3151440.51861
 91  4 17 21 33 15.0000000  0  6G18G 2G16G11G19G 6
  22332544.367     8238254.596 6   6419396.76821
  21832682.6804   -8615424.94047  -6713294.63262
  24029333.820    -1125774.645 5   -808707.79821
  22752505.8284   -1857368.03846  -1447291.91661
  20923727.203      328069.917 7    255637.22922
  23594551.867    -4145532.216 5  -3175947.40821
 91  4 17 21 33 30.0000000  0  6G18G 2G16G11G19G 6
  22341726.672     8286504.693 6   6456994.10921
  21827775.5234   -8641218.43947  -6733393.39562
  24030585.039    -1119216.633 5   -803597.73021
  22754889.2114   -1844829.91246  -1437521.95261
  20925687.680      338367.000 7    263660.91522
  23588567.0474   -4176986.12845  -3200456.84961
 91  4 17 21 33 45.0000000  0  6G18G 2G16G11G19G 6
  22350920.984     8334818.933 6   6494641.42721
  21822878.6954   -8666948.31547  -6753442.58262
  24031853.6954   -1112542.82345   -798397.43161
  22757305.5784   -1832147.81646  -1427639.80561
  20927655.281      348715.466 7    271724.64122
  23582579.867    -4208446.931 5  -3224971.68421
 91  4 17 21 34  0.0000000  0  6G18G 2G16G11G19G 6
  22360128.031     8383200.623 6   6532341.30421
  21817994.9384   -8692610.85547  -6773439.29762
  24033146.3444   -1105749.88145   -793104.31661
  22759745.2974   -1819318.14846  -1417642.67061
  20929636.953      359119.120 7    279831.37122
  23576591.3364   -4239910.98645  -3249489.06061
 91  4 17 21 34 15.0000000  0  6G18G 2G16G11G19G 6
  22369345.609     8431641.114 6   6570086.99821
  21813123.4224   -8718214.30147  -6793389.96962
  24034457.938    -1098846.194 5   -787724.88621
  22762213.4534   -1806349.37846  -1407537.14061
  20931625.070      369569.647 7    287974.62522
  23570602.2424   -4271386.66645  -3274015.46961
 91  4 17 21 34 30.0000000  0  6G18G 2G16G11G19G 6
  22378574.766     8480139.586 6   6607877.87321
  21808262.5084   -8743759.22847  -6813295.04362
  24035792.438    -1091832.383 5   -782259.65721
  22764708.5394   -1793242.09346  -1397323.67461
  20933622.031      380066.601 7    296154.05522
  23564609.1484   -4302874.40145  -3298551.29761
 91  4 17 21 34 45.0000000  0  6G18G 2G16G11G19G 6
  22387815.8284    8528699.92446   6645716.94861
  21803412.7734   -8769241.64147  -6833151.40862
  24037150.430    -1084704.808 5   -776705.77621
  22767230.789    -1779992.358 6  -1386999.21221
  20935628.258      390614.058 7    304372.83522
  23558618.000    -4334370.222 5  -3323093.41221
 91  4 17 21 35  0.0000000  0  6G18G 2G16G11G19G 6
  22397067.8754    8577320.99846   6683603.35461
  21798576.3524   -8794662.44347  -6852959.76462
  24038530.047    -1077464.402 5   -771063.96621
  22769777.1094   -1766601.09746  -1376564.47061
  20937646.250      401211.272 7    312630.39122
  23552620.7814   -4365874.89945  -3347642.42561
 91  4 17 21 35 15.0000000  0  6G18G 2G16G11G19G 6
  22406330.5084    8625998.61646   6721533.81761
  21793749.3054   -8820025.79247  -6872723.34862
  24039929.227    -1070115.323 5   -765337.51821
  22772351.7974   -1753072.49646  -1366022.70661
  20939671.695      411854.276 7    320923.62922
  23546621.211    -4397392.463 5  -3372201.46821
 91  4 17 21 35 30.0000000  0  6G18G 2G16G11G19G 6
  22415605.2974    8674730.95246   6759506.91561
  21788933.7424   -8845332.95147  -6892443.14762
  24041346.078    -1062659.154 5   -759527.55721
  22774951.5554   -1739408.09146  -1355375.12961
  20941706.250      422541.732 6    329251.50722
  23540620.094    -4428924.377 5  -3396771.69521
 91  4 17 21 35 45.0000000  0  6G18G 2G16G11G19G 6
  22424888.7274    8723517.55946   6797522.30561
  21784127.8914   -8870584.13747  -6912119.33062
  24042785.6954   -1055096.04145   -753634.31961
  22777575.9304   -1725608.00846  -1344621.82061
  20943747.7344     433273.56947    337613.96562
  23534621.352    -4460470.724 5  -3421353.16821
 91  4 17 21 36  0.0000000  0  6G18G 2G16G11G19G 6
  22434183.2504    8772360.21446   6835581.37061
  21779333.7734   -8895777.47547  -6931750.43562
  24044244.9144   -1047424.45845   -747656.52061
  22780229.8754   -1711670.66846  -1333761.56761
  20945799.1414     444051.61647    346012.43562
  23528615.3524   -4492029.73945  -3445944.50761
 91  4 17 21 36 15.0000000  0  6G18G 2G16G11G19G 6
  22443489.2814    8821259.03246   6873684.19361
  21774550.4694   -8920912.47347  -6951336.07962
  24045723.617    -1039644.030 5   -741593.91121
  22782908.922    -1697595.616 6  -1322794.00321
  20947857.4614     454876.62247    354447.49762
  23522604.7504   -4523600.92645  -3470545.32861
 91  4 17 21 36 30.0000000  0  6G18G 2G16G11G19G 6
  22452803.8914    8870210.00646   6911827.66161
  21769778.6884   -8945992.67647  -6970879.02962
  24047228.680    -1031758.597 5   -735449.51721
  22785614.2344   -1683386.42046  -1311721.91561
  20949925.1334     465745.02747    362916.37162
  23516594.9304   -4555187.80745  -3495158.37461
 91  4 17 21 36 45.0000000  0  6G18G 2G16G11G19G 6
  22462128.3984    8919213.16946   6950011.79161
  21765015.8914   -8971017.82847  -6990379.08162
  24048747.6094   -1023768.12545   -729223.25661
  22788343.2504   -1669042.98146  -1300545.21861
  20951999.9224     476657.17447    371419.33862
  23510581.508    -4586790.108 5  -3519783.44421
 91  4 17 21 37  0.0000000  0  6G18G 2G16G11G19G 6
  22471463.4694    8968269.76846   6988237.56761
  21760264.1174   -8995986.02547  -7009834.74462
  24050288.367    -1015670.668 5   -722913.60321
  22791097.3834   -1654563.78246  -1289262.72861
  20954089.5394     487614.85447    379957.78362
  23504563.758    -4618406.117 5  -3544419.18921
 91  4 17 21 37 15.0000000  0  6G18G 2G16G11G19G 6
  22480809.9304    9017380.72146   7026505.68461
  21755523.2814   -9020896.71447  -7029245.60462
  24051849.906    -1007466.226 5   -716520.62321
  22793877.7734   -1639948.25746  -1277874.01861
  20956182.0234     498618.88347    388532.34362
  23498547.5474   -4650035.22245  -3569065.14861
 91  4 17 21 37 30.0000000  0  6G18G 2G16G11G19G 6
  22490166.8914    9066545.98646   7064816.13361
  21750794.1024   -9045749.54647  -7048611.37962
  24053429.9224    -999154.14445   -710043.74161
  22796686.4534   -1625195.81346  -1266378.61361
  20958283.9454     509669.74247    397143.39662
  23492524.4384   -4681676.85945  -3593720.89161
 91  4 17 21 37 45.0000000  0  6G18G 2G16G11G19G 6
  22499533.1334    9115766.61546   7103169.71261
  21746075.9454   -9070543.26547  -7067931.09062
  24055031.6414    -990733.41645   -703482.21661
  22799520.953    -1610305.519 6  -1254775.80221
  20960397.8134     520768.68247    405791.91762
  23486502.1334   -4713329.81645  -3618385.43661
 91  4 17 21 38  0.0000000  0  6G18G 2G16G11G19G 6
  22508909.8204    9165041.70846   7141565.73261
  21741369.047    -9095278.168 7  -7087204.97222
  24056658.1024    -982204.60445   -696836.47061
  22802381.2114   -1595277.81946  -1243065.91661
  20962519.9844     531915.46746    414477.71862
  23480475.938    -4744994.547 5  -3643059.16321
 91  4 17 21 38 15.0000000  0  6G18G 2G16G11G19G 6
  22518295.4844    9214371.00746   7180003.99061
  21736673.5864   -9119954.26447  -7106433.03462
  24058297.219     -973567.955 5   -690106.68221
  22805265.469    -1580112.606 6  -1231248.88521
  20964648.8204     543110.28147    423200.94262
  23474447.078    -4776670.810 5  -3667741.87121
 91  4 17 21 38 30.0000000  0  6G18G 2G16G11G19G 6
  22527694.523     9263753.424 6   7218483.63421
  21731988.641    -9144572.510 7  -7125616.00922
  24059966.484     -964824.307 5   -683293.55721
  22808177.586    -1564811.193 6  -1219325.72321
  20966790.4064     554352.23746    431960.90162
  23468419.8524   -4808359.62445  -3692434.36261
 91  4 17 21 38 45.0000000  0  6G18G 2G16G11G19G 6
  22537101.188     9313188.758 6   7257004.51621
  21727316.0314   -9169132.77747  -7144753.81762
  24061649.719     -955974.104 5   -676397.37321
  22811116.039    -1549373.672 6  -1207296.50321
  20968935.7894     565641.42047    440757.65962
  23462385.133    -4840060.994 5  -3717136.62121
 91  4 17 21 39  0.0000000  0  6G18G 2G16G11G19G 6
  22546518.6804    9362677.91946   7295567.33961
  21722652.6334   -9193633.65947  -7163845.34462
  24063351.8364    -947016.05045   -669417.18861
  22814080.094    -1533798.633 6  -1195160.12121
  20971096.0944     576979.52146    449592.53662
  23456352.953    -4871773.388 5  -3741847.48621
 91  4 17 21 39 15.0000000  0  6G18G 2G16G11G19G 6
  22555948.102     9412224.427 6   7334174.84321
  21718002.1644   -9218071.60947  -7182887.83962
  24065077.0634    -937946.71345   -662350.25061
  22817068.766    -1518082.572 6  -1182913.85621
  20973261.2664     588370.12547    458468.32662
  23450316.586    -4903493.169 5  -3766564.10921
 91  4 17 21 39 30.0000000  0  6G18G 2G16G11G19G 6
  22565384.641     9461821.065 6   7372821.41221
  21713362.7584   -9242453.44147  -7201886.60562
  24066825.555     -928773.166 5   -655202.11621
  22820084.977    -1502232.458 6  -1170563.13821
  20975438.8834     599806.37747    467379.67862
  23444277.461    -4935227.194 5  -3791291.80921
 91  4 17 21 39 45.0000000  0  6G18G 2G16G11G19G 6
  22574833.492     9511470.294 6   7411508.95521
  21708734.5704   -9266776.48247  -7220839.56362
  24068591.1564    -919492.88445   -647970.84661
  22823128.781    -1486245.817 6  -1158106.03421
  20977623.1724     611290.95047    476328.68862
  23438234.141    -4966972.955 5  -3816028.66721
 91  4 17 21 40  0.0000000  0  6G18G 2G16G11G19G 6
  22584291.164     9561170.554 6   7450236.27321
  21704117.1094   -9291042.00847  -7239747.69762
  24070374.266     -910107.238 5   -640657.43621
  22826196.266    -1470124.026 6  -1145543.61321
  20979817.5314     622822.63647    485314.41062
  23432190.3984   -4998731.60745  -3840775.54661
 91  4 17 21 40 15.0000000  0  6G18G 2G16G11G19G 6
  22593758.367     9610919.516 6   7489001.53221
  21699509.0234   -9315252.34947  -7258612.83262
  24072181.7584    -900618.94645   -633264.04861
  22829288.883    -1453869.336 6  -1132877.64321
  20982021.2344     634399.40147    494335.26162
  23426144.9384   -5030505.27145  -3865534.13861
 91  4 17 21 40 30.0000000  0  6G18G 2G16G11G19G 6
  22603233.914     9660719.494 6   7527806.54421
  21694913.7274   -9339404.74647  -7277432.81662
  24074006.6094    -891025.08145   -625788.38361
  22832407.2814   -1437479.20646  -1120106.13861
  20984233.297      646024.067 7    503393.42822
  23420094.4144   -5062291.25745  -3890302.32461
 91  4 17 21 40 45.0000000  0  6G18G 2G16G11G19G 6
  22612720.227     9710562.512 6   7566645.09221
  21690326.5704   -9363506.94947  -7296213.69062
  24075854.305     -881333.349 5   -618236.50621
  22835550.789    -1420961.500 6  -1107235.22421
  20986452.2424     657688.90247    512482.90362
  23414044.141    -5094097.255 5  -3915086.10521
 91  4 17 21 41  0.0000000  0  6G18G 2G16G11G19G 6
  22622215.633     9760458.035 6   7605524.54921
  21685751.7734   -9387549.12047  -7314947.78162
  24077717.000     -871534.529 5   -610601.13321
  22838720.0234   -1404306.72146  -1094257.49861
  20988681.1174     669403.77547    521611.36762
  23407987.492    -5125913.513 5  -3939877.90521
 91  4 17 21 41 15.0000000  0  6G18G 2G16G11G19G 6
  22631718.516     9810400.558 6   7644440.63121
  21681185.5554   -9411536.40347  -7333639.10762
  24079600.563     -861633.982 5   -602886.52421
  22841916.320    -1387519.948 6  -1081176.92721
  20990918.6334     681163.73147    530774.95762
  23401928.250    -5157745.087 5  -3964681.61921
 91  4 17 21 41 30.0000000  0  6G18G 2G16G11G19G 6
  22641231.3134    9860394.91046   7683397.10361
  21676633.6484   -9435463.95747  -7352283.89262
  24081501.453     -851627.016 5   -595088.97521
  22845135.234    -1370596.529 6  -1067989.86321
  20993171.5704     692973.81246    539977.61162
  23395872.6024   -5189587.15045  -3989493.52161
 91  4 17 21 41 45.0000000  0  6G18G 2G16G11G19G 6
  22650755.094     9910435.220 6   7722389.37621
  21672090.8134   -9459337.11347  -7370886.28562
  24083431.891     -841519.099 5   -587212.78021
  22848380.117    -1353541.990 6  -1054700.63521
  20995422.633      704828.542 7    549215.05222
  23389810.852    -5221445.073 5  -4014317.77221
 91  4 17 21 42  0.0000000  0  6G18G 2G16G11G19G 6
  22660287.0004    9960524.15646   7761419.54161
  21667559.1254   -9483152.98047  -7389444.03962
  24085373.094     -831307.571 5   -579255.81721
  22851650.969    -1336353.417 6  -1041306.96221
  20997686.4454     716731.10347    558489.76562
  23383744.547    -5253315.872 5  -4039152.05821
 91  4 17 21 42 15.0000000  0  6G18G 2G16G11G19G 6
  22669826.344    10010662.062 6   7800487.87121
  21663037.3284   -9506910.87447  -7407956.61262
  24087338.117     -820991.963 5   -571217.76121
  22854947.148    -1319030.250 6  -1027808.40321
  20999961.4304     728682.08447    567802.20862
  23377676.984    -5285198.839 5  -4063995.82521
 91  4 17 21 42 30.0000000  0  6G18G 2G16G11G19G 6
  22679377.3054   10060847.93346   7839593.57361
  21658527.4304   -9530611.78047  -7426424.78762
  24089318.633     -810573.349 5   -563099.47721
  22858270.820    -1301573.692 6  -1014205.90521
  21002247.6254     740680.69847    577151.76462
  23371605.555    -5317094.931 5  -4088849.81021
 91  4 17 21 42 45.0000000  0  6G18G 2G16G11G19G 6
  22688936.898    10111082.261 6   7878737.03421
  21654028.742    -9554254.695 7  -7444847.76122
  24091319.086     -800050.844 5   -554900.20421
  22861618.219    -1283982.890 6  -1000498.80621
  21004536.445      752728.016 7    586539.27422
  23365538.0474   -5349003.14145  -4113713.25161
 91  4 17 21 43  0.0000000  0  6G18G 2G16G11G19G 6
  22698503.648    10161361.424 6   7917915.43321
  21649539.703    -9577842.890 7  -7463228.10222
  24093345.984     -789427.989 5   -546622.75321
  22864989.375    -1266261.193 6   -986689.71521
  21006838.625      764820.785 7    595962.19822
  23359460.0394   -5380926.64245  -4138588.59461
 91  4 17 21 43 15.0000000  0  6G18G 2G16G11G19G 6
  22708080.000    10211687.997 6   7957130.77721
  21645061.508    -9601373.589 7  -7481563.63922
  24095383.523     -778702.350 5   -538265.21221
  22868388.594    -1248405.966 6   -972776.56121
  21009148.1564     776962.01247    605422.88362
  23353384.6024   -5412862.64545  -4163473.69361
 91  4 17 21 43 30.0000000  0  6G18G 2G16G11G19G 6
  22717667.430    10262062.543 6   7996383.49321
  21640595.4614   -9624846.17847  -7499853.89662
  24097440.6954    -767873.56445   -529827.25661
  22871811.031    -1230416.709 6   -958758.98421
  21011468.789      789152.556 7    614921.99522
  23347300.469    -5444810.507 5  -4188368.02121
 91  4 17 21 43 45.0000000  0  6G18G 2G16G11G19G 6
  22727262.039    10312483.865 6   8035672.66421
  21636139.000    -9648261.348 7  -7518099.41322
  24099524.9844    -756942.52345   -521309.67361
  22875258.203    -1212294.484 6   -944637.78121
  21013797.4844     801391.44447    624458.77562
  23341222.7424   -5476770.99545  -4213272.18361
 91  4 17 21 44  0.0000000  0  6G18G 2G16G11G19G 6
  22736866.5634   10362954.20146   8075000.02161
  21631695.891    -9671616.450 7  -7536298.12322
  24101624.289     -745906.626 5   -512710.36021
  22878733.477    -1194036.680 6   -930410.94221
  21016137.7894     813681.50447    634035.43662
  23335136.1954   -5508741.49945  -4238184.17461
 91  4 17 21 44 15.0000000  0  6G18G 2G16G11G19G 6
  22746480.5634   10413468.26746   8114361.45461
  21627260.9534   -9694916.80147  -7554454.16962
  24103742.805     -734771.211 5   -504033.49421
  22882232.133    -1175648.599 6   -916082.58521
  21018483.578      826017.597 7    643647.96222
  23329053.055    -5540727.032 5  -4263107.85721
 91  4 17 21 44 30.0000000  0  6G18G 2G16G11G19G 6
  22756101.6174   10464028.85146   8153759.13561
  21622837.6484   -9718159.44947  -7572565.25862
  24105882.766     -723533.411 5   -495276.88121
  22885757.125    -1157127.462 6   -901650.54721
  21020841.2114     838402.67747    653298.66162
  23322962.102    -5572724.714 5  -4288041.00121
 91  4 17 21 44 45.0000000  0  6G18G 2G16G11G19G 6
  22765731.4534   10514637.65846   8193194.39461
  21618426.3754   -9741342.14247  -7590629.62562
  24108042.148     -712191.332 5   -486438.98821
  22889307.3674   -1138471.32846   -887113.31461
  21023208.414      850839.268 7    662989.49822
  23316873.2344   -5604732.23745  -4312981.83561
 91  4 17 21 45  0.0000000  0  6G18G 2G16G11G19G 6
  22775373.4224   10565298.81846   8232670.44361
  21614026.6644   -9764460.49747  -7608643.85862
  24110215.3984    -700740.82444   -477516.57261
  22892883.828    -1119675.765 6   -872467.43621
  21025586.250      863331.835 7    672723.95222
  23310778.4614   -5636745.14945  -4337926.85661
 91  4 17 21 45 15.0000000  0  6G18G 2G16G11G19G 6
  22785021.3134   10616007.26046   8272183.34061
  21609638.9304   -9787519.40447  -7626611.77162
  24112417.563     -689186.939 5   -468513.65621
  22896486.844    -1100745.763 6   -857716.80821
  21027970.688      875875.396 7    682498.14222
  23304688.242    -5668768.338 5  -4362879.88521
 91  4 17 21 45 30.0000000  0  6G18G 2G16G11G19G 6
  22794679.4454   10666758.93946   8311729.92161
  21605261.2894   -9810522.51247  -7644536.19862
  24114635.2734    -677533.48145   -459433.13061
  22900114.0234   -1081685.24546   -842864.46761
  21030367.445      888466.382 7    692309.28422
  23298588.8674   -5700805.36345  -4387843.70761
 91  4 17 21 45 45.0000000  0  6G18G 2G16G11G19G 6
  22804346.773    10717557.366 6   8351312.93921
  21600894.6724   -9833466.20047  -7662414.33062
  24116872.695     -665777.245 5   -450272.51921
  22903766.1334   -1062490.69446   -827907.68461
  21032772.406      901108.745 7    702160.46022
  23292492.070    -5732852.567 5  -4412815.44921
 91  4 17 21 46  0.0000000  0  6G18G 2G16G11G19G 6
  22814023.8914   10768402.81246   8390932.58961
  21596540.0314   -9856349.90747  -7680245.72162
  24119127.250     -653917.928 4   -441031.59821
  22907442.8594   -1043161.61346   -812846.07161
  21035189.852      913803.038 7    712052.10122
  23286391.7974   -5764909.41445  -4437794.71061
 91  4 17 21 46 15.0000000  0  6G18G 2G16G11G19G 6
  22823706.1954   10819292.51146   8430586.72561
  21592196.7894   -9879176.14947  -7698032.33962
  24121403.367     -641957.919 5   -431712.21521
  22911148.1954   -1023700.66646   -797681.71061
  21037613.719      926546.862 7    721982.33622
  23280288.773    -5796978.273 5  -4462783.31521
 91  4 17 21 46 30.0000000  0  6G18G 2G16G11G19G 6
  22833398.828    10870225.136 6   8470274.30221
  21587863.4384   -9901945.94947  -7715774.97662
  24123704.133     -629898.709 5   -422315.53721
  22914874.578    -1004109.102 6   -782415.57221
  21040050.766      939339.325 6    731950.47022
  23274183.969    -5829060.203 5  -4487782.11921
 91  4 17 21 46 45.0000000  0  6G18G 2G16G11G19G 6
  22843100.2974   10921205.73146   8509999.26761
  21583542.7114   -9924653.81547  -7733469.35162
  24126018.242     -617734.926 5   -412837.36921
  22918629.5164    -984381.63546   -767043.52561
  21042492.336      952185.861 7    741960.73922
  23268077.070    -5861149.822 5  -4512786.89421
 91  4 17 21 47  0.0000000  0  6G18G 2G16G11G19G 6
  22852812.4384   10972232.95646   8549760.55561
  21579231.8524   -9947301.04647  -7751116.48362
  24128348.2194    -605467.92244   -403278.74761
  22922408.5554    -964519.60946   -751566.63761
  21044946.867      965085.328 7    752012.25622
  23261968.188    -5893248.134 6  -4537798.47121
 91  4 17 21 47 15.0000000  0  6G18G 2G16G11G19G 6
  22862528.602    11023302.089 6   8589554.50621
  21574934.4694   -9969891.87947  -7768719.66162
  24130704.781     -593102.386 4   -393643.37121
  22926215.8524    -944527.54046   -735988.41261
  21047410.883      978033.470 7    762101.70122
  23255857.297    -5925359.544 5  -4562820.24521
 91  4 17 21 47 30.0000000  0  6G18G 2G16G11G19G 6
  22872256.6884   11074416.14146   8629383.45161
  21570645.8204   -9992423.19347  -7786276.47562
  24133075.172     -580635.045 4   -383928.66521
  22930041.523     -924402.379 6   -720306.48221
  21049885.734      991033.564 6    772231.62222
  23249745.953    -5957480.712 6  -4587849.63121
 91  4 17 21 47 45.0000000  0  6G18G 2G16G11G19G 6
  22881991.8914   11125578.59246   8669250.11761
  21566370.9614  -10014891.15847  -7803783.91462
  24135466.6724    -568062.23044   -374131.74561
  22933899.664     -904140.439 6   -704517.96921
  21052370.648     1004089.694 6    782405.21022
  23243631.922    -5989607.711 6  -4612883.54921
 91  4 17 21 48  0.0000000  0  6G18G 2G16G11G19G 6
  22891734.8834   11176785.79446   8709151.64461
  21562106.5554  -10037299.30147  -7821244.74962
  24137876.5394    -555387.96944   -364255.80261
  22937780.0314    -883745.33646   -688625.69661
  21054866.078     1017198.538 6    792619.87622
  23237516.641    -6021744.145 6  -4637924.82321
 91  4 17 21 48 15.0000000  0  6G18G 2G16G11G19G 6
  22901488.4534   11228035.46346   8749086.26861
  21557853.008   -10059649.568 7  -7838660.48622
  24140312.4454    -542614.36144   -354302.42761
  22941687.008     -863219.240 6   -672631.34621
  21057367.938     1030358.191 6    802874.13022
  23231398.0004   -6053891.77846  -4662974.83461
 91  4 17 21 48 30.0000000  0  6G18G 2G16G11G19G 6
  22911251.789    11279334.558 6   8789059.39921
  21553612.320   -10081934.429 7  -7856025.25922
  24142763.266     -529734.073 4   -344265.96121
  22945618.5474    -842554.94246   -656529.31161
  21059884.844     1043575.970 6    813173.67722
  23225282.977    -6086043.355 6  -4688027.88721
 91  4 17 21 48 45.0000000  0  6G18G 2G16G11G19G 6
  22921022.750    11330679.561 6   8829068.30121
  21549383.867   -10104157.700 7  -7873342.04322
  24145230.977     -516751.016 4   -334149.34421
  22949576.6094    -821756.13746   -640322.45961
  21062410.805     1056848.434 6    823515.83322
  23219159.406    -6118202.186 5  -4713086.61621
 91  4 17 21 49  0.0000000  0  6G18G 2G16G11G19G 6
  22930802.1334   11382071.06646   8869113.45061
  21545166.5944  -10126318.02247  -7890609.77062
  24147723.555     -503664.493 4   -323952.17921
  22953560.422     -800821.931 6   -624010.10421
  21064945.414     1070176.750 6    833901.51222
  23213042.4774   -6150367.14346  -4738150.11761
 91  4 17 21 49 15.0000000  0  6G18G 2G16G11G19G 6
  22940588.2274   11433507.57446   8909193.65661
  21540961.1954  -10148416.85547  -7907829.57662
  24150234.1884    -490475.95044   -313675.49261
  22957569.8284    -779753.68146   -607593.29761
  21067494.000     1083559.924 7    844329.93422
  23206916.4064   -6182539.51745  -4763219.40661
 91  4 17 21 49 30.0000000  0  6G18G 2G16G11G19G 6
  22950388.844    11484990.689 6   8949310.18221
  21536768.0474  -10170452.21847  -7924999.92062
  24152764.328     -477183.361 5   -303317.75321
  22961604.2664    -758549.67746   -591070.71461
  21070051.578     1096999.847 6    854802.57922
  23200792.6644   -6214717.42045  -4788293.00661
 91  4 17 21 49 45.0000000  0  6G18G 2G16G11G19G 6
  22960192.000    11536520.387 6   8989462.99621
  21532588.0004  -10192423.83047  -7942120.59362
  24155312.953     -463786.721 5
  22965664.6564    -737209.86346   -574442.29961
  21072618.188     1110496.808 6
  23194665.742    -6246900.463 5  -4813370.59621
 91  4 17 21 50  0.0000000  0  6G18G 2G16G11G19G 6
  22970007.461    11588089.101 6   9029646.22421
  21528416.1884  -10214339.19047  -7959197.44262
  24157880.1024    -450293.68144
  22969750.2814    -715741.83546   -557713.98061
  21075197.445     1124043.514 6
  23188540.711    -6279096.065 6  -4838457.97121
 91  4 17 21 50 15.0000000  0  6G18G 2G16G11G19G 6
  22979827.656    11639702.393 6   9069864.18121
  21524257.8914  -10236192.34447  -7976225.81062
  24160467.375     -436698.587 4
  22973860.4384    -694139.78346   -540881.21761
  21077783.914     1137646.008 6
  23182414.180    -6311298.139 6  -4863550.39521
 91  4 17 21 50 30.0000000  0  6G18G 2G16G11G19G 6
  22989659.516    11691363.045 6   9110119.04321
  21520112.5554  -10257980.21547  -7993203.30962
  24163075.1884    -422998.68844
  22977998.2034    -672400.72546   -523941.70161
  21080387.039     1151307.432 6
  23176285.7734   -6343503.59146  -4888645.46061
 91  4 17 21 50 45.0000000  0  6G18G 2G16G11G19G 6
  22999500.141    11743072.273 6   9150411.74721
  21515979.4924  -10279701.30447  -8010128.76962
  24165702.3054    -409192.79244   -250338.09261
  22982161.141     -650523.446 6   -506894.48421
  21082996.914     1165029.344 6    907812.47922
  23170157.336    -6375710.893 6  -4913741.95521
 91  4 17 21 51  0.0000000  0  6G18G 2G16G11G19G 6
  23009346.563    11794828.597 6   9190741.15021
  21511857.2894  -10301356.92547  -8027003.21062
  24168344.398     -395282.137 4   -239498.74021
  22986351.2974    -628509.48346   -489740.75761
  21085619.719     1178810.568 6    918551.08022
  23164028.4924   -6407921.35146  -4938840.91561
 91  4 17 21 51 15.0000000  0  6G18G 2G16G11G19G 6
  23019205.406    11846629.086 6   9231104.97021
  21507748.7894  -10322949.69247  -8043828.68262
  24171009.2504    -381269.44343   -228579.84561
  22990566.383     -606361.501 6   -472482.60621
  21088251.656     1192648.594 6    929333.93622
  23157895.4774   -6440137.39346  -4963944.22861
 91  4 17 21 51 30.0000000  0  6G18G 2G16G11G19G 6
  23029071.188    11898477.800 6   9271506.37221
  21503652.8284  -10344475.16947  -8060601.72362
  24173701.875     -367150.576 4   -217578.26121
  22994804.8054    -584075.27646   -455116.72861
  21090900.492     1206548.004 6    940164.62922
  23151765.7114   -6472354.64946  -4989048.49061
 91  4 17 21 51 45.0000000  0  6G18G 2G16G11G19G 6
  23038946.7504   11950371.58646   9311942.88761
  21499568.2664  -10365936.34547  -8077324.64962
  24176405.617     -352928.974 4   -206496.59321
  22999073.156     -561654.026 6   -437645.63921
  21093551.672     1220505.829 6    951040.84122
  23145633.9694   -6504575.97045  -5014155.91961
 91  4 17 21 52  0.0000000  0  6G18G 2G16G11G19G 6
  23048831.016    12002312.830 6   9352416.38321
  21495498.219   -10387330.422 7  -8093995.28522
  24179135.305     -338601.982 4   -195332.81321
  23003365.148     -539095.111 6   -420067.28321
  21096221.563     1234524.951 6    961964.81422
  23139504.1884   -6536798.45946  -5039264.25761
 91  4 17 21 52 15.0000000  0  6G18G 2G16G11G19G 6
  23058724.078    12054298.527 6   9392924.52221
  21491437.9454  -10408660.10447  -8110615.74862
  24181882.047     -324172.487 4   -184089.20621
  23007684.828     -516401.404 6   -402383.89321
  21098898.836     1248602.926 6    972934.65122
  23133370.453    -6569024.822 5  -5064375.60321
 91  4 17 21 52 30.0000000  0  6G18G 2G16G11G19G 6
  23068624.836    12106330.035 6   9433468.35521
  21487391.883   -10429923.926 7  -8127184.88922
  24184643.3834    -309639.45843   -172764.81761
  23012028.734     -493571.654 6   -384594.49121
  21101591.070     1262741.229 6    983951.49822
  23127237.2034   -6601253.52145  -5089488.78461
 91  4 17 21 52 45.0000000  0  6G18G 2G16G11G19G 6
  23078535.320    12158406.487 6   9474047.21121
  21483358.5394  -10451122.64747  -8143703.30962
  24187430.484     -295003.503 4   -161360.29421
  23016398.008     -470606.601 6   -366699.66921
  21104291.914     1276939.444 6    995015.02322
  23121102.531    -6633485.112 5  -5114604.20221
 91  4 17 21 53  0.0000000  0  5G18G 2G11G19G 6
  23088452.594    12210527.621 6   9514660.88321
  21479336.5084  -10472255.97347  -8160170.77262
  23020793.117     -447506.416 6   -348699.54721
  21107005.695     1291197.558 6   1006125.22822
  23114969.8444   -6665719.46145  -5139721.78561
 91  4 17 21 53 15.0000000  0  5G18G 2G11G19G 6
  23098380.5944   12262694.45846   9555310.17461
  21475327.156   -10493322.830 7  -8176586.43122
  23025217.266     -424270.023 6   -330593.28721
  21109729.445     1305516.786 6   1017283.05322
  23108836.8284   -6697955.35745  -5164840.56861
 91  4 17 21 53 30.0000000  0  5G18G 2G11G19G 6
  23108317.422    12314907.080 6   9595995.13521
  21471330.9844  -10514322.86547  -8192950.03062
  23029664.8674    -400897.09246   -312380.62661
  21112466.6024    1319897.86746   1028489.07762
  23102700.1564   -6730192.20245  -5189960.08861
 91  4 17 21 53 45.0000000  0  5G18G 2G11G19G 6
  23118261.656    12367166.050 6   9636716.20521
  21467348.3054  -10535255.03947  -8209260.75063
  23034137.070     -377386.850 6   -294060.96821
  21115216.148     1334342.002 6   1039744.23222
  23096565.7814   -6762428.90845  -5215079.50161
 91  4 17 21 54  0.0000000  0  5G18G 2G11G19G 6
  23128211.766    12419462.030 6   9677466.12021
  21463376.2734  -10556128.62247  -8225525.81762
  23038635.898     -353748.763 6   -275641.69321
  21117978.688     1348839.913 6   1051041.29022
  23090430.172    -6794674.676 5  -5240205.97421
 91  4 17 21 54 15.0000000  0  5G18G 2G11G19G 6
  23138174.453    12471801.772 6   9718250.12921
  21459415.3834  -10576936.49747  -8241739.68362
  23043159.320     -329975.974 6   -257117.47021
  21120744.539     1363398.622 6   1062385.72422
  23084295.6804   -6826922.40246  -5265333.96961
 91  4 17 21 54 30.0000000  0  5G18G 2G11G19G 6
  23148142.594    12524184.803 6   9759067.88021
  21455468.8754  -10597678.85347  -8257902.49462
  23047709.820     -306068.857 6   -238488.56721
  21123527.4534    1378018.15646   1073777.56162
  23078159.945    -6859172.349 6  -5290463.68821
 91  4 17 21 54 45.0000000  0  5G18G 2G11G19G 6
  23158116.766    12576606.413 6   9799915.69021
  21451533.8834  -10618360.22847  -8274017.78162
  23052283.297     -282032.100 6   -219758.64621
  21126318.781     1392694.121 6   1085213.36222
  23072022.3364   -6891428.76546  -5315598.45661
 91  4 17 21 55  0.0000000  0  5G18G 2G11G19G 6
  23168101.828    12629070.228 6   9840796.38221
  21447609.6644  -10638976.57247  -8290082.40363
  23056882.0554    -257861.98446   -200924.82061
  21129126.9454    1407430.61146   1096696.33062
  23065879.805    -6923687.671 6  -5340735.16121
 91  4 17 21 55 15.0000000  0  5G18G 2G11G19G 6
  23178092.898    12681573.267 6   9881707.63721
  21443699.9534  -10659530.87747  -8306098.68262
  23061505.578     -233561.525 6   -181989.41721
  21131939.070     1422224.930 6   1108224.35822
  23059739.133    -6955951.768 6  -5365875.90921
 91  4 17 21 55 30.0000000  0  5G18G 2G11G19G 6
  23188092.492    12734117.998 6   9922651.37821
  21439799.5394  -10680020.32047  -8322064.41363
  23066156.813     -209128.105 6   -162950.41621
  21134765.734     1437079.913 6   1119799.65422
  23053598.6954   -6988218.23346  -5391018.50961
 91  4 17 21 55 45.0000000  0  5G18G 2G11G19G 6
  23198099.789    12786705.958 6   9963628.80421
  21435913.5084  -10700442.92547  -8337978.06562
  23070831.4534    -184559.96346   -143806.43461
  21137603.9304    1451997.53146   1131423.75762
  23047461.156    -7020485.086 6  -5416161.40721
 91  4 17 21 56  0.0000000  0  5G18G 2G11G19G 6
  23208112.5784   12839331.66046  10004635.64361
  21432038.8204  -10720804.00047  -8353843.76663
  23075532.359     -159862.684 6   -124561.82221
  21140454.766     1466972.498 6   1143092.54322
  23041317.219    -7052757.650 6  -5441308.75021
 91  4 17 21 56 15.0000000  0  5G18G 2G11G19G 6
  23218134.7034   12891995.38646  10045672.10061
  21428175.3594  -10741102.84247  -8369660.98363
  23080255.227     -135035.750 6   -105216.18221
  21143314.844     1482005.665 6   1154806.68322
  23035175.914    -7085035.066 6  -5466459.88121
 91  4 17 21 56 30.0000000  0  5G18G 2G11G19G 6
  23228166.1884   12944697.15146  10086738.20261
  21424324.9144  -10761339.35247  -8385429.62362
  23085003.969     -110079.155 6    -85769.50321
  21146187.047     1497097.262 6   1166566.35422
  23029032.1414   -7117317.12446  -5491614.61661
 91  4 17 21 56 45.0000000  0  5G18G 2G11G19G 6
  23238200.2664   12997440.03446  10127836.34661
  21420486.7194  -10781510.06447  -8401146.99762
  23089778.703      -84989.567 6    -66219.20221
  21149069.977     1512250.895 6   1178374.37222
  23022889.930    -7149600.136 6  -5516770.09921
 91  4 17 21 57  0.0000000  0  5G18G 2G11G19G 6
  23248246.336    13050222.678 6  10168965.46921
  21416660.2664  -10801616.16047  -8416814.02762
  23094578.3834     -59768.36546    -46566.34561
  21151967.664     1527465.488 6   1190229.88422
  23016744.5554   -7181885.32246  -5541927.29761
 91  4 17 21 57 15.0000000  0  5G18G 2G11G19G 6
  23258297.914    13103048.347 6  10210128.11821
  21412847.5474  -10821654.27147  -8432428.07862
  23099402.8984     -34412.34246    -26808.43461
  21154872.3444    1542744.57246   1202135.65262
  23010602.688    -7214169.200 6  -5567083.46221
 91  4 17 21 57 30.0000000  0  5G18G 2G11G19G 6
  23268359.3284   13155913.83946  10251321.79461
  21409047.0944  -10841627.09547  -8447991.25763
  23104253.3364      -8924.58646     -6947.88061
  21157794.125     1558085.512 6   1214089.61522
  23004455.7974   -7246454.37446  -5592240.64161
 91  4 17 21 57 45.0000000  0  5G18G 2G11G19G 6
  23278424.508    13208815.813 5  10292543.88621
  21405258.2894  -10861537.84747  -8463506.06562
  23109128.2664      16691.77246     13012.88461
  21160723.594     1573485.445 6   1226089.54822
  22998314.156    -7278743.903 6  -5617401.21721
 91  4 17 21 58  0.0000000  0  5G18G 2G11G19G 6
  23288499.2114   13261755.26746  10333795.18361
  21401480.9144  -10881385.23547  -8478971.49763
  23114028.1174      42437.66846     33074.59161
  21163666.070     1588945.468 6   1238136.30522
  22992167.227    -7311036.560 6  -5642564.21921
 91  4 17 21 58 15.0000000  0  5G18G 2G11G19G 6
  23298579.0554   13314732.61745  10375076.03861
  21397716.8204  -10901168.44747  -8494386.91962
  23118952.4614      68313.61646     53237.63661
  21166618.250     1604466.333 6   1250230.47322
  22986023.9454   -7343331.48746  -5667729.00261
 91  4 17 21 58 30.0000000  0  5G18G 2G11G19G 6
  23308669.4144   13367748.72945  10416387.07461
  21393963.8364  -10920886.55847  -8509751.61563
  23123900.180       94320.420 6     73502.65121
  21169585.000     1620049.349 6   1262373.06822
  22979877.4924   -7375627.54746  -5692894.67861
 91  4 17 21 58 45.0000000  0  5G18G 2G11G19G 6
  23318764.703    13420801.978 5  10457727.03921
  21390223.758   -10940540.680 7  -8525066.43623
  23128874.3914     120456.83046     93868.65561
  21172561.922     1635693.346 6   1274563.17922
  22973732.227    -7407925.864 6  -5718062.08321
 91  4 17 21 59  0.0000000  0  5G18G 2G11G19G 6
  23328867.2114   13473888.77046  10499093.15061
  21386495.133   -10960134.362 7  -8540334.16322
  23133872.2584     146719.10546    114332.73361
  21175550.516     1651395.001 6   1286798.21422
  22967582.141    -7440229.774 6  -5743233.87221
 91  4 17 21 59 15.0000000  0  5G18G 2G11G19G 6
  23338976.7894   13527013.80546  10540489.07461
  21382778.3204  -10979662.54347  -8555550.85963
  23138894.9144     173112.07246    134898.65261
  21178549.016     1667159.529 6   1299082.24422
  22961437.141    -7472534.132 6  -5768405.98121
 91  4 17 21 59 30.0000000  0  5G18G 2G11G19G 6
  23349093.6094   13580176.22246  10581914.11861
  21379075.328   -10999125.950 7  -8570717.07423
  23143942.672      199634.854 6    155565.73321
  21181561.320     1682986.363 6   1311414.82822
  22955286.5634   -7504839.51546  -5793578.90861
 91  4 17 21 59 45.0000000  0  5G18G 2G11G19G 6
  23359219.7734   13633376.60046  10623368.73961
  21375383.031   -11018523.546 7  -8585832.01023
  23149013.4384     226288.37946    176334.69061
  21184584.133     1698876.678 6   1323796.87822
  22949141.789    -7537144.788 6  -5818751.75221
 91  4 17 22  0  0.0000000  0  5G18G 2G11G19G 6
  23369347.8364   13686614.09446  10664852.28961
  21371705.2344  -11037855.79747  -8600896.03663
  23154109.9694     253071.70746    197204.78861
  21187619.828     1714829.798 6   1336227.86122
  22942994.008    -7569450.454 6  -5843924.88521
 91  4 17 22  0 15.0000000  0  5G18G 2G11G19G 6
  23379485.555    13739886.867 6  10706363.31621
  21368037.8834  -11057124.20647  -8615910.31563
  23159231.7424     279983.04646    218174.63461
  21190666.9534    1730844.19046   1348706.59362
  22936843.672    -7601758.097 6  -5869099.57521
 91  4 17 22  0 30.0000000  0  5G18G 2G11G19G 6
  23389632.9144   13793196.09446  10747902.75461
  21364383.9454  -11076327.86147  -8630874.14463
  23164377.0234     307023.21746    239244.86761
  21193728.555     1746921.084 6   1361234.02922
  22930697.031    -7634066.422 6  -5894274.78521
 91  4 17 22  0 45.0000000  0  5G18G 2G11G19G 6
  23399780.1954   13846538.76746  10789468.25361
  21360741.875   -11095469.419 7  -8645789.58323
  23169547.0554     334189.56146    260413.41761
  21196797.445     1763058.199 6   1373808.38422
  22924548.703    -7666377.895 6  -5919452.45021
 91  4 17 22  1  0.0000000  0  5G18G 2G11G19G 6
  23409941.227    13899919.930 6  10831063.74221
  21357111.4774  -11114543.63547  -8660652.55162
  23174741.469      361487.171 6    281684.25421
  21199881.516     1779261.047 6   1386433.96422
  22918397.688    -7698687.231 6  -5944628.45121
 91  4 17 22  1 15.0000000  0  5G18G 2G11G19G 6
  23420101.172    13953332.525 5  10872683.71821
  21353492.9144  -11133556.93947  -8675468.05362
  23179960.016      388909.182 6    303052.02421
  21202975.453     1795523.005 6   1399105.60722
  22912252.0784   -7731000.96046  -5969807.88361
 91  4 17 22  1 30.0000000  0  5G18G 2G11G19G 6
  23430273.938    14006776.435 6  10914328.09721
  21349886.6564  -11152509.23447  -8690236.01262
  23185201.7344     416455.55946    324516.70361
  21206081.320     1811844.243 6   1411823.43922
  22906099.7194   -7763318.72046  -5994990.45561
 91  4 17 22  1 45.0000000  0  5G18G 2G11G19G 6
  23440452.469    14060253.644 6  10955998.41521
  21346292.8284  -11171398.57147  -8704954.91363
  23190468.9924     444128.17646    346079.74761
  21209197.047     1828226.895 6   1424589.12922
  22899950.1254   -7795638.42746  -6020174.53861
 91  4 17 22  2  0.0000000  0  5G18G 2G11G19G 6
  23450633.234    14113766.739 5  10997696.70421
  21342710.1724  -11190221.91047  -8719622.39563
  23195757.6024     471929.71446    367743.24361
  21212329.891     1844674.068 6   1437405.09222
  22893801.2814   -7827956.97146  -6045357.72061
 91  4 17 22  2 15.0000000  0  5G18G 2G11G19G 6
  23460823.1484   14167314.39945  11039421.92861
  21339140.102   -11208980.491 7  -8734239.41722
  23201072.5234     499858.71746    389506.07761
  21215468.688     1861184.614 6   1450270.43922
  22887652.703    -7860275.548 6  -6070540.92521
 91  4 17 22  2 30.0000000  0  5G18G 2G11G19G 6
  23471022.3984   14220894.20245  11081172.20861
  21335582.875   -11227676.360 7  -8748807.57122
  23206411.5704     527913.02246    411366.54561
  21218625.250     1877756.736 6   1463183.76822
  22881502.1564   -7892595.99646  -6095725.59161
 91  4 17 22  2 45.0000000  0  5G18G 2G11G19G 6
  23481223.008    14274504.298 5  11122946.07721
  21332036.141   -11246310.917 7  -8763327.95022
  23211773.2194     556090.93146    433323.32561
  21221787.8754    1894389.04646   1476144.00562
  22875348.625    -7924919.718 6  -6120912.80821
 91  4 17 22  3  0.0000000  0  5G18G 2G11G19G 6
  23491427.758    14328147.394 5  11164745.66221
  21328503.4844  -11264881.30547  -8777798.32462
  23217159.375      584395.120 6    455378.51021
  21224968.805     1911084.365 6   1489153.32822
  22869198.0394   -7957243.74046  -6146100.26161
 91  4 17 22  3 15.0000000  0  5G18G 2G11G19G 6
  23501646.133    14381824.703 5  11206571.91521
  21324981.891   -11283385.868 7  -8792217.41022
  23222569.1564     612826.82446    477533.04661
  21228154.414     1927844.388 6   1502213.07222
  22863048.078    -7989566.325 6  -6171286.57821
 91  4 17 22  3 30.0000000  0  5G18G 2G11G19G 6
  23511866.1334   14435530.39145  11248420.27261
  21321471.1724  -11301830.36747  -8806589.69062
  23228001.773      641380.204 6    499782.41321
  21231359.539     1944663.550 6   1515318.89822
  22856894.9064   -8021893.14046  -6196476.20661
 91  4 17 22  3 45.0000000  0  5G18G 2G11G19G 6
  23522090.2584   14489264.29345  11290290.59961
  21317972.602   -11320214.676 7  -8820915.07122
  23233461.7034     670055.15046    522126.49661
  21234568.641     1961542.210 6   1528471.08222
  22850739.336    -8054223.887 6  -6221668.89421
 91  4 17 22  4  0.0000000  0  5G18G 2G11G19G 6
  23532321.2894   14543030.45745  11332186.08761
  21314486.9774  -11338534.56647  -8835190.25262
  23238941.1024     698855.68146    544568.43261
  21237795.7504    1978484.61346   1541672.94662
  22844590.586    -8086554.241 6  -6246861.28121
 91  4 17 22  4 15.0000000  0  5G18G 2G11G19G 6
  23542561.1174   14596826.22245  11374104.62261
  21311012.992   -11356792.433 7  -8849417.10722
  23244444.1644     727779.20046    567106.20661
  21241026.133     1995488.524 6   1554922.73722
  22838438.2274   -8118886.48246  -6272055.13361
 91  4 17 22  4 30.0000000  0  5G18G 2G11G19G 6
  23552801.9614   14650648.86845  11416044.12161
  21307549.633   -11374990.911 7  -8863597.68522
  23249971.4064     756822.91346    589737.63461
  21244275.336     2012551.371 6   1568218.44822
  22832286.0314   -8151223.15246  -6297252.44361
 91  4 17 22  4 45.0000000  0  5G18G 2G11G19G 6
  23563049.1254   14704502.01545  11458007.37061
  21304099.398   -11393125.941 7  -8877728.82422
  23255521.0944     785990.76746    612465.80461
  21247532.648     2029677.358 6   1581563.36422
  22826132.8444   -8183559.91346  -6322449.82561
 91  4 17 22  5  0.0000000  0  5G18G 2G11G19G 6
  23573301.3674   14758382.08445  11499991.61261
  21300659.016   -11411200.990 7  -8891813.22822
  23261095.4144     815278.97646    635287.75361
  21250806.195     2046863.170 6   1594954.89122
  22819977.1414   -8215900.14846  -6347649.91761
 91  4 17 22  5 15.0000000  0  5G18G 2G11G19G 6
  23583560.125    14812285.594 5  11541994.11221
  21297229.695   -11429219.082 7  -8905853.25022
  23266691.430      844684.248 6    658200.92821
  21254083.898     2064105.913 6   1608390.78223
  22813819.0084   -8248246.88946  -6372855.07861
 91  4 17 22  5 30.0000000  0  5G18G 2G11G19G 6
  23593823.6094   14866215.38445  11584017.08961
  21293812.602   -11447176.898 7  -8919846.30622
  23272308.6804     874209.75746    681207.78461
  21257377.281     2081408.952 6   1621873.65122
  22807667.1414   -8280596.70646  -6398062.63761
 91  4 17 22  5 45.0000000  0  5G18G 2G11G19G 6
  23604091.063    14920170.874 5  11626060.09921
  21290406.070   -11465075.060 7  -8933792.87422
  23277950.5784     903854.73146    704307.73961
  21260680.9844    2098771.82546   1635403.15563
  22801509.3204   -8312950.09346  -6423272.96461
 91  4 17 22  6  0.0000000  0  5G18G 2G11G19G 6
  23614362.820    14974149.989 5  11668121.52621
  21287011.367   -11482915.404 7  -8947694.38822
  23283614.164      933617.108 6    727499.17521
  21263996.852     2116192.638 6   1648977.80123
  22795350.2034   -8345308.70446  -6448487.37661
 91  4 17 22  6 15.0000000  0  5G18G 2G11G19G 6
  23624640.227    15028156.125 5  11710204.00921
  21283628.133   -11500694.095 7  -8961547.86123
  23289300.664      963500.201 6    750784.66821
  21267323.352     2133675.532 6   1662600.81823
  22789192.3134   -8377668.72846  -6473702.88161
 91  4 17 22  6 30.0000000  0  5G18G 2G11G19G 6
  23634922.4064   15082187.24445  11752305.94561
  21280256.7584  -11518413.22147  -8975354.91662
  23295008.9304     993501.87646    774162.56961
  21270665.867     2151218.495 6   1676270.64523
  22783033.7664   -8410031.90346  -6498920.85161
 91  4 17 22  6 45.0000000  0  5G18G 2G11G19G 6
  23645207.969    15136243.093 5  11794427.14721
  21276896.289   -11536072.782 7  -8989115.55923
  23300741.7814    1023621.94746    797632.72161
  21274011.063     2168821.742 6   1689987.44922
  22776875.0314   -8442398.19246  -6524141.24261
 91  4 17 22  7  0.0000000  0  5G18G 2G11G19G 6
  23655500.602    15190326.339 5  11836569.71721
  21273547.8524  -11553669.56047  -9002827.27862
  23306496.1564    1053863.31346    821197.39961
  21277375.023     2186488.255 6   1703753.55322
  22770715.3444   -8474764.38246  -6549361.54961
 91  4 17 22  7 15.0000000  0  5G18G 2G11G19G 6
  23665794.547    15244431.493 5  11878729.34021
  21270209.4614  -11571208.97247  -9016494.29463
  23312272.9774    1084220.61646    844852.40661
  21280745.695     2204213.041 6   1717565.06023
  22764554.1884   -8507135.44346  -6574585.65461
 91  4 17 22  7 30.0000000  0  5G18G 2G11G19G 6
  23676095.367    15298560.313 5  11920907.41121
  21266883.375   -11588688.905 7  -9030114.96722
  23318072.1954    1114695.44546    868598.99361
  21284134.148     2221998.165 6   1731423.58422
  22758396.320    -8539509.413 6  -6599812.02621
 91  4 17 22  7 45.0000000  0  5G18G 2G11G19G 6
  23686403.805    15352712.100 5  11963103.37721
  21263567.531   -11606109.829 7  -9043689.66022
  23323894.4774    1145287.15446    892436.64761
  21287525.453     2239843.300 6   1745328.87222
  22752234.8834   -8571886.64546  -6625040.93961
 91  4 17 22  8  0.0000000  0  5G18G 2G11G19G 6
  23696708.2974   15406885.12845  12005315.88561
  21260264.516   -11623473.065 7  -9057219.40023
  23329737.5704    1175993.98946    916364.01761
  21290934.141     2257747.121 6   1759279.88622
  22746073.180    -8604268.467 6  -6650273.42121
 91  4 17 22  8 15.0000000  0  5G18G 2G11G19G 6
  23707022.3594   15461079.43745  12047544.98061
  21256971.555   -11640778.504 7  -9070704.10622
  23335603.000     1206816.023 6    940381.14921
  21294350.375     2275710.056 6   1773276.96222
  22739907.398    -8636654.356 6  -6675509.07321
 91  4 17 22  8 30.0000000  0  5G18G 2G11G19G 6
  23717341.6954   15515296.46245  12089791.77161
  21253689.008   -11658024.585 7  -9084142.55823
  23341490.5084    1237754.55846    964489.06061
  21297782.828     2293733.641 6   1787321.29722
  22733746.891    -8669042.718 6  -6700746.65521
 91  4 17 22  8 45.0000000  0  5G18G 2G11G19G 6
  23727662.9774   15569536.95545  12132056.85061
  21250418.867   -11675210.295 7  -9097533.97023
  23347400.7344    1268810.52246    988688.47361
  21301222.945     2311819.190 6   1801413.92222
  22727581.125    -8701432.256 6  -6725985.14721
 91  4 17 22  9  0.0000000  0  5G18G 2G11G19G 6
  23737987.3364   15623798.88345  12174338.64161
  21247159.445   -11692337.242 7  -9110879.59323
  23353332.219     1299982.209 6   1012978.05421
  21304675.969     2329965.215 6   1815553.66722
  22721416.742    -8733824.427 6  -6751225.69921
 91  4 17 22  9 15.0000000  0  5G18G 2G11G19G 6
  23748320.2034   15678080.78745  12216635.98461
  21243911.109   -11709406.540 7  -9124180.29223
  23359285.3754    1331268.06546   1037356.60261
  21308140.352     2348170.459 6   1829739.55422
  22715253.539    -8766220.428 6  -6776469.22321
 91  4 17 22  9 30.0000000  0  5G18G 2G11G19G 6
  23758651.7194   15732388.87545  12258953.74361
  21240674.906   -11726412.078 7  -9137431.30922
  23365261.3134    1362673.98646   1061828.71061
  21311618.641     2366441.256 6   1843976.52722
  22709088.8284   -8798613.94046  -6801710.83061
 91  4 17 22  9 45.0000000  0  5G18G 2G11G19G 6
  23768988.4144   15786718.63945  12301288.38061
  21237450.914   -11743357.899 7  -9150635.79422
  23371260.5474    1394195.56046   1086390.93661
  21315105.352     2384773.564 6   1858261.42622
  22702922.813    -8831009.036 6  -6826953.65821
 91  4 17 22 10  0.0000000  0  5G18G 2G11G19G 6
  23779334.188    15841070.362 5  12343640.14121
  21234237.719   -11760243.279 7  -9163793.17723
  23377282.0704    1425833.34646   1111043.72461
  21318607.898     2403168.207 6   1872594.89922
  22696761.336    -8863404.759 6  -6852196.97521
 91  4 17 22 10 15.0000000  0  5G18G 2G11G19G 6
  23789682.258    15895441.829 5  12386007.26521
  21231035.8674  -11777070.11847  -9176904.93962
  23383323.4384    1457585.26846   1135785.44961
  21322118.078     2421623.492 6   1886975.62122
  22690592.914    -8895802.814 6  -6877442.11321
 91  4 17 22 10 30.0000000  0  5G18G 2G11G19G 6
  23800030.805    15949834.598 5  12428391.00821
  21227845.2584  -11793836.87547  -9189969.89062
  23389387.3674    1489452.53646   1160617.05261
  21325643.188     2440141.159 6   1901404.95622
  22684429.320    -8928201.551 6  -6902687.77521
 91  4 17 22 10 45.0000000  0  5G18G 2G11G19G 6
  23810386.508    16004250.461 5  12470792.72421
  21224666.6174  -11810541.50547  -9202986.42263
  23395473.0864    1521436.88946   1185539.88561
  21329177.969     2458723.226 6   1915884.47322
  22678263.102    -8960598.906 6  -6927932.36521
 91  4 17 22 11  0.0000000  0  5G18G 2G11G19G 6
  23820746.8834   16058687.00745  12513210.57461
  21221498.8524  -11827186.18347  -9215956.23563
  23401582.5944    1553536.18946   1210552.28761
  21332727.117     2477367.508 6   1930412.46522
  22672099.1564   -8992996.62246  -6953177.23961
 91  4 17 22 11 15.0000000  0  5G18G 2G11G19G 6
  23831110.367    16113145.286 5  12555645.36021
  21218342.7734  -11843769.40847  -9228878.17363
  23407713.7114    1585751.49246   1235655.08561
  21336286.141     2496075.627 6   1944990.19922
  22665935.586    -9025393.304 6  -6978421.29721
 91  4 17 22 11 30.0000000  0  5G18G 2G11G19G 6
  23841476.3984   16167625.53845  12598097.25061
  21215198.914   -11860290.774 7  -9241751.90923
  23413863.7194    1618082.99246   1260848.42861
  21339861.992     2514848.333 6   1959618.25722
  22659768.773    -9057788.435 6  -7003664.15721
 91  4 17 22 11 45.0000000  0  5G18G 2G11G19G 6
  23851848.7504   16222128.72545  12640567.03261
  21212067.023   -11876749.148 7  -9254576.56423
  23420038.3204    1650531.63746   1286133.04561
  21343443.086     2533686.763 6   1974297.53622
  22653605.406    -9090180.608 6  -7028904.70421
 91  4 17 22 12  0.0000000  0  5G18G 2G11G19G 6
  23862224.6484   16276650.68445  12683051.42261
  21208945.727   -11893148.501 7  -9267355.23023
  23426236.391     1683093.303 6   1311505.72621
  21347040.805     2552587.070 6   1989025.02022
  22647440.5784   -9122573.55746  -7054145.86561
 91  4 17 22 12 15.0000000  0  5G18G 2G11G19G 6
  23872603.141    16331190.327 5  12725549.59421
  21205836.563   -11909489.661 7  -9280088.55023
  23432453.4924    1715766.90246   1336965.63261
  21350648.1174    2571548.52746   2003800.15662
  22641276.359    -9154967.998 6  -7079388.17721
 91  4 17 22 12 30.0000000  0  5G18G 2G11G19G 6
  23882986.0784   16385750.52345  12768063.80061
  21202738.813   -11925769.405 7  -9292774.01323
  23438692.4694    1748555.18046   1362514.89761
  21354269.8674    2590574.50946   2018625.56962
  22635112.602    -9187360.840 6  -7104629.24921
 91  4 17 22 12 45.0000000  0  5G18G 2G11G19G 6
  23893373.4304   16440333.42045  12810595.68461
  21199652.945   -11941985.097 7  -9305409.56523
  23444954.828     1781460.606 6   1388155.44521
  21357900.7424    2609667.79246   2033503.42862
  22628949.211    -9219749.149 6  -7129866.78921
 91  4 17 22 13  0.0000000  0  5G18G 2G11G19G 6
  23903763.0314   16494934.64345  12853141.85461
  21196578.023   -11958141.113 7  -9317998.61723
  23451237.359     1814478.641 6   1413883.73621
  21361549.297     2628823.981 6   2048430.30122
  22622787.578    -9252137.172 6  -7155104.10421
 91  4 17 22 13 15.0000000  0  5G18G 2G11G19G 6
  23914156.5234   16549557.26545  12895704.69061
  21193515.758   -11974234.041 7  -9330538.50523
  23457543.2894    1847612.46946   1439702.25961
  21365204.766     2648046.669 6   2063408.99622
  22616623.930    -9284521.253 6  -7180338.34421
 91  4 17 22 13 30.0000000  0  5G18G 2G11G19G 6
  23924556.984    16604202.233 5  12938284.93821
  21190465.219   -11990262.969 7  -9343028.53523
  23463870.031     1880862.736 6   1465611.50921
  21368875.9614    2667336.85646   2078440.28162
  22610460.227    -9316900.379 6  -7205568.73021
 91  4 17 22 13 45.0000000  0  5G18G 2G11G19G 6
  23934959.336    16658863.360 5  12980877.76721
  21187426.281   -12006233.890 7  -9355473.35523
  23470219.070     1914223.259 6   1491606.67421
  21372556.938     2686688.585 6   2093519.52722
  22604297.8524   -9349280.31346  -7230799.74661
 91  4 17 22 14  0.0000000  0  5G18G 2G11G19G 6
  23945363.5164   16713544.02145  13023485.83561
  21184399.898   -12022142.941 7  -9367869.97423
  23476588.1414    1947697.60946   1517690.53261
  21376255.266     2706105.898 6   2108649.87222
  22598138.969    -9381657.292 6  -7256028.46221
 91  4 17 22 14 15.0000000  0  5G18G 2G11G19G 6
  23955772.445    16768243.491 5  13066108.54021
  21181383.102   -12037990.535 7  -9380218.70123
  23482980.4694    1981285.09946   1543862.54661
  21379960.5084    2725588.52246   2123831.11462
  22591978.0234   -9414031.35846  -7281254.90861
 91  4 17 22 14 30.0000000  0  5G18G 2G11G19G 6
  23966185.3054   16822961.64045  13108745.81661
  21178378.961   -12053776.627 7  -9392519.49823
  23489392.930     2014985.585 6   1570122.61021
  21383682.805     2745136.548 6   2139063.32022
  22585818.0704   -9446402.45046  -7306479.04161
 91  4 17 22 14 45.0000000  0  5G18G 2G11G19G 6
  23976602.5634   16877696.36345  13151395.99561
  21175387.219   -12069503.037 7  -9404773.79523
  23495826.398     2048796.993 6   1596469.11521
  21387412.016     2764748.355 6   2154345.22522
  22579659.3914   -9478772.11346  -7331702.06361
 91  4 17 22 15  0.0000000  0  5G18G 2G11G19G 6
  23987020.375    16932445.224 5  13194057.18121
  21172404.695   -12085172.176 7  -9416983.46423
  23502281.4534    2082716.68846   1622899.99761
  21391158.7424    2784421.73046   2169675.09862
  22573497.453    -9511142.466 6  -7356925.61621
 91  4 17 22 15 15.0000000  0  5G18G 2G11G19G 6
  23997442.5704   16987209.66245  13236730.54561
  21169435.234   -12100782.231 7  -9429147.09423
  23508758.000     2116746.121 6   1649416.39121
  21394912.039     2804158.268 6   2185054.19722
  22567337.7274   -9543511.75846  -7382148.34361
 91  4 17 22 15 30.0000000  0  5G18G 2G11G19G 6
  24007868.6954   17041992.58145  13279418.27061
  21166475.070   -12116329.796 7  -9441262.03623
  23515254.531     2150888.610 6   1676020.88321
  21398683.148     2823961.736 6   2200485.44622
  22561177.0084   -9575876.44946  -7407367.48261
 91  4 17 22 15 45.0000000  0  5G18G 2G11G19G 6
  24018294.2194   17096792.01445  13322118.88061
  21163529.719   -12131816.721 7  -9453329.72223
  23521772.484     2185141.966 6   1702711.76121
  21402461.391     2843830.334 6   2215967.44622
  22555021.2974   -9608238.19346  -7432584.33861
 91  4 17 22 16  0.0000000  0  5G18G 2G11G19G 6
  24028727.5394   17151608.53545  13364832.81061
  21160593.477   -12147242.310 7  -9465349.61423
  23528313.328     2219506.669 6   1729489.40321
  21406260.281     2863764.906 6   2231500.85522
  22548862.5394   -9640596.14346  -7457798.23061
 91  4 17 22 16 15.0000000  0  5G18G 2G11G19G 6
  24039163.719    17206439.571 5  13407558.02421
  21157668.703   -12162608.755 7  -9477323.41723
  23534872.6724    2253980.14046   1756351.80461
  21410060.008     2883763.193 6   2247083.91122
  22542705.0084   -9672952.33446  -7483010.74761
 91  4 17 22 16 30.0000000  0  5G18G 2G11G19G 6
  24049598.047    17261281.510 5  13450291.76621
  21154755.625   -12177919.400 7  -9489253.73723
  23541452.953     2288558.821 6   1783296.18721
  21413882.8524    2903822.05246   2262714.16062
  22536548.1564   -9705310.01246  -7508224.43361
 91  4 17 22 16 45.0000000  0  5G18G 2G11G19G 6
  24060037.563    17316134.395 5  13493034.02721
  21151852.898   -12193174.079 7  -9501140.44823
  23548052.2424    2323242.56246   1810322.42161
  21417706.6564    2923941.65646   2278391.74562
  22530389.1644   -9737668.76746  -7533438.95561
 91  4 17 22 17  0.0000000  0  5G18G 2G11G19G 6
  24070474.438    17371001.672 5  13535787.50621
  21148960.719   -12208368.914 7  -9512980.53323
  23554673.906     2358035.179 6   1837433.49621
  21421548.6484    2944126.07046   2294119.83262
  22524233.5704   -9770024.43046  -7558651.06161
 91  4 17 22 17 15.0000000  0  5G18G 2G11G19G 6
  24080919.4774   17425882.70145  13578551.70761
  21146080.867   -12223504.617 7  -9524774.53723
  23561314.3444    2392935.65246   1864628.61661
  21425401.1884    2964374.91846   2309898.12662
  22518077.2974   -9802377.83246  -7583861.41861
 91  4 17 22 17 30.0000000  0  5G18G 2G11G19G 6
  24091366.125    17480774.710 5  13621324.44021
  21143211.141   -12238583.580 7  -9536524.32723
  23567975.7814    2427941.38646   1891905.75661
  21429269.234     2984685.732 6   2325724.70922
  22511919.844    -9834730.914 6  -7609071.52321
 91  4 17 22 17 45.0000000  0  5G18G 2G11G19G 6
  24101814.328    17535684.690 5  13664111.19121
  21140354.125   -12253598.677 7  -9548224.34823
  23574659.102     2463059.254 6   1919270.28021
  21433144.2344    3005065.90546   2341605.33462
  22505764.3364   -9867076.54046  -7634275.81461
 91  4 17 22 18  0.0000000  0  5G18G 2G11G19G 6
  24112266.992    17590606.189 5  13706906.90921
  21137507.906   -12268556.050 7  -9559879.38823
  23581360.859     2498282.882 6   1946717.20821
  21437035.555     3025509.353 6   2357535.27022
  22499609.8834   -9899420.63846  -7659478.91661
 91  4 17 22 18 15.0000000  0  5G18G 2G11G19G 6
  24122720.0554   17645543.25145  13749714.77561
  21134672.602   -12283451.223 7  -9571485.96623
  23588085.969     2533616.224 6   1974249.63221
  21440937.664     3046020.438 6   2373517.90922
  22493456.2194   -9931758.77646  -7684677.37061
 91  4 17 22 18 30.0000000  0  5G18G 2G11G19G 6
  24133177.0314   17700494.85245  13792533.95361
  21131850.391   -12298285.115 7  -9583044.79523
  23594829.383     2569058.265 6   2001866.75721
  21444854.602     3066598.287 6   2389552.57322
  22487303.5784   -9964091.57346  -7709871.67061
 91  4 17 22 18 45.0000000  0  5G18G 2G11G19G 6
  24143636.8594   17755461.12045  13835364.54561
  21129038.719   -12313057.300 7  -9594555.53823
  23601595.805     2604609.218 6   2029568.74221
  21448781.320     3087243.429 6   2405639.67522
  22481153.1254   -9996418.36146  -7735061.28661
 91  4 17 22 19  0.0000000  0  5G18G 2G11G19G 6
  24154097.9534   17810438.52045  13878203.81261
  21126239.141   -12327771.084 7  -9606020.77423
  23608380.352     2640265.554 6   2057352.84221
  21452727.313     3107952.691 6   2421776.73922
  22474999.5164  -10028742.23146  -7760248.62961
 91  4 17 22 19 15.0000000  0  5G18G 2G11G19G 6
  24164564.805    17865432.622 4  13921056.12021
  21123451.398   -12342420.494 7  -9617435.85023
  23615187.281     2676032.927 6   2085223.46821
  21456676.0704    3128732.34846   2437968.64562
  22468851.953   -10061057.252 6  -7785429.08021
 91  4 17 22 19 30.0000000  0  5G18G 2G11G19G 6
  24175031.570    17920442.037 4  13963920.34121
  21120676.133   -12357006.721 7  -9628801.69323
  23622013.0314    2711909.79846   2113179.41461
  21460645.6094    3149581.21446   2454214.48562
  22462701.6414  -10093364.35546  -7810603.35761
 91  4 17 22 19 45.0000000  0  5G18G 2G11G19G 6
  24185502.789    17975464.479 4  14006794.69021
  21117912.055   -12371532.144 7  -9640120.15723
  23628861.070     2747893.631 6   2141218.72021
  21464624.7664    3170497.02046   2470512.47862
  22456555.3524  -10125665.70946  -7835773.15161
 91  4 17 22 20  0.0000000  0  5G18G 2G11G19G 6
  24195975.7114   18030500.55844  14049679.70261
  21115159.453   -12385995.820 7  -9651390.50523
  23635730.219     2783985.059 6   2169341.86521
  21468622.1804    3191480.93446   2486863.55162
  22450409.586   -10157960.258 6  -7860937.65721
 91  4 17 22 20 15.0000000  0  5G18G 2G11G19G 6
  24206452.4384   18085551.49044  14092576.28161
  21112418.883   -12400396.008 7  -9662611.37823
  23642618.6174    2820185.49246   2197549.95161
  21472623.0554    3212534.55146   2503268.93262
  22444267.7344  -10190246.08246  -7886095.35161
 91  4 17 22 20 30.0000000  0  5G18G 2G11G19G 6
  24216931.7114   18140612.22145  14135480.51061
  21109690.117   -12414737.662 7  -9673786.64723
  23649528.367     2856489.786 6   2225838.95721
  21476643.0004    3233653.01946   2519724.84762
  22438123.461   -10222527.963 6  -7911249.98521
 91  4 17 22 20 45.0000000  0  5G18G 2G11G19G 6
  24227411.961    18195681.367 5  14178391.31621
  21106971.750   -12429021.971 7  -9684917.22423
  23656455.6024    2892896.38846   2254207.71161
  21480673.3594    3254835.30646   2536230.49062
  22431979.852   -10254806.917 6  -7936402.32421
 91  4 17 22 21  0.0000000  0  5G18G 2G11G19G 6
  24237891.7424   18250761.90845  14221310.95561
  21104264.523   -12443245.607 7  -9696000.53123
  23663402.188     2929408.371 6   2282658.55821
  21484719.5634    3276084.94746   2552788.61462
  22425840.188   -10287079.698 6  -7961549.87521
 91  4 17 22 21 15.0000000  0  5G18G 2G11G19G 6
  24248377.6414   18305854.43844  14264239.96161
  21101570.109   -12457407.908 7  -9707036.04223
  23670372.188     2966026.264 6   2311191.92821
  21488773.3204    3297402.77346   2569399.87562
  22419700.086   -10319344.931 6  -7986691.53021
 91  4 17 22 21 30.0000000  0  5G18G 2G11G19G 6
  24258862.656    18360958.119 4  14307177.63321
  21098886.297   -12471509.349 7  -9718024.13223
  23677360.5004    3002749.28946   2339807.24261
  21492845.6334    3318788.37246   2586063.94062
  22413560.500   -10351603.247 6  -8011827.80421
 91  4 17 22 21 45.0000000  0  5G18G 2G11G19G 6
  24269349.766    18416072.379 4  14350123.55321
  21096214.789   -12485550.248 8  -9728965.04623
  23684366.7034    3039577.08946   2368504.18861
  21496925.438     3340241.469 6   2602780.59622
  22407424.938   -10383854.560 6  -8036958.61921
 91  4 17 22 22  0.0000000  0  5G18G 2G11G19G 6
  24279842.164    18471200.409 4  14393080.19921
  21093554.055   -12499527.039 7  -9739856.00423
  23691396.172     3076512.825 6   2397285.22921
  21501024.0314    3361765.63546   2619552.63762
  22401288.453   -10416095.300 6  -8062081.18221
 91  4 17 22 22 15.0000000  0  5G18G 2G11G19G 6
  24290333.992    18526340.302 5  14436046.06821
  21090906.797   -12513441.386 7  -9750698.30023
  23698447.0784    3113554.35746   2426148.72861
  21505129.8524    3383359.36946   2636378.88862
  22395155.8054  -10448326.95746  -8087196.67961
 91  4 17 22 22 30.0000000  0  5G18G 2G11G19G 6
  24300829.273    18581488.981 5  14479018.83821
  21088269.477   -12527296.576 7  -9761494.50623
  23705512.992     3150698.388 6   2455092.08621
  21509256.5004    3405019.70746   2653257.03762
  22389023.523   -10480552.622 6  -8112307.50521
 91  4 17 22 22 45.0000000  0  5G18G 2G11G19G 6
  24311326.242    18636646.814 5  14521998.70321
  21085644.570   -12541091.917 7  -9772244.07223
  23712601.672     3187945.214 6   2484115.54421
  21513388.1884    3426747.27046   2670187.57462
  22382893.4774  -10512771.37946  -8137412.94261
 91  4 17 22 23  0.0000000  0  5G18G 2G11G19G 6
  24321825.438    18691816.208 5  14564987.58921
  21083031.906   -12554824.689 7  -9782944.88023
  23719709.172     3225297.384 6   2513221.08121
  21517536.5394    3448544.93846   2687172.74062
  22376763.3674  -10544980.31846  -8162510.73461
 91  4 17 22 23 15.0000000  0  5G18G 2G11G19G 6
  24332324.7344   18746995.30845  14607984.04461
  21080430.344   -12568496.153 7  -9793597.92023
  23726837.805     3262753.363 6   2542407.52321
  21521695.2584    3470411.56846   2704211.64362
  22370636.750   -10577180.559 6  -8187601.74321
 91  4 17 22 23 30.0000000  0  5G18G 2G11G19G 6
  24342824.719    18802186.477 5  14650989.91021
  21077840.734   -12582103.845 7  -9804201.26923
  23733984.7274    3300315.32046   2571676.54661
  21525872.3984    3492349.61346   2721306.19462
  22364509.9304  -10609369.41946  -8212683.88761
 91  4 17 22 23 45.0000000  0  5G18G 2G11G19G 6
  24353331.617    18857387.318 5  14694003.28521
  21075263.063   -12595649.952 7  -9814756.62923
  23741152.516     3337980.830 6   2601026.24521
  21530059.3364    3514356.94346   2738454.72962
  22358385.953   -10641549.019 6  -8237758.81121
 91  4 17 22 24  0.0000000  0  5G18G 2G11G19G 6
  24363838.6094   18912595.33245  14737022.26361
  21072696.289   -12609137.018 7  -9825265.98323
  23748339.0234    3375746.94846   2630454.34561
  21534263.3524    3536431.04446   2755655.29062
  22352262.727   -10673721.659 6  -8262828.31621
 91  4 17 22 24 15.0000000  0  5G18G 2G11G19G 6
  24374347.5474   18967812.96445  14780048.76161
  21070141.250   -12622562.126 7  -9835727.05823
  23755545.898     3413616.299 6   2659962.88021
  21538473.7344    3558575.06546   2772910.34462
  22346142.9304  -10705884.25146  -8287889.98661
 91  4 17 22 24 30.0000000  0  5G18G 2G11G19G 6
  24384858.766    19023040.751 5  14823083.14321
  21067598.625   -12635924.376 7  -9846139.15423
  23762770.719     3451589.527 6   2689552.36621
  21542702.3754    3580789.92046   2790220.59262
  22340024.8914  -10738035.62746  -8312942.92561
 91  4 17 22 24 45.0000000  0  4G 2G11G19G 6
  21065067.984   -12649224.212 7  -9856502.61723
  23770015.422     3489665.948 6   2719222.26421
  21546940.7274    3603075.31946   2807585.80962
  22333909.6094  -10770176.25946  -8337987.48461
 91  4 17 22 25  0.0000000  0  4G 2G11G19G 6
  21062548.602   -12662461.773 7  -9866817.55323
  23777282.680     3527845.225 6   2748972.29721
  21551197.0944    3625431.28746   2825006.00762
  22327794.5554  -10802305.96846  -8363023.53461
 91  4 17 22 25 15.0000000  0  4G 2G11G19G 6
  21060042.477   -12675635.469 7  -9877082.72823
  23784567.594     3566128.685 6   2778803.52421
  21555463.8134    3647859.61146   2842482.59262
  22321682.211   -10834422.906 6  -8388049.63321
 91  4 17 22 25 30.0000000  0  4G 2G11G19G 6
  21057546.875   -12688744.998 7  -9887297.89623
  23791872.7344    3604516.40946   2808715.98861
  21559748.6174    3670360.48346   2860015.69962
  22315574.4064  -10866526.53046  -8413065.35461
 91  4 17 22 25 45.0000000  0  4G 2G11G19G 6
  21055064.195   -12701797.463 7  -9897468.60323
  23799195.500     3643000.929 6   2838703.88021
  21564038.5634    3692926.99546   2877599.96462
  22309465.4534  -10898623.81546  -8438076.13861
 91  4 17 22 26  0.0000000  0  4G 2G11G19G 6
  21052590.883   -12714792.367 7  -9907594.45623
  23806537.477     3681582.367 6   2868767.29421
  21568348.4774    3715559.69146   2895235.80462
  22303358.422   -10930714.118 6  -8463081.48521
 91  4 17 22 26 15.0000000  0  4G 2G11G19G 6
  21050128.891   -12727727.013 7  -9917673.35823
  23813898.938     3720263.181 6   2898908.13821
  21572667.7344    3738261.29146   2912925.33462
  22297255.7194  -10962794.75846  -8488079.29961
 91  4 17 22 26 30.0000000  0  4G 2G11G19G 6
  21047680.164   -12740596.551 7  -9927701.52623
  23821278.5084    3759048.11546   2929130.10361
  21577002.9844    3761036.90246   2930672.53462
  22291152.797   -10994860.379 6  -8513065.42221
 91  4 17 22 26 45.0000000  0  4G 2G11G19G 6
  21045241.844   -12753408.489 7  -9937684.80923
  23828676.344     3797929.299 6   2959427.08521
  21581348.0944    3783879.03146   2948471.57062
  22285051.969   -11026918.411 6  -8538045.62221
 91  4 17 22 27  0.0000000  0  4G 2G11G19G 6
  21042816.117   -12766160.074 7  -9947621.06923
  23836095.305     3836909.190 6   2989800.96721
  21585709.8444    3806790.59546   2966324.70662
  22278952.859   -11058965.789 6  -8563017.52321
 91  4 17 22 27 15.0000000  0  4G 2G11G19G 6
  21040400.773   -12778849.708 7  -9957509.05223
  23843532.305     3875989.148 6   3020252.82521
  21590081.4534    3829773.34946   2984233.31262
  22272857.141   -11091000.785 6  -8587979.77721
 91  4 17 22 27 30.0000000  0  4G 2G11G19G 6
  21037997.7734  -12791480.71147  -9967351.35963
  23850987.1644    3915165.48046   3050779.78661
  21594469.9304    3852823.92346   3002194.76762
  22266762.758   -11123026.802 6  -8612935.02921
 91  4 17 22 27 45.0000000  0  4G 2G11G19G 6
  21035605.3284  -12804052.85847  -9977147.80163
  23858459.5784    3954438.20546   3081381.86461
  21598866.8364    3875942.69046   3020209.36262
  22260670.242   -11155043.229 6  -8637882.81821
 91  4 17 22 28  0.0000000  0  4G 2G11G19G 6
  21033223.1414  -12816566.05747  -9986898.30863
  23865952.578     3993807.175 6   3112058.94121
  21603283.758     3899129.812 6   3038277.22322
  22254581.680   -11187049.527 6  -8662822.70721
 91  4 17 22 28 15.0000000  0  4G 2G11G19G 6
  21030854.7424  -12829014.75647  -9996598.55363
  23873463.4384    4033277.53846   3142815.00361
  21607706.1804    3922390.95246   3056402.75662
  22248491.258   -11219040.080 6  -8687750.32621
 91  4 17 22 28 30.0000000  0  4G 2G11G19G 6
  21028497.266   -12841402.995 7 -10006251.68423
  23880992.844     4072845.038 6   3173646.77321
  21612150.1174    3945722.19146   3074582.91262
  22242406.0554  -11251018.91046  -8712668.80961
 91  4 17 22 28 45.0000000  0  4G 2G11G19G 6
  21026150.9774  -12853731.65247 -10015858.39463
  23888539.336     4112508.701 6   3204553.46821
  21616598.5554    3969122.73646   3092817.07062
  22236323.719   -11282986.527 6  -8737578.56021
 91  4 17 22 29  0.0000000  0  4G 2G11G19G 6
  21023815.8444  -12865999.57347 -10025417.77463
  23896107.008     4152269.332 6   3235535.72621
  21621069.8364    3992593.76646   3111106.15462
  22230243.2034  -11314941.52946  -8762478.47661
 91  4 17 22 29 15.0000000  0  4G 2G11G19G 6
  21021492.5234  -12878211.91447 -10034933.84663
  23903689.7814    4192121.51446   3266589.31661
  21625544.031     4016130.139 6   3129446.15622
  22224162.711   -11346888.808 6  -8787372.38021
 91  4 17 22 29 30.0000000  0  4G 2G11G19G 6
  21019180.3054  -12890364.38147 -10044403.26163
  23911291.164     4232069.326 6   3297717.43421
  21630036.469     4039736.519 6   3147840.71722
  22218084.0554  -11378824.06546  -8812256.89961
 91  4 17 22 29 45.0000000  0  4G 2G11G19G 6
  21016878.9844  -12902456.78247 -10053825.87263
  23918912.5314    4272112.45846   3328919.81961
  21634541.7424    4063412.97546   3166289.87762
  22212009.211   -11410747.076 6  -8837131.89221
 91  4 17 22 30  0.0000000  0  4G 2G11G19G 6
  21014588.8914  -12914490.03847 -10063202.39663
  23926551.586     4312249.717 6   3360195.55321
  21639062.2344    4087158.66646   3184792.97962
  22205937.172   -11442658.382 6  -8861997.76121
 91  4 17 22 30 15.0000000  0  4G 2G11G19G 6
  21012309.7424  -12926465.60047 -10072533.97063
  23934206.414     4352479.341 6   3391543.25721
  21643592.1484    4110972.09646   3203348.86462
  22199868.102   -11474559.295 6  -8886855.53121
 91  4 17 22 30 30.0000000  0  4G 2G11G19G 6
  21010041.9144  -12938384.68147 -10081821.53063
  23941878.6724    4392799.92146   3422961.83161
  21648136.9924    4134852.38646   3221956.84662
  22193799.000   -11506450.718 6  -8911705.91021
 91  4 17 22 30 45.0000000  0  4G 2G11G19G 6
  21007785.6414  -12950240.63047 -10091059.89763
  23949569.4694    4433217.80946   3454456.22661
  21652694.2584    4158806.25646   3240622.16962
  22187733.164   -11538325.668 6  -8936543.44921
 91  4 17 22 31  0.0000000  0  4G 2G11G19G 6
  21005540.3054  -12962038.45247 -10100252.96963
  23957280.055     4473727.702 6   3486022.31921
  21657266.3754    4182828.79346   3259340.98662
  22181668.203   -11570189.188 6  -8961372.08721
 91  4 17 22 31 15.0000000  0  4G 2G11G19G 6
  21003306.7814  -12973777.66047 -10109400.36763
  23965004.0474    4514329.84346   3517660.29661
  21661851.0784    4206920.63146   3278113.81062
  22175608.539   -11602040.551 6  -8986191.25521
 91  4 17 22 31 30.0000000  0  4G 2G11G19G 6
  21001083.9224  -12985458.83847 -10118502.54963
  23972747.7504    4555023.49846   3549369.56661
  21666453.4144    4231081.30946   3296940.27662
  22169549.516   -11633880.015 6  -9011001.15321
 91  4 17 22 31 45.0000000  0  4G 2G11G19G 6
  20998872.3984  -12997079.09047 -10127557.25463
  23980511.453     4595811.197 6   3581152.11721
  21671059.1094    4255313.66946   3315822.59662
  22163492.469   -11665704.312 6  -9035799.22121
 91  4 17 22 32  0.0000000  0  4G 2G11G19G 6
  20996672.2814  -13008641.67447 -10136567.02263
  23988289.570     4636689.389 5   3613005.18421
  21675684.8054    4279614.47046   3334758.24662
  22157440.734   -11697516.819 6  -9060588.11221
 91  4 17 22 32 15.0000000  0  4G 2G11G19G 6
  20994482.4224  -13020147.76047 -10145532.76563
  23996086.766     4677656.696 6   3644927.68721
  21680321.2584    4303982.76446   3353746.48662
  22151389.820   -11729318.345 6  -9085368.44621
 91  4 17 22 32 30.0000000  0  4G 2G11G19G 6
  20992304.0004  -13031594.70147 -10154452.42463
  24003899.336     4718715.317 5   3676921.33821
  21684973.8834    4328421.20846   3372789.38762
  22145339.008   -11761105.998 6  -9110137.96321
 91  4 17 22 32 45.0000000  0  4G 2G11G19G 6
  20990137.0944  -13042984.30147 -10163327.39963
  24011728.7734    4759863.25146   3708984.59361
  21689634.391     4352928.087 6   3391885.61122
  22139291.820   -11792881.536 6  -9134898.04821
 91  4 17 22 33  0.0000000  0  4G 2G11G19G 6
  20987980.8674  -13054313.28147 -10172155.13863
  24019574.2584    4801103.43046   3741119.71161
  21694312.891     4377506.891 6   3411037.88622
  22133248.0554  -11824641.33946  -9159645.87461
 91  4 17 22 33 15.0000000  0  4G 2G11G19G 6
  20985834.9224  -13065588.48247 -10180940.97363
  24027439.180     4842428.806 6   3773321.22221
  21699001.203     4402150.770 6   3430240.86522
  22127208.703   -11856392.072 6  -9184386.63121
 91  4 17 22 33 30.0000000  0  4G 2G11G19G 6
  20983700.7974  -13076805.74947 -10189681.66163
  24035319.0704    4883843.32545   3805592.20661
  21703706.7584    4426864.12346   3449497.97762
  22121167.383   -11888129.199 6  -9209116.78521
 91  4 17 22 33 45.0000000  0  4G 2G11G19G 6
  20981576.9774  -13087967.00847 -10198378.70463
  24043219.148     4925344.852 6   3837930.98821
  21708419.8834    4451645.07046   3468807.77062
  22115130.273   -11919854.485 6  -9233837.71121
 91  4 17 22 34  0.0000000  0  4G 2G11G19G 6
  20979464.4774  -13099069.92147 -10207030.28563
  24051133.430     4966935.307 6   3870339.05221
  21713149.5084    4476495.95646   3488172.05562
  22109096.898   -11951565.374 6  -9258547.41721
 91  4 17 22 34 15.0000000  0  4G 2G11G19G 6
  20977363.0004  -13110113.09747 -10215635.31863
  24059064.2194    5008615.57646   3902817.11861
  21717892.3444    4501418.10046   3507591.87462
  22103063.664   -11983260.469 6  -9283244.81821
 91  4 17 22 34 30.0000000  0  4G 2G11G19G 6
  20975272.1334  -13121100.42347 -10224196.83163
  24067012.094     5050381.563 5   3935361.96621
  21722648.4774    4526407.78146   3527064.31762
  22097035.938   -12014943.470 6  -9307932.79521
 91  4 17 22 34 45.0000000  0  4G 2G11G19G 6
  20973191.9694  -13132030.41947 -10232713.67363
  24074977.711     5092234.560 6   3967974.60921
  21727415.727     4551466.782 6   3546590.77322
  22091007.305   -12046612.467 6  -9332609.85821
 91  4 17 22 35  0.0000000  0  4G 2G11G19G 6
  20971123.688   -13142900.595 7 -10241183.89823
  24082957.3284    5134176.92545   4000656.91961
  21732199.7974    4576597.52946   3566173.13662
  22084986.383   -12078264.764 6  -9357273.91021
 91  4 17 22 35 15.0000000  0  4G 2G11G19G 6
  20969066.555   -13153709.575 7 -10249606.43823
  24090956.625     5176209.562 5   4033409.53021
  21736995.0634    4601801.49446   3585812.55362
  22078965.555   -12109898.792 6  -9381923.72222
 91  4 17 22 35 30.0000000  0  4G 2G11G19G 6
  20967019.7734  -13164462.84747 -10257985.57063
  24098972.086     5218326.637 5   4066227.95921
  21741804.9304    4627073.20546   3605504.75762
  22072948.945   -12141519.867 6  -9406563.44121
 91  4 17 22 35 45.0000000  0  4G 2G11G19G 6
  20964985.078   -13175157.074 7 -10266318.69223
  24107001.531     5260531.202 5   4099114.55421
  21746625.906     4652416.091 6   3625252.41922
  22066933.125   -12173124.545 6  -9431190.38221
 91  4 17 22 36  0.0000000  0  4G 2G11G19G 6
  20962959.8134  -13185796.15747 -10274608.84463
  24115049.969     5302819.135 5   4132066.11221
  21751462.8914    4677826.35046   3645052.58062
  22060922.719   -12204716.441 6  -9455807.36721
 91  4 17 22 36 15.0000000  0  4G 2G11G19G 6
  20960946.4774  -13196376.92947 -10282853.56463
  24123114.0004    5345193.31345   4165084.86761
  21756309.9694    4703307.33546   3664907.85562
  22054913.523   -12236292.066 6  -9480411.67121
 91  4 17 22 36 30.0000000  0  4G 2G11G19G 6
  20958944.492   -13206902.995 7 -10291055.65123
  24131194.0314    5387650.05145   4198167.96861
  21761175.555     4728855.722 6   3684815.64722
  22048908.117   -12267854.659 6  -9505005.81421
 91  4 17 22 36 45.0000000  0  4G 2G11G19G 6
  20956951.5084  -13217370.16047 -10299211.84363
  24139289.2114    5430193.09746   4231318.29661
  21766047.914     4754475.481 6   3704779.05622
  22042904.680   -12299399.843 6  -9529586.39421
 91  4 17 22 37  0.0000000  0  4G 2G11G19G 6
  20954972.0554  -13227778.85947 -10307322.47663
  24147402.211     5472821.792 6   4264535.38921
  21770937.8204    4780166.24046   3724797.79062
  22036904.953   -12330928.106 6  -9554153.79521
 91  4 17 22 37 15.0000000  0  4G 2G11G19G 6
  20953002.0554  -13238126.10247 -10315385.22863
  24155530.297     5515538.850 6   4297821.32721
  21775838.492     4805931.205 6   3744874.34322
  22030907.820   -12362435.909 6  -9578705.24721
 91  4 17 22 37 30.0000000  0  4G 2G11G19G 6
  20951044.1884  -13248417.11747 -10323404.16263
  24163673.953     5558338.581 5   4331171.68021
  21780756.258     4831765.076 6   3765004.58622
  22024916.695   -12393928.399 6  -9603244.76821
 91  4 17 22 37 45.0000000  0  4G 2G11G19G 6
  20949096.8134  -13258649.14647 -10331377.13163
  24171835.641     5601223.505 5   4364588.43221
  21785684.9614    4857670.69746   3785190.74662
  22018926.734   -12425402.654 6  -9627770.08322
 91  4 17 22 38  0.0000000  0  4G 2G11G19G 6
  20947160.664   -13268824.737 7 -10339306.12023
  24180011.938     5644191.054 5   4398069.56321
  21790629.859     4883645.792 6   3805431.03522
  22012942.000   -12456860.881 6  -9652282.90221
 91  4 17 22 38 15.0000000  0  4G 2G11G19G 6
  20945234.5314  -13278944.85447 -10347191.88463
  24188202.109     5687239.591 5   4431613.81021
  21795582.3594    4909689.19246   3825724.55462
  22006957.523   -12488304.032 6  -9676783.97221
 91  4 17 22 38 30.0000000  0  4G 2G11G19G 6
  20943320.500   -13289006.158 7 -10355031.81923
  24196410.6094    5730372.38045   4465223.68361
  21800553.7974    4935804.69246   3846074.25762
  22000976.000   -12519728.406 6  -9701270.41921
 91  4 17 22 38 45.0000000  0  4G 2G11G19G 6
  20941416.5704  -13299010.11347 -10362827.07063
  24204636.156     5773587.571 5   4498897.77521
  21805534.4774    4961990.66746   3866478.87462
  21994999.500   -12551135.175 6  -9725743.14621
 91  4 17 22 39  0.0000000  0  4G 2G11G19G 6
  20939523.1094  -13308958.65447 -10370579.14063
  24212874.6724    5816882.78845   4532634.24361
  21810534.1414    4988245.00446   3886936.76362
  21989025.672   -12582526.250 6  -9750203.64221
 91  4 17 22 39 15.0000000  0  4G 2G11G19G 6
  20937641.000   -13318851.370 7 -10378287.70623
  24221127.742     5860258.333 5   4566433.28221
  21815541.5164    5014568.44846   3907448.49662
  21983055.508   -12613900.706 6  -9774651.19221
 91  4 17 22 39 30.0000000  0  4G 2G11G19G 6
  20935768.8984  -13328685.77947 -10385950.84463
  24229398.508     5903716.401 5   4600296.63621
  21820566.8834    5040963.67146   3928016.16262
  21977088.289   -12645256.085 6  -9799083.87222
 91  4 17 22 39 45.0000000  0  4G 2G11G19G 6
  20933908.445   -13338465.430 7 -10393571.30623
  24237683.367     5947253.065 5   4634221.23721
  21825600.539     5067427.154 6   3948637.01722
  21971124.133   -12676595.520 6  -9823504.13021
 91  4 17 22 40  0.0000000  0  4G 2G11G19G 6
  20932056.945   -13348194.586 7 -10401152.42423
  24245982.484     5990863.776 5   4668203.52321
  21830649.938     5093954.524 6   3969307.65322
  21965163.820   -12707923.106 6  -9847915.15722
 91  4 17 22 40 15.0000000  0  4G 2G11G19G 6
  20930216.2584  -13357865.99547 -10408688.54863
  24254295.586     6034555.492 6   4702248.95321
  21835710.2734    5120553.16446   3990033.82862
  21959207.016   -12739231.454 6  -9872311.19522
 91  4 17 22 40 30.0000000  0  4G 2G11G19G 6
  20928386.609   -13367482.285 7 -10416181.71723
  24262625.641     6078325.414 6   4736355.30621
  21840787.9064    5147220.54446   4010813.56762
  21953251.414   -12770522.834 7  -9896694.00922
 91  4 17 22 40 45.0000000  0  4G 2G11G19G 6
  20926567.6414  -13377041.63547 -10423630.51963
  24270969.6414    6122175.17046   4770523.85661
  21845872.938     5173958.646 6   4031648.40222
  21947299.820   -12801795.110 7  -9921061.94122
 91  4 17 22 41  0.0000000  0  5G15G 2G11G19G 6
  24231218.9614         -0.53254
  20924758.2034  -13386548.71947 -10431038.59963
  24279328.4064    6166099.58846   4804750.58761
  21850977.883     5200762.670 6   4052534.60922
  21941352.7584  -12833052.90647  -9945418.59362
 91  4 17 22 41 15.0000000  0  5G15G 2G11G19G 6
  24225508.875      -30007.916 4
  20922959.1804  -13395997.54747 -10438401.28563
  24287702.6094    6210104.38545   4839039.95461
  21856087.484     5227638.889 6   4073477.07122
  21935408.7034  -12864289.87347  -9969759.01862
 91  4 17 22 41 30.0000000  0  5G15G 2G11G19G 6
  24219811.836      -59948.660 4
  20921172.3834  -13405390.55947 -10445720.48363
  24296091.758     6254187.095 5   4873390.02821
  21861218.375     5254585.168 6   4094474.12722
  21929467.4614  -12895508.17547  -9994084.89962
 91  4 17 22 41 45.0000000  0  5G15G 2G11G19G 6
  24214127.6724     -89819.52944        -0.14471
  20919396.4144  -13414725.05347 -10452994.07463
  24304494.5394    6298349.89345   4907802.50761
  21866357.367     5281603.977 6   4115527.70022
  21923531.234   -12926704.969 7 -10018394.01222
 91  4 17 22 42  0.0000000  0  5G15G 2G11G19G 6
  24208458.023     -119624.154 5    -23224.34721
  20917629.8674  -13424005.01847 -10460225.18263
  24312914.2114    6342588.38745   4942273.96961
  21871513.180     5308691.251 6   4136634.61422
  21917597.4384  -12957883.93247 -10042689.23262
 91  4 17 22 42 15.0000000  0  5G15G 2G11G19G 6
  24202798.4454    -149361.51245    -46396.13061
  20915874.5704  -13433229.83547 -10467413.31563
  24321346.4454    6386903.07545   4976804.80061
  21876678.609     5335847.974 6   4157795.66022
  21911668.289   -12989044.364 7 -10066970.01622
 91  4 17 22 42 30.0000000  0  5G15G 2G11G19G 6
  24197152.5944    -179031.15245    -69515.16961
  20914130.4224  -13442399.48347 -10474558.45763
  24329794.5004    6431293.52945   5011394.69061
  21881862.836     5363074.033 6   4179010.72322
  21905741.852   -13020185.776 6 -10091235.98222
 91  4 17 22 42 45.0000000  0  5G15G 2G11G19G 6
  24191521.7894    -208630.44345    -92579.37961
  20912395.7664  -13451512.08247 -10481659.14463
  24338255.922     6475761.626 5   5046045.08121
  21887055.2974    5390371.48946   4200281.42862
  21899819.8754  -13051306.09046 -10115485.50862
 91  4 17 22 43  0.0000000  0  5G15G 2G11G19G 6
  24185899.2734    -238158.60945   -115588.19261
  20910672.3754  -13460566.84347 -10488714.76563
  24346731.5474    6520307.62545   5080756.18961
  21892264.891     5417741.115 6   4221608.37022
  21893902.1334  -13082404.40847 -10139717.89662
 91  4 17 22 43 15.0000000  0  5G15G 2G11G19G 6
  24180293.4224    -267617.74045   -138543.18461
  20908959.4384  -13469566.39447 -10495727.36563
  24355224.844     6564928.604 5   5115525.72521
  21897486.1174    5445180.29746   4242989.51362
  21887988.711   -13113483.054 6 -10163934.95122
 91  4 17 22 43 30.0000000  0  5G15G 2G11G19G 6
  24174701.148     -297004.974 5   -161442.18021
  20907258.0004  -13478508.08347 -10502694.87763
  24363730.492     6609626.967 5   5150355.55521
  21902721.4144    5472691.79146   4264427.00162
  21882077.9774  -13144539.24147 -10188134.51262
 91  4 17 22 43 45.0000000  0  5G15G 2G11G19G 6
  24169120.945     -326321.931 5   -184286.38721
  20905568.0164  -13487394.32647 -10509619.18963
  24372249.4144    6654399.93245   5185243.52061
  21907970.352     5500273.373 6   4285919.10122
  21876172.2034  -13175575.07247 -10212318.20862
 91  4 17 22 44  0.0000000  0  5G15G 2G11G19G 6
  24163557.1174    -355571.07945   -207077.76261
  20903885.6954  -13496228.29747 -10516502.76763
  24380782.6724    6699244.11845   5220186.99361
  21913236.2274    5527921.90946   4307463.37462
  21870269.7114  -13206593.57347 -10236488.40262
 91  4 17 22 44 15.0000000  0  5G15G 2G11G19G 6
  24158000.313     -384751.989 5   -229815.97921
  20902216.0004  -13505009.79647 -10523345.45563
  24389330.008     6744159.391 5   5255185.83721
  21918504.914     5555637.593 6   4329059.96722
  21864369.9304  -13237594.21047 -10260644.67062
 91  4 17 22 44 30.0000000  0  5G15G 2G11G19G 6
  24152463.117     -413861.776 5   -252498.76821
  20900553.9614  -13513736.44247 -10530145.40663
  24397891.5084    6789148.09045   5290241.89861
  21923792.8674    5583422.95246   4350710.85962
  21858475.9774  -13268574.01547 -10284784.71262
 91  4 17 22 44 45.0000000  0  5G15G 2G11G19G 6
  24146937.719     -442898.070 5   -275124.29821
  20898904.7734  -13522406.05047 -10536900.91163
  24406467.6804    6834211.90545   5325356.50361
  21929093.648     5611280.105 6   4372417.69022
  21852584.086   -13299530.944 7 -10308906.92322
 91  4 17 22 45  0.0000000  0  5G15G 2G11G19G 6
  24141424.7114    -471862.78745   -297694.05161
  20897264.9304  -13531020.92847 -10543613.76763
  24415056.438     6879348.030 5   5360527.43721
  21934412.1644    5639206.74946   4394178.66762
  21846697.5944  -13330467.00647 -10333012.87662
 91  4 17 22 45 15.0000000  0  5G15G 2G11G19G 6
  24135924.844     -500753.397 5   -320206.04521
  20895637.0314  -13539579.19547 -10550282.51463
  24423658.352     6924558.298 5   5395756.13521
  21939735.648     5667204.925 6   4415995.38822
  21840814.2584  -13361379.92447 -10357100.79562
 91  4 17 22 45 30.0000000  0  5G15G 2G11G19G 6
  24130446.789     -529569.702 5   -342660.16221
  20894019.3984  -13548080.87647 -10556907.16963
  24432278.141     6969842.391 5   5431042.36221
  21945078.352     5695274.646 6   4437867.84722
  21834936.9844  -13392269.70947 -10381170.68962
 91  4 17 22 45 45.0000000  0  5G15G 2G11G19G 6
  24124973.4304    -558314.17945   -365058.30661
  20892411.6644  -13556528.84547 -10563489.96863
  24440906.2344    7015196.90745   5466383.46961
  21950431.5634    5723413.15646   4459793.92262
  21829061.7894  -13423138.85547 -10405224.50462
 91  4 17 22 46  0.0000000  0  5G15G 2G11G19G 6
  24119518.195     -586988.058 5   -387401.42521
  20890813.4774  -13564924.72047 -10570032.17563
  24449549.6334    7060619.99145   5501777.99561
  21955800.0084    5751618.86546   4481772.35661
  21823192.094   -13453988.859 7 -10429263.39322
 91  4 17 22 46 15.0000000  0  4G15G 2G19G 6
  24114076.8284    -615583.89245   -409683.71261
  20889227.1484  -13573261.59947 -10576528.41463
  21961179.9144    5779898.60846   4503808.47862
  21817325.836   -13484812.499 7 -10453281.74222
 91  4 17 22 46 30.0000000  0  4G15G 2G19G 6
  24108642.4924    -644105.02445   -431907.80061
  20887651.9144  -13581543.29147 -10582981.64863
  21966576.3984    5808248.78446   4525899.48561
  21811464.383   -13515613.179 7 -10477282.20422
 91  4 17 22 46 45.0000000  0  4G15G 2G19G 6
  24103235.5314    -672551.74045   -454073.91761
  20886085.4384  -13589770.36347 -10589392.31963
  21971983.2664    5836668.95346   4548045.03061
  21805607.4694  -13546391.27747 -10501265.06562
 91  4 17 22 47  0.0000000  0  4G15G 2G19G 6
  24097831.8594    -700921.75444   -476180.23761
  20884530.3914  -13597941.05347 -10595759.06263
  21977407.586     5865160.880 6   4570246.48722
  21799754.8834  -13577144.85547 -10525228.82262
 91  4 17 22 47 15.0000000  0  4G15G 2G19G 6
  24092450.938     -729218.401 5   -498229.39221
  20882985.8754  -13606059.05847 -10602084.75063
  21982840.625     5893721.042 6   4592501.11122
  21793907.3674  -13607877.30747 -10549176.12062
 91  4 17 22 47 30.0000000  0  4G15G 2G19G 6
  24087079.148     -757440.119 4   -520220.17121
  20881451.0394  -13614123.60547 -10608368.78263
  21988290.117     5922350.250 6   4614809.53922
  21788063.1414  -13638587.59847 -10573106.15262
 91  4 17 22 47 45.0000000  0  4G15G 2G19G 6
  24081724.555     -785585.108 5   -542151.18921
  20879926.5084  -13622132.87647 -10614609.74363
  21993748.984     5951050.212 6   4637173.10022
  21782224.3444  -13669273.87047 -10597017.46162
 91  4 17 22 48  0.0000000  0  4G15G 2G19G 6
  24076382.9844    -813655.52244   -564024.06661
  20878412.8984  -13630089.72947 -10620809.85963
  21999226.648     5979818.267 6   4659589.71822
  21776387.8674  -13699938.48447 -10620911.90162
 91  4 17 22 48 15.0000000  0  4G15G 2G19G 6
  24071054.563     -841650.190 4   -585837.95121
  20876909.7664  -13637993.37747 -10626968.51463
  22004712.125     6008655.408 6   4682060.16322
  21770556.7584  -13730580.31847 -10644788.58662
 91  4 17 22 48 30.0000000  0  4G15G 2G19G 6
  24065743.133     -869567.641 5   -607591.64921
  20875415.1954  -13645842.73947 -10633084.87263
  22010214.563     6037562.625 6   4704585.21922
  21764731.3754  -13761198.12247 -10668646.55062
 91  4 17 22 48 45.0000000  0  4G15G 2G19G 6
  24060445.9144    -897407.09745   -629284.59361
  20873932.531   -13653637.414 7 -10639158.61923
  22015727.453     6066540.424 6   4727165.27322
  21758909.9844  -13791791.29447 -10692485.31262
 91  4 17 22 49  0.0000000  0  4G15G 2G19G 6
  24055162.3914    -925166.80845   -650915.40661
  20872459.430   -13661375.968 8 -10645188.63723
  22021258.469     6095590.112 6   4749801.34522
  21753092.4844  -13822358.29947 -10716303.69562
 91  4 17 22 49 15.0000000  0  4G15G 2G19G 6
  24049892.4064    -952850.49145   -672486.96061
  20870997.0864  -13669062.35548 -10651178.00263
  22026796.336     6124707.857 6   4772490.44322
  21747280.0164  -13852902.61547 -10740104.39862
 91  4 17 22 49 30.0000000  0  4G15G 2G19G 6
  24044643.8834    -980455.48445   -693997.23461
  20869544.8594  -13676694.43748 -10657125.04863
  22032351.711     6153895.809 6   4795234.25122
  21741471.5944  -13883421.88547 -10763885.58362
 91  4 17 22 49 45.0000000  0  4G15G 2G19G 6
  24039404.2734   -1007982.70545   -715446.87761
  20868102.3754  -13684273.70348 -10663030.93863
  22037916.742     6183152.448 6   4818031.58422
  21735668.4304  -13913917.25447 -10787648.14462
 91  4 17 22 50  0.0000000  0  4G15G 2G19G 6
  24034180.586    -1035430.448 5   -736834.59721
  20866670.6024  -13691799.03248 -10668894.80863
  22043499.383     6212478.873 6   4840883.29622
  21729870.6724  -13944387.61747 -10811391.21962
 91  4 17 22 50 15.0000000  0  4G15G 2G19G 6
  24028974.4924   -1062790.65145   -758154.10061
  20865249.5004  -13699262.72247 -10674710.63163
  22049093.4534    6241883.18546   4863795.69062
  21724079.1024  -13974824.76847 -10835108.41462
 91  4 17 22 50 30.0000000  0  4G15G 2G19G 6
  24023784.164    -1090071.731 5   -779411.96621
  20863838.805   -13706673.585 7 -10680485.30223
  22054704.156     6271356.387 6   4886761.77022
  21718291.1644  -14005237.25547 -10858806.39362
 91  4 17 22 50 45.0000000  0  4G15G 2G19G 6
  24018608.0784   -1117272.00345   -800606.85361
  20862438.7894  -13714030.46347 -10686217.90563
  22060323.1724    6300899.92046   4909782.65162
  21712509.2894  -14035623.79747 -10882484.15362
 91  4 17 22 51  0.0000000  0  4G15G 2G19G 6
  24013445.211    -1144391.925 5   -821739.12521
  20861049.336   -13721333.963 7 -10691908.91423
  22065961.367     6330513.028 6   4932857.74822
  21706731.4224  -14065984.60747 -10906141.85862
 91  4 17 22 51 15.0000000  0  4G15G 2G19G 6
  24008299.086    -1171431.491 5   -842808.78821
  20859669.9694  -13728584.48947 -10697558.64663
  22071608.555     6360195.559 6   4955986.94822
  21700958.9304  -14096319.92447 -10929779.69862
 91  4 17 22 51 30.0000000  0  4G15G 2G19G 6
  24003166.516    -1198393.331 5   -863817.87221
  20858299.1024  -13735785.28448 -10703169.62763
  22077271.1484    6389944.39246   4979167.79562
  21695190.7974  -14126632.58447 -10953399.89662
 91  4 17 22 51 45.0000000  0  4G15G 2G19G 6
  23998050.6334   -1225270.69845   -884761.13161
  20856939.9304  -13742929.74648 -10708736.71063
  22082945.156     6419765.901 6   5002405.28522
  21689428.1174  -14156915.98847 -10976997.28262
 91  4 17 22 52  0.0000000  0  4G15G 2G19G 6
  23992954.656    -1252064.990 5   -905639.67521
  20855590.6564  -13750019.61048 -10714261.25163
  22088634.352     6449658.375 6   5025698.07021
  21683670.1024  -14187171.42847 -11000572.88062
 91  4 17 22 52 15.0000000  0  4G15G 2G19G 6
  23987874.188    -1278777.515 5   -926454.49021
  20854251.0634  -13757056.71848 -10719744.68663
  22094334.625     6479620.040 6   5049044.77222
  21677919.1334  -14217400.65047 -11024128.05662
 91  4 17 22 52 30.0000000  0  4G15G 2G19G 6
  23982803.0704   -1305406.30845   -947204.06761
  20852923.0234  -13764039.80248 -10725186.02163
  22100050.828     6509652.231 6   5072446.42721
  21672170.2424  -14247601.95647 -11047661.47162
 91  4 17 22 52 45.0000000  0  4G15G 2G19G 6
  23977752.8444   -1331950.81745   -967887.97661
  20851604.6334  -13770968.55648 -10730585.02363
  22105778.578     6539755.421 6   5095903.40622
  21666428.0944  -14277774.73847 -11071172.66662
 91  4 17 22 53  0.0000000  0  4G15G 2G19G 6
  23972717.461    -1358413.417 5   -988508.04721
  20850295.9384  -13777845.65148 -10735943.76663
  22111521.695     6569926.722 6   5119413.45922
  21660691.7034  -14307921.53047 -11094663.60662
 91  4 17 22 53 15.0000000  0  4G15G 2G19G 6
  23967696.2584   -1384789.98145  -1009061.09861
  20848997.5164  -13784667.50548 -10741259.47263
  22117273.7974    6600169.81846   5142979.45861
  21654960.0474  -14338038.41047 -11118131.23462
 91  4 17 22 53 30.0000000  0  4G15G 2G19G 6
  23962695.852    -1411080.448 5  -1029547.04421
  20847709.7664  -13791434.45148 -10746532.38763
  22123048.031     6630484.538 6   5166601.26822
  21649235.766   -14368125.374 7 -11141575.54722
 91  4 17 22 53 45.0000000  0  4G15G 2G19G 6
  23957706.953    -1437286.164 5  -1049966.97021
  20846431.8054  -13798148.18047 -10751763.83763
  22128824.4304    6660869.36246   5190277.69761
  21643516.8204  -14398183.97547 -11164997.76262
 91  4 17 22 54  0.0000000  0  4G15G 2G19G 6
  23952737.078    -1463403.744 5  -1070318.19121
  20845165.188   -13804805.782 7 -10756951.55123
  22134623.7894    6691327.08146   5214010.93161
  21637801.1644  -14428210.96347 -11188395.34262
 91  4 17 22 54 15.0000000  0  4G15G 2G19G 6
  23947781.8444   -1489436.80245  -1090603.56661
  20843908.531   -13811411.375 8 -10762098.74623
  22140428.094     6721853.642 6   5237797.81222
  21632092.2814  -14458210.31747 -11211771.39762
 91  4 17 22 54 30.0000000  0  4G15G 2G19G 6
  23942845.7974   -1515382.86245  -1110821.14661
  20842661.4614  -13817962.97547 -10767203.86163
  22146254.828     6752451.258 6   5261640.05422
  21626389.3754  -14488179.54847 -11235123.97662
 91  4 17 22 54 45.0000000  0  4G15G 2G19G 6
  23937925.500    -1541238.863 5  -1130968.55021
  20841425.883   -13824457.716 7 -10772264.67423
  22152089.2734    6783122.46246   5285539.63861
  21620692.3134  -14518115.70947 -11258450.78762
 91  4 17 22 55  0.0000000  0  4G15G 2G19G 6
  23933019.852    -1567009.069 5  -1151049.07321
  20840199.164   -13830900.257 8 -10777284.81123
  22157940.7894    6813862.93846   5309493.19961
  21615001.6564  -14548023.08947 -11281755.17562
 91  4 17 22 55 15.0000000  0  4G15G 2G19G 6
  23928134.242    -1592691.289 5  -1171061.05021
  20838984.180   -13837288.665 8 -10782262.76723
  22163801.5084    6844674.37646   5333502.05561
  21609316.6644  -14577899.53447 -11305035.45562
 91  4 17 22 55 30.0000000  0  4G15G 2G19G 6
  23923264.453    -1618285.331 5  -1191004.33321
  20837777.9694  -13843623.34748 -10787198.85663
  22169679.523     6875556.674 6   5357566.13421
  21603635.9144  -14607745.11247 -11328291.68962
 91  4 17 22 55 45.0000000  0  4G15G 2G19G 6
  23918412.3054   -1643789.31845  -1210877.42361
  20836584.375   -13849902.848 8 -10792091.94823
  22175569.016     6906511.043 6   5381686.36521
  21597962.8364  -14637558.22947 -11351522.61762
 91  4 17 22 56  0.0000000  0  4G15G 2G19G 6
  23913575.0314   -1669204.38345  -1230681.23461
  20835398.242   -13856128.380 8 -10796942.98823
  22181473.258     6937536.326 6   5405861.85321
  21592296.8594  -14667339.91147 -11374729.06462
 91  4 17 22 56 15.0000000  0  4G15G 2G19G 6
  23908752.211    -1694535.283 5  -1250419.46221
  20834222.906   -13862305.337 8 -10801756.17723
  22187388.195     6968627.425 6   5430088.63421
  21586633.9844  -14697095.07947 -11397914.84662
 91  4 17 22 56 30.0000000  0  4G15G 2G19G 6
  23903948.633    -1719779.753 5  -1270090.34921
  20833057.289   -13868431.637 8 -10806529.88923
  22193322.469     6999786.313 6   5454368.23621
  21580977.1024  -14726821.43247 -11421078.17562
 91  4 17 22 56 45.0000000  0  4G15G 2G19G 6
  23899161.398    -1744930.447 5  -1289688.17021
  20831902.266   -13874500.603 8 -10811258.92823
  22199261.680     7031019.917 6   5478706.05621
  21575327.7424  -14756512.01547 -11444213.63162
 91  4 17 22 57  0.0000000  0  4G15G 2G19G 6
  23894394.820    -1769990.791 5  -1309215.56221
  20830757.453   -13880515.977 8 -10815946.20623
  22205220.750     7062324.396 6   5503099.09721
  21569682.9844  -14786170.23747 -11467323.87362
 91  4 17 22 57 15.0000000  0  5G15G 2G13G19G 6
  23889643.3444   -1794955.92445  -1328668.78761
  20829625.047   -13886473.363 8 -10820588.29923
  23999553.3674         -0.93154
  22211189.844     7093704.075 6   5527550.74321
  21564047.2664  -14815791.54047 -11490405.34562
 91  4 17 22 57 30.0000000  0  5G15G 2G13G19G 6
  23884907.6254   -1819830.69145  -1348051.58261
  20828499.781   -13892378.145 8 -10825189.40223
  23988066.4144     -60357.74144
  22217178.086     7125153.614 6   5552056.82021
  21558416.648   -14845380.899 7 -11513461.93722
 91  4 17 22 57 45.0000000  0  5G15G 2G13G19G 6
  23880192.0704   -1844611.64845  -1367361.28261
  20827387.7274  -13898227.20848 -10829747.08963
  23976584.3444    -120682.49544
  22223174.727     7156676.266 6   5576619.87121
  21552791.8204  -14874934.90547 -11536490.97262
 91  4 17 22 58  0.0000000  0  5G15G 2G13G19G 6
  23875494.117    -1869300.854 5  -1386599.49021
  20826284.9304  -13904022.94248 -10834263.21263
  23965114.148     -180977.257 4
  22229188.070     7188269.707 6   5601238.08521
  21547174.3134  -14904455.68347 -11559494.10962
 91  4 17 22 58 15.0000000  0  5G15G 2G13G19G 6
  23870815.0864   -1893896.76445  -1405765.00961
  20825191.734   -13909764.144 7 -10838736.85323
  23953646.586     -241240.162 4        -0.34731
  22235210.4774    7219935.06246   5625912.32561
  21541562.7344  -14933941.88247 -11582470.31262
 91  4 17 22 58 30.0000000  0  5G15G 2G13G19G 6
  23866154.8364   -1918399.28045  -1424857.74561
  20824109.6414  -13915450.86347 -10843168.03263
  23942184.5164    -301471.01744    -46933.09961
  22241253.6094    7251672.34646   5650642.62561
  21535959.1564  -14963393.32447 -11605419.42462
 91  4 17 22 58 45.0000000  0  5G15G 2G13G19G 6
  23861505.3984   -1942809.76445  -1443878.77661
  20823037.086   -13921085.162 7 -10847558.37223
  23930726.609     -361671.612 4
  22247306.0164    7283479.42846   5675427.29361
  21530361.078   -14992811.672 7 -11628342.76222
 91  4 17 22 59  0.0000000  0  5G15G 2G13G19G 6
  23856879.797    -1967131.984 5  -1462831.01921
  20821974.773   -13926671.075 7 -10851911.00723
  23919274.094     -421845.421 5
  22253369.344     7315352.351 6   5700263.28921
  21524768.0474  -15022200.78247 -11651243.30362
 91  4 17 22 59 15.0000000  0  5G15G 2G13G19G 6
  23852268.281    -1991359.311 5  -1481709.32421
  20820921.4454  -13932202.48647 -10856221.16863
  23907830.1884    -481985.65045
  22259449.0314    7347297.36646   5725155.45061
  21519182.578   -15051554.137 7 -11674115.99222
 91  4 17 22 59 30.0000000  0  5G15G 2G13G19G 6
  23847674.438    -2015492.896 5  -1500514.57621
  20819879.6724  -13937680.96047 -10860490.08363
  23896392.6564    -542093.68244        -0.37371
  22265542.9774    7379313.01746   5750102.65261
  21513603.4304  -15080873.11547 -11696961.89062
 91  4 17 22 59 45.0000000  0  5G15G 2G13G19G 6
  23843100.6174   -2039533.71045  -1519247.55161
  20818846.656   -13943107.653 7 -10864718.64523
  23884957.3364    -602170.34344    -46812.98961
  22271646.6484    7411397.93246   5775103.82661
  21508029.594   -15110158.562 7 -11719781.66722
 91  4 17 23  0  0.0000000  0  5G15G 2G13G19G 6
  23838543.813    -2063484.159 5  -1537910.10921
  20817823.641   -13948485.382 7 -10868909.06023
  23873531.3054    -662217.92144    -93602.95461
  22277767.2114    7443549.45946   5800156.90061
  21502462.477   -15139412.949 7 -11742577.23622
 91  4 17 23  0 15.0000000  0  5G15G 2G13G19G 6
  23834005.1174   -2087339.63245  -1556498.66261
  20816809.945   -13953809.923 7 -10873058.02723
  23862114.4844    -722231.59544
  22283894.9844    7475771.74746   5825265.12061
  21496902.906   -15168631.798 7 -11765345.11522
 91  4 17 23  0 30.0000000  0  5G15G 2G13G19G 6
  23829484.1644   -2111094.35345  -1575008.70661
  20815808.422   -13959075.836 8 -10877161.30923
  23850699.5474    -782205.75144
  22290044.8444    7508070.12546   5850432.62661
  21491350.0634  -15197809.45647 -11788080.89262
 91  4 17 23  0 45.0000000  0  5G15G 2G13G19G 6
  23824982.898    -2134752.969 5  -1593443.85621
  20814817.1804  -13964288.50848 -10881223.10563
  23839293.1644    -842144.90044
  22296202.8834    7540439.53746   5875655.48361
  21485804.6564  -15226950.87547 -11810788.43862
 91  4 17 23  1  0.0000000  0  5G15G 2G13G19G 6
  23820497.469    -2158316.103 5  -1611804.60721
  20813834.516   -13969448.835 8 -10885244.11323
  23827892.8054    -902049.68244
  22302378.7114    7572879.19446   5900933.07361
  21480266.4304  -15256056.72647 -11833468.26462
 91  4 17 23  1 15.0000000  0  5G15G 2G13G19G 6
  23816031.742    -2181780.971 5  -1630088.79021
  20812862.859   -13974554.163 8 -10889222.26623
  23816503.0554    -961917.01444        -0.40871
  22308562.313     7605391.412 6   5926267.20121
  21474734.2974  -15285124.12947 -11856118.12862
 91  4 17 23  1 30.0000000  0  5G15G 2G13G19G 6
  23811587.0704   -2205150.50645  -1648298.70161
  20811900.5554  -13979608.07647 -10893160.35163
  23805111.875    -1021750.299 4    -46623.40321
  22314767.2034    7637972.50246   5951654.99761
  21469209.8594  -15314156.41047 -11878740.62162
 91  4 17 23  1 45.0000000  0  5G15G 2G13G19G 6
  23807155.172    -2228422.279 5  -1666432.43921
  20810949.820   -13984608.364 7 -10897056.65623
  23793735.4844   -1081546.67844    -93217.64861
  22320975.4614    7670625.06946   5977098.50061
  21463693.1174  -15343151.06547 -11901333.79762
 91  4 17 23  2  0.0000000  0  5G15G 2G13G19G 6
  23802747.383    -2251592.983 5  -1684487.40721
  20810009.016   -13989552.213 7 -10900908.98023
  23782360.688    -1141302.984 4   -139780.66321
  22327204.9774    7703352.03746   6002599.96861
  21458182.5164  -15372104.94647 -11923895.19762
 91  4 17 23  2 15.0000000  0  5G15G 2G13G19G 6
  23798358.4454   -2274665.21345  -1702465.64261
  20809077.773   -13994442.362 7 -10904719.46223
  23770997.945    -1201021.496 4   -186314.17521
  22333444.000     7736150.464 6   6028157.13021
  21452680.4694  -15401020.57747 -11946426.79862
 91  4 17 23  2 30.0000000  0  5G15G 2G13G19G 6
  23793983.547    -2297639.892 5  -1720367.87521
  20808156.977   -13999280.246 7 -10908489.21923
  23759642.547    -1260702.982 4   -232818.87721
  22339699.4304    7769018.82046   6053768.77061
  21447184.8834  -15429899.11747 -11968929.49562
 91  4 17 23  2 45.0000000  0  5G15G 2G13G19G 6
  23789631.2734   -2320513.84145  -1738191.61561
  20807247.563   -14004062.844 7 -10912215.90023
  23748289.742    -1320344.229 4   -279292.23221
  22345968.4694    7801960.22446   6079437.34361
  21441697.1094  -15458737.23547 -11991400.69762
 91  4 17 23  3  0.0000000  0  5G15G 2G13G19G 6
  23785295.094    -2343288.400 5  -1755937.91621
  20806347.367   -14008792.016 7 -10915900.94923
  23736951.391    -1379946.697 4   -325735.37221
  22352251.8054    7834972.95146   6105161.48561
  21436216.7114  -15487536.41647 -12013841.55362
 91  4 17 23  3 15.0000000  0  5G15G 2G13G19G 6
  23780981.0784   -2365963.51045  -1773606.70261
  20805457.273   -14013468.318 8 -10919544.79423
  23725616.4384   -1439510.45145   -372148.33261
  22358545.6564    7868056.44346   6130940.77361
  21430743.5554  -15516296.90247 -12036252.25462
 91  4 17 23  3 30.0000000  0  5G15G 2G13G19G 6
  23776687.2504   -2388536.32545  -1791195.78561
  20804577.672   -14018089.279 8 -10923145.52523
  23714288.273    -1499032.533 5   -418528.82621
  22364857.641     7901213.238 6   6156777.17321
  21425279.4694  -15545016.00047 -12058630.70662
 91  4 17 23  3 45.0000000  0  5G15G 2G13G19G 6
  23772407.031    -2411008.931 5  -1808706.80021
  20803708.922   -14022657.349 8 -10926705.03723
  23702969.102    -1558515.156 5   -464878.58121
  22371179.1804    7934440.79046   6182668.71261
  21419820.3674  -15573695.89447 -12080978.60862
 91  4 17 23  4  0.0000000  0  5G15G 2G13G19G 6
  23768153.4614   -2433378.02345  -1826137.13761
  20802849.727   -14027169.533 7 -10930221.00423
  23691657.070    -1617954.726 5   -511194.78921
  22377516.9454    7967742.22046   6208617.82061
  21414372.6884  -15602333.23547 -12103293.35362
 91  4 17 23  4 15.0000000  0  5G15G 2G13G19G 6
  23763913.0634   -2455650.19945  -1843491.95861
  20802000.688   -14031632.706 7 -10933698.78123
  23680354.539    -1677357.847 5   -557482.54521
  22383866.8834    8001110.61646   6234619.10961
  21408928.2274  -15630934.71247 -12125580.15162
 91  4 17 23  4 30.0000000  0  5G15G 2G13G19G 6
  23759697.5164   -2477821.46745  -1860768.15561
  20801160.930   -14036043.108 7 -10937135.43623
  23669057.219    -1736720.145 5   -603738.56521
  22390231.8914    8034549.69746   6260675.47461
  21403493.5314  -15659496.23847 -12147835.81762
 91  4 17 23  4 45.0000000  0  5G15G 2G13G19G 6
  23755496.742    -2499890.971 5  -1877965.05421
  20800332.305   -14040400.251 7 -10940530.59223
  23657767.6414   -1796040.83345   -649962.10661
  22396607.1644    8068059.88746   6286787.24561
  21398066.5394  -15688017.04247 -12170059.76162
 91  4 17 23  5  0.0000000  0  5G15G 2G13G19G 6
  23751315.9144   -2521857.37145  -1895081.59661
  20799512.523   -14044703.181 7 -10943883.50223
  23646489.227    -1855318.542 5   -696152.17421
  22402997.7114    8101642.21446   6312955.23361
  21392647.2194  -15716496.02147 -12192251.10162
 91  4 17 23  5 15.0000000  0  5G15G 2G13G19G 6
  23747155.523    -2543719.359 5  -1912116.80721
  20798704.555   -14048951.147 7 -10947193.58323
  23635218.156    -1914551.924 5   -742307.73521
  22409399.977     8135297.370 6   6339179.97321
  21387235.3594  -15744931.99447 -12214408.93662
 91  4 17 23  5 30.0000000  0  5G15G 2G13G19G 6
  23743015.844    -2565481.698 5  -1929074.37021
  20797906.430   -14053149.212 7 -10950464.78023
  23623951.328    -1973745.679 5   -788432.37421
  22415821.1334    8169020.32346   6365457.54161
  21381831.3284  -15773329.80847 -12236537.03762
 91  4 17 23  5 45.0000000  0  5G15G 2G13G19G 6
  23738889.8914   -2587143.82545  -1945953.83161
  20797116.297   -14057297.377 7 -10953697.09723
  23612692.305    -2032899.150 5   -834525.67021
  22422248.9144    8202811.27046   6391788.09261
  21376435.1884  -15801688.90147 -12258634.96862
 91  4 17 23  6  0.0000000  0  5G15G 2G13G19G 6
  23734787.805    -2608701.771 5  -1962752.11421
  20796337.992   -14061391.796 8 -10956887.53123
  23601448.945    -2092008.459 4   -880584.49421
  22428696.195     8236673.990 6   6418174.56821
  21371045.9694  -15830005.42347 -12280699.72562
 91  4 17 23  6 15.0000000  0  5G15G 2G13G19G 6
  23730708.633    -2630151.885 5  -1979466.38921
  20795568.922   -14065429.418 8 -10960033.70323
  23590204.594    -2151070.072 4   -926606.17221
  22435149.1334    8270611.70246   6444619.48061
  21365666.5554  -15858275.85647 -12302728.56862
 91  4 17 23  6 30.0000000  0  5G15G 2G13G19G 6
  23726646.3754   -2651498.62245  -1996100.09561
  20794810.516   -14069414.606 8 -10963139.02123
  23578976.9924   -2210087.93944   -972593.75761
  22441626.383     8304619.804 6   6471119.24221
  21360295.211   -15886504.450 7 -12324724.81522
 91  4 17 23  6 45.0000000  0  5G15G 2G13G19G 6
  23722602.4384   -2672740.09545  -2012651.79061
  20794063.250   -14073345.801 8 -10966202.26723
  23567753.8134   -2269059.86945  -1018545.55161
  22448107.8834    8338699.71146   6497674.95461
  21354931.3594  -15914689.36847 -12346687.03062
 91  4 17 23  7  0.0000000  0  5G15G 2G13G19G 6
  23718581.7034   -2693876.22945  -2029121.38661
  20793325.195   -14077223.461 8 -10969223.79523
  23556539.8984   -2327985.97345  -1064461.63161
  22454607.2504    8372851.06446   6524286.33561
  21349576.1564  -15942830.75547 -12368615.32262
 91  4 17 23  7 15.0000000  0  5G15G 2G13G19G 6
  23714578.3284   -2714908.34445  -2045509.92261
  20792596.367   -14081049.620 8 -10972205.19223
  23545335.4924   -2386867.57645  -1110343.07161
  22461118.1484    8407072.31146   6550952.18561
  21344228.5704  -15970930.09347 -12390510.85262
 91  4 17 23  7 30.0000000  0  5G15G 2G13G19G 6
  23710599.3984   -2735834.26545  -2061815.73061
  20791878.313   -14084822.444 7 -10975145.02823
  23534140.523    -2445702.596 5  -1156188.17421
  22467645.7664    8441364.90946   6577673.62561
  21338889.7274  -15998985.34747 -12412372.02862
 91  4 17 23  7 45.0000000  0  5G15G 2G13G19G 6
  23706634.6804   -2756650.76545  -2078036.25361
  20791171.4064  -14088538.69247 -10978040.77763
  23522952.9614   -2504487.71545  -1201994.41461
  22474186.2424    8475731.85046   6604452.99861
  21333561.0784  -16026993.09447 -12434196.19063
 91  4 17 23  8  0.0000000  0  5G15G 2G13G19G 6
  23702695.9064   -2777360.81845  -2094173.85761
  20790474.6804  -14092201.75147 -10980895.08263
  23511774.578    -2563226.045 5  -1247764.17621
  22480736.8914    8510170.05646   6631287.90261
  21328239.711   -16054956.547 7 -12455985.83823
 91  4 17 23  8 15.0000000  0  5G15G 2G13G19G 6
  23698773.781    -2797965.706 5  -2110229.49221
  20789787.8444  -14095813.23647 -10983709.19863
  23500606.984    -2621918.454 5  -1293498.16421
  22487303.3284    8544677.84146   6658177.02061
  21322925.4384  -16082877.07447 -12477742.03063
 91  4 17 23  8 30.0000000  0  5G15G 2G13G19G 6
  23694871.367    -2818465.770 5  -2126203.46521
  20789109.8594  -14099374.11648 -10986483.88163
  23489444.250    -2680565.342 5  -1339196.70621
  22493884.1334    8579254.19646   6685119.57061
  21317621.680   -16110755.155 7 -12499465.15723
 91  4 17 23  8 45.0000000  0  5G15G 2G13G19G 6
  23690992.844    -2838859.762 5  -2142094.78121
  20788441.2584  -14102883.56548 -10989218.49063
  23478292.1644   -2739165.43245  -1384858.76361
  22500475.9844    8613900.12646   6712116.33961
  21312324.2034  -16138589.59747 -12521154.27563
 91  4 17 23  9  0.0000000  0  5G15G 2G13G19G 6
  23687130.422    -2859148.038 5  -2157903.70721
  20787783.8674  -14106341.91648 -10991913.28163
  23467152.6414   -2797718.81445  -1430484.40561
  22507087.6334    8648615.08645   6739166.90361
  21307037.000   -16166380.494 7 -12542809.46322
 91  4 17 23  9 15.0000000  0  5G15G 2G13G19G 6
  23683287.953    -2879330.375 5  -2173630.10321
  20787135.0004  -14109749.25948 -10994568.32363
  23456020.320    -2856224.965 5  -1476073.26121
  22513702.5554    8683399.11346   6766271.28161
  21301755.5634  -16194127.65647 -12564430.57362
 91  4 17 23  9 30.0000000  0  5G15G 2G13G19G 6
  23679469.6484   -2899405.73745  -2189273.14561
  20786496.8524  -14113105.19148 -10997183.30863
  23444894.125    -2914682.932 5  -1521624.57821
  22520334.9844    8718252.60246   6793429.77961
  21296484.289   -16221830.286 7 -12586016.98322
 91  4 17 23  9 45.0000000  0  5G15G 2G13G19G 6
  23675669.6414   -2919374.09045  -2204832.78261
  20785867.4924  -14116409.82348 -10999758.31363
  23433776.1174   -2973092.84245  -1567138.45861
  22526979.4144    8753175.39746   6820642.28261
  21291221.4774  -16249488.39047 -12607568.69162
 91  4 17 23 10  0.0000000  0  5G15G 2G13G19G 6
  23671887.5704   -2939236.17845  -2220309.63361
  20785248.0634  -14119664.45148 -11002294.36263
  23422669.9144   -3031455.36345  -1612615.39161
  22533641.7424    8788166.26345   6847907.82861
  21285966.914   -16277102.820 7 -12629086.37923
 91  4 17 23 10 15.0000000  0  5G15G 2G13G19G 6
  23668129.977    -2958985.558 5  -2235698.65021
  20784638.8594  -14122862.73948 -11004786.50663
  23411575.516    -3089763.924 5  -1658050.31021
  22540311.3984    8823231.40146   6875231.24861
  21280720.367   -16304667.096 7 -12650564.98123
 91  4 17 23 10 30.0000000  0  5G15G 2G13G19G 6
  23664393.5474   -2978631.62845  -2251007.18261
  20784040.0944  -14126014.30048 -11007242.23563
  23400487.617    -3148027.578 5  -1703450.21621
  22546996.7974    8858361.22446   6902605.07861
  21275482.805   -16332190.433 7 -12672011.67822
 91  4 17 23 10 45.0000000  0  5G15G 2G13G19G 6
  23660674.641    -2998169.610 5  -2266231.47521
  20783450.2274  -14129115.07448 -11009658.39463
  23389409.563    -3206241.726 5  -1748811.57021
  22553695.7974    8893559.92646   6930032.57461
  21270254.305   -16359668.445 7 -12693423.06223
 91  4 17 23 11  0.0000000  0  5G15G 2G13G19G 6
  23656978.188    -3017598.329 5  -2281370.63821
  20782869.8524  -14132164.22848 -11012034.33063
  23378343.734    -3264405.274 5  -1794133.44621
  22560406.4064    8928828.24346   6957514.31461
  21265032.859   -16387100.010 7 -12714798.25123
 91  4 17 23 11 15.0000000  0  5G15G 2G13G19G 6
  23653304.711    -3036917.053 5  -2296424.08421
  20782300.2504  -14135161.07848 -11014369.50763
  23367285.5474   -3322517.11145  -1839415.07261
  22567131.5554    8964166.60746   6985050.63561
  21259822.3674  -16414484.32647 -12736136.62163
 91  4 17 23 11 30.0000000  0  5G15G 2G13G19G 6
  23649646.031    -3056122.553 5  -2311389.30021
  20781739.9534  -14138102.58748 -11016661.55963
  23356235.125    -3380573.676 5  -1884653.62521
  22573869.867     8999578.224 6   7012644.03021
  21254621.2034  -16441818.10947 -12757435.61863
 91  4 17 23 11 45.0000000  0  5G15G 2G13G19G 6
  23646012.9064   -3075221.71545  -2326271.67261
  20781188.5704  -14140996.39548 -11018916.44363
  23345195.609    -3438582.062 5  -1929854.65721
  22580619.070     9035055.523 6   7040288.60421
  21249427.9384  -16469108.39547 -12778700.71663
 91  4 17 23 12  0.0000000  0  5G15G 2G13G19G 6
  23642399.844    -3094209.271 5  -2341067.06121
  20780648.4774  -14143837.78348 -11021130.48463
  23334169.039    -3496537.346 5  -1975014.30921
  22587386.3204    9070603.28945   7067988.09861
  21244243.7894  -16496350.06747 -12799927.93562
 91  4 17 23 12 15.0000000  0  5G15G 2G13G19G 6
  23638808.2894   -3113087.72645  -2355777.43961
  20780117.7424  -14146629.27448 -11023305.63963
  23323146.234    -3554441.794 5  -2020134.34021
  22594164.063     9106218.741 6   7095740.33021
  21239069.6564  -16523545.63247 -12821119.22563
 91  4 17 23 12 30.0000000  0  5G15G 2G13G19G 6
  23635234.867    -3131857.390 5  -2370403.05521
  20779594.9224  -14149371.37448 -11025442.30963
  23312138.1804   -3612295.43945  -2065214.75461
  22600956.1954    9141901.43545   7123544.95161
  21233902.4844  -16550695.34647 -12842274.78662
 91  4 17 23 12 45.0000000  0  5G15G 2G13G19G 6
  23631682.773    -3150515.403 5  -2384941.66621
  20779083.3984  -14152061.59748 -11027538.55363
  23301138.719    -3670095.161 5  -2110253.20021
  22607756.5944    9177654.03046   7151404.05361
  21228745.4144  -16577796.33847 -12863392.38063
 91  4 17 23 13  0.0000000  0  5G15G 2G13G19G 6
  23628153.906    -3169062.783 5  -2399394.05721
  20778580.6484  -14154701.13548 -11029595.30863
  23290151.352    -3727841.654 5  -2155250.16521
  22614575.438     9213475.099 6   7179316.49421
  21223597.0634  -16604849.52247 -12884472.72962
 91  4 17 23 13 15.0000000  0  5G15G 2G13G19G 6
  23624645.0314   -3187501.66045  -2413761.92561
  20778088.3754  -14157292.58648 -11031614.58563
  23279171.4454   -3785537.26045  -2200207.47261
  22621402.5234    9249362.15146   7207280.36361
  21218458.6024  -16631857.23147 -12905517.63662
 91  4 17 23 13 30.0000000  0  5G15G 2G13G19G 6
  23621158.8834   -3205827.26545  -2428041.51661
  20777604.4774  -14159831.62948 -11033593.02863
  23268202.2894   -3843177.23845  -2245121.44661
  22628248.1094    9285319.40146   7235298.93161
  21213327.0784  -16658814.79947 -12926523.47162
 91  4 17 23 13 45.0000000  0  5G15G 2G13G19G 6
  23617692.9064   -3224040.41245  -2442233.49561
  20777131.4144  -14162319.39248 -11035531.51163
  23257243.250    -3900762.274 5  -2289992.58721
  22635101.719     9321345.737 6   7263371.32421
  21208206.8984  -16685722.91647 -12947490.77563
 91  4 17 23 14  0.0000000  0  5G15G 2G13G19G 6
  23614247.9454   -3242142.08445  -2456338.59361
  20776666.7114  -14164757.01948 -11037430.93063
  23246297.688    -3958293.102 5  -2334821.51421
  22641972.219     9357440.088 5   7291496.72021
  21203096.3594  -16712582.50647 -12968420.26263
 91  4 17 23 14 15.0000000  0  5G15G 2G13G19G 6
  23610823.836    -3260129.718 5  -2470354.86121
  20776213.8984  -14167142.47848 -11039289.69963
  23235360.070    -4015767.102 5  -2379606.15221
  22648849.930     9393604.579 6   7319676.77021
  21197994.1564  -16739391.18447 -12989310.07663
 91  4 17 23 14 30.0000000  0  5G15G 2G13G19G 6
  23607425.1564   -3278002.81845  -2484281.85861
  20775770.0704  -14169475.63548 -11041107.71463
  23224432.047    -4073183.995 5  -2424346.29521
  22655747.438     9429838.975 5   7347911.28921
  21192902.8834  -16766148.66347 -13010159.99863
 91  4 17 23 14 45.0000000  0  5G15G 2G13G19G 6
  23604043.398    -3295761.685 5  -2498119.85221
  20775335.6884  -14171756.86448 -11042885.26663
  23213517.0314   -4130543.81045  -2469041.96661
  22662654.969     9466142.932 5   7376200.01121
  21187820.6644  -16792855.14147 -13030970.18163
 91  4 17 23 15  0.0000000  0  5G15G 2G13G19G 6
  23600684.789    -3313410.946 5  -2511872.44221
  20774909.6254  -14173991.19548 -11044626.27663
  23202612.281    -4187851.010 5  -2513696.63621
  22669578.516     9502511.534 5   7404539.11021
  21182747.5944  -16819515.16347 -13051744.16563
 91  4 17 23 15 15.0000000  0  5G15G 2G13G19G 6
  23597346.188    -3330944.355 5  -2525534.75821
  20774495.1334  -14176172.86148 -11046326.24763
  23191717.813    -4245099.228 5  -2558305.33721
  22676509.102     9538950.642 5   7432933.15121
  21177685.3834  -16846122.51647 -13072477.10863
 91  4 17 23 15 30.0000000  0  5G15G 2G13G19G 6
  23594031.461    -3348365.668 5  -2539109.71821
  20774089.5164  -14178305.88048 -11047988.31363
  23180834.3204   -4302292.31145  -2602871.09061
  22683458.4844    9575456.00945   7461378.81861
  21172630.6484  -16872681.08247 -13093172.03563
 91  4 17 23 15 45.0000000  0  5G15G 2G13G19G 6
  23590740.234    -3365673.707 5  -2552596.42321
  20773692.344   -14180389.356 8 -11049611.77523
  23169962.156    -4359428.954 5  -2647392.85721
  22690417.531     9612028.672 5   7489876.93021
  21167585.5554  -16899189.58347 -13113827.94963
 91  4 17 23 16  0.0000000  0  5G15G 2G13G19G 6
  23587467.328    -3382868.738 5  -2565995.07821
  20773305.3914  -14182424.00848 -11051197.19063
  23159100.2274   -4416509.31045  -2691870.76761
  22697389.063     9648667.783 5   7518426.80521
  21162550.9144  -16925648.47647 -13134445.21363
 91  4 17 23 16 15.0000000  0  5G15G 2G13G19G 6
  23584215.273    -3399948.192 5  -2579303.65921
  20772928.453   -14184407.354 8 -11052742.62923
  23148248.164    -4473530.552 5  -2736302.62521
  22704372.906     9685375.924 5   7547030.48021
  21157525.445   -16952054.917 7 -13155021.60323
 91  4 17 23 16 30.0000000  0  5G15G 2G13G19G 6
  23580986.2504   -3416911.69545  -2592521.89061
  20772560.875   -14186339.129 8 -11054247.88423
  23137408.7034   -4530491.91045  -2780687.81361
  22711373.383     9722153.345 5   7575688.14221
  21152511.7194  -16978408.36847 -13175556.70263
 91  4 17 23 16 45.0000000  0  5G15G 2G13G19G 6
  23577781.8984   -3433754.11345  -2605645.76361
  20772202.938   -14188214.741 8 -11055709.37523
  23126582.4224   -4587388.45645  -2825022.50361
  22718384.734     9759004.341 5   7604403.12021
  21147506.547   -17004704.076 7 -13196046.80923
 91  4 17 23 17  0.0000000  0  5G15G 2G13G19G 6
  23574601.242    -3450483.057 5  -2618681.23421
  20771855.102   -14190042.125 8 -11057133.28223
  23115764.867    -4644227.789 5  -2869312.56621
  22725410.547     9795921.066 5   7633169.33121
  21142512.750   -17030949.602 7 -13216497.81723
 91  4 17 23 17 15.0000000  0  5G15G 2G13G19G 6
  23571441.4694   -3467096.11045  -2631626.39361
  20771517.516   -14191819.280 8 -11058518.06023
  23104960.9384   -4701007.67345  -2913556.37861
  22732448.594     9832905.404 5   7661988.21921
  21137527.469   -17057142.717 7 -13236907.98223
 91  4 17 23 17 30.0000000  0  5G15G 2G13G19G 6
  23568302.4454   -3483590.68945  -2644479.22661
  20771189.133   -14193544.149 8 -11059862.09023
  23094165.766    -4757725.332 5  -2957751.64921
  22739498.938     9869959.658 5   7690861.59221
  21132553.797   -17083280.807 7 -13257275.26923
 91  4 17 23 17 45.0000000  0  5G15G 2G13G19G 6
  23565183.391    -3499967.164 5  -2657240.04221
  20770870.781   -14195217.142 8 -11061165.69723
  23083386.4694   -4814380.86445  -3001898.55561
  22746561.2344    9907083.20745   7719788.96561
  21127590.336   -17109364.152 7 -13277599.89723
 91  4 17 23 18  0.0000000  0  5G15G 2G13G19G 6
  23562091.1884   -3516227.67645  -2669910.49361
  20770561.352   -14196840.501 8 -11062430.63423
  23072616.609    -4870976.053 5  -3045998.41821
  22753644.0164    9944273.81345   7748768.59061
  21122637.227   -17135394.676 7 -13297883.36923
 91  4 17 23 18 15.0000000  0  5G15G 2G13G19G 6
  23559016.2194   -3532374.23645  -2682492.16961
  20770262.250   -14198416.643 8 -11063658.77423
  23061857.203    -4927512.842 5  -3090052.75821
  22760731.477     9981528.990 5   7777798.53221
  21117693.1724  -17161374.42347 -13318127.27163
 91  4 17 23 18 30.0000000  0  5G15G 2G13G19G 6
  23555967.0474   -3548401.86745  -2694981.16561
  20769972.023   -14199940.987 8 -11064846.55223
  23051110.8984   -4983986.15445  -3134057.66461
  22767835.836    10018853.261 5   7806882.30421
  21112760.117   -17187298.525 7 -13338327.81223
 91  4 17 23 18 45.0000000  0  5G15G 2G13G19G 6
  23552939.836    -3564311.166 5  -2707377.94921
  20769691.273   -14201414.479 8 -11065994.70623
  23040374.9774   -5040396.75345  -3178013.70061
  22774947.555    10056245.724 5   7836019.21821
  21107837.305   -17213167.668 7 -13358485.53323
 91  4 17 23 19  0.0000000  0  5G15G 2G13G19G 6
  23549934.8754   -3580106.10245  -2719685.62161
  20769420.438   -14202841.194 8 -11067106.41323
  23029650.563    -5096748.429 5  -3221923.81021
  22782080.3914   10093702.19445   7865206.00361
  21102924.875   -17238985.693 7 -13378603.41723
 91  4 17 23 19 15.0000000  0  5G15G 2G13G19G 6
  23546951.3364   -3595784.28145  -2731902.31461
  20769158.352   -14204218.858 8 -11068179.89923
  23018940.6724   -5153038.84245  -3265786.18661
  22789216.469    10131224.978 5   7894444.45721
  21098021.188   -17264750.120 7 -13398679.54423
 91  4 17 23 19 30.0000000  0  5G15G 2G13G19G 6
  23543991.6334   -3611339.85645  -2744023.47261
  20768905.922   -14205542.360 8 -11069211.18223
  23008241.8284   -5209261.75545  -3309595.98061
  22796370.703    10168819.139 5   7923738.53621
  21093129.8524  -17290455.26947 -13418709.47463
 91  4 17 23 19 45.0000000  0  5G15G 2G13G19G 6
  23541050.8054   -3626775.79345  -2756051.39061
  20768663.180   -14206814.574 8 -11070202.49723
  22997553.0164   -5265420.04145  -3353355.40561
  22803538.2664   10206481.54745   7953085.80661
  21088248.0084  -17316103.98647 -13438695.42963
 91  4 17 23 20  0.0000000  0  5G15G 2G13G19G 6
  23538137.414    -3642095.088 5  -2767988.44821
  20768430.531   -14208039.114 8 -11071156.66723
  22986879.1804   -5321516.67545  -3397066.81661
  22810719.5084   10244208.87545   7982483.64661
  21083378.1484  -17341699.39247 -13458639.84263
 91  4 17 23 20 15.0000000  0  5G15G 2G13G19G 6
  23535244.8834   -3657295.48445  -2779832.82661
  20768207.172   -14209213.983 8 -11072072.13023
  22976216.0314   -5377549.32845  -3440728.30061
  22817909.383    10282002.964 5   8011933.50921
  21078518.2894  -17367239.14647 -13478540.89063
 91  4 17 23 20 30.0000000  0  5G15G 2G13G19G 6
  23532375.469    -3672380.284 5  -2791587.14121
  20767992.789   -14210342.540 8 -11072951.50623
  22965564.8754   -5433520.94045  -3484342.28561
  22825114.1254   10319860.44545   8041432.77161
  21073668.297   -17392726.346 7 -13498400.99023
 91  4 17 23 20 45.0000000  0  5G15G 2G13G19G 6
  23529524.3914   -3687344.78545  -2803247.72061
  20767785.641   -14211420.830 8 -11073791.71323
  22954925.7814   -5489427.23145  -3527905.36461
  22832329.3594   10357785.28845   8070984.52661
  21068828.5634  -17418156.62547 -13518216.73563
 91  4 17 23 21  0.0000000  0  5G15G 2G13G19G 6
  23526699.906    -3702190.127 5  -2814815.44521
  20767591.625   -14212449.949 8 -11074593.60323
  22944299.0784   -5545268.73745  -3571417.96561
  22839560.328    10395776.374 5   8100587.88821
  21064000.5944  -17443530.85447 -13537988.80463
 91  4 17 23 21 15.0000000  0  5G15G 2G13G19G 6
  23523898.4694   -3716917.22145  -2826291.03761
  20767404.039   -14213431.164 8 -11075358.16523
  22933684.734    -5601046.212 5  -3614880.64921
  22846800.961    10433832.225 5   8130241.72921
  21059182.0314  -17468849.96647 -13557717.92563
 91  4 17 23 21 30.0000000  0  5G15G 2G13G19G 6
  23521122.078    -3731525.404 5  -2837673.96521
  20767227.289   -14214364.127 8 -11076085.12623
  22923081.9384   -5656759.02345  -3658292.96061
  22854060.422    10471953.271 5   8159946.36621
  21054374.664   -17494113.329 7 -13577403.60723
 91  4 17 23 21 45.0000000  0  5G15G 2G13G19G 6
  23518362.141    -3746013.674 5  -2848963.44821
  20767057.273   -14215248.082 8 -11076773.90223
  22912493.3674   -5712406.37945  -3701654.26361
  22861321.352    10510140.227 5   8189702.35921
  21049577.914   -17519319.920 7 -13597045.05123
 91  4 17 23 22  0.0000000  0  5G15G 2G13G19G 6
  23515627.523    -3760383.718 5  -2860160.81721
  20766899.688   -14216084.625 8 -11077425.73523
  22901915.9694   -5767989.22245  -3744965.29661
  22868600.734    10548391.304 5   8219508.31121
  21044792.141   -17544471.229 7 -13616643.42223
 91  4 17 23 22 15.0000000  0  5G15G 2G13G19G 6
  23512914.3364   -3774636.29545  -2871266.65761
  20766750.133   -14216875.328 7 -11078041.85423
  22891351.086    -5823508.641 5  -3788226.90221
  22875892.367    10586705.010 5   8249363.05921
  21040015.539   -17569568.208 7 -13636199.45623
 91  4 17 23 22 30.0000000  0  5G15G 2G13G19G 6
  23510227.7114   -3788765.88245  -2882276.65961
  20766607.586   -14217614.785 7 -11078618.03623
  22880799.2894   -5878958.99545  -3831434.72961
  22883200.094    10625086.590 5   8279270.70721
  21035250.922   -17594605.394 7 -13655708.89723
 91  4 17 23 22 45.0000000  0  5G15G 2G13G19G 6
  23507560.0314   -3802775.16845  -2893192.91361
  20766475.875   -14218305.767 8 -11079156.44723
  22870260.523    -5934342.561 5  -3874590.48921
  22890511.781    10663533.250 5   8309229.05521
  21030497.359   -17619585.163 7 -13675173.59523
 91  4 17 23 23  0.0000000  0  5G15G 2G13G19G 6
  23504916.1484   -3816662.74545  -2904014.34361
  20766353.594   -14218947.251 7 -11079656.28823
  22859735.266    -5989657.921 5  -3917693.08721
  22897841.961    10702046.096 5   8339238.98721
  21025755.188   -17644506.143 7 -13694592.48723
 91  4 17 23 23 15.0000000  0  5G15G 2G13G19G 6
  23502299.7274   -3830430.65645  -2914742.52061
  20766241.398   -14219541.453 7 -11080119.28223
  22849219.273    -6044906.808 5  -3960743.91821
  22905180.5234   10740622.89445   8369298.73761
  21021024.852   -17669370.159 7 -13713966.99623
 91  4 17 23 23 30.0000000  0  5G15G 2G13G19G 6
  23499701.4224   -3844079.42645  -2925377.86561
  20766135.836   -14220089.563 8 -11080546.36223
  22838716.430    -6100090.171 5  -4003743.68221
  22912537.5474   10779262.37145   8399407.33161
  21016303.734   -17694178.192 7 -13733297.87823
 91  4 17 23 23 45.0000000  0  5G15G 2G13G19G 6
  23497124.0004   -3857604.56445  -2935916.88361
  20766043.367   -14220587.110 8 -11080934.04223
  22828231.2344   -6155203.25445  -4046688.66761
  22919900.4924   10817968.75145   8429568.06961
  21011593.852   -17718925.492 7 -13752581.43723
 91  4 17 23 24  0.0000000  0  5G15G 2G13G19G 6
  23494574.781    -3871006.620 5  -2946359.96621
  20765955.203   -14221035.018 8 -11081283.04223
  22817753.3914   -6210246.25945  -4089579.06461
  22927277.6174   10856741.30145   8459780.35661
  21006895.469   -17743612.574 7 -13771818.07723
 91  4 17 23 24 15.0000000  0  5G15G 2G13G19G 6
  23492051.656    -3884289.068 5  -2956709.86821
  20765879.508   -14221436.719 7 -11081596.03323
  22807293.359    -6265222.481 5  -4132417.43721
  22934669.1024   10895576.31645   8490041.31261
  21002209.000   -17768242.662 7 -13791010.30523
 91  4 17 23 24 30.0000000  0  5G15G 2G13G19G 6
  23489544.102    -3897449.897 5  -2966964.99421
  20765811.195   -14221790.597 8 -11081871.76323
  22796844.1724   -6320129.69545  -4175202.03261
  22942072.9694   10934475.43545   8520352.23261
  20997533.883   -17792813.790 7 -13810156.59223
 91  4 17 23 24 45.0000000  0  5G15G 2G13G19G 6
  23487061.688    -3910486.080 5  -2977122.98421
  20765757.609   -14222094.230 8 -11082108.34223
  22786409.6724   -6374965.14746  -4217930.69361
  22949485.406    10973441.225 5   8550715.10321
  20992869.078   -17817323.124 7 -13829254.72823
 91  4 17 23 25  0.0000000  0  5G15G 2G13G19G 6
  23484606.8754   -3923402.03545  -2987187.30461
  20765705.453   -14222352.023 7 -11082309.19723
  22775988.906    -6429733.019 6  -4260606.71921
  22956912.984    11012469.014 5   8581126.27121
  20988215.883   -17841774.995 7 -13848308.08723
 91  4 17 23 25 15.0000000  0  5G15G 2G13G19G 6
  23482171.570    -3936196.745 5  -2997157.14521
  20765663.688   -14222563.082 7 -11082473.63823
  22765579.9454   -6484432.08246  -4303229.11161
  22964353.3054   11051559.55745   8611586.34761
  20983574.656   -17866168.224 7 -13867315.75123
 91  4 17 23 25 30.0000000  0  5G15G 2G13G19G 6
  23479758.9694   -3948865.71345  -3007029.00861
  20765633.336   -14222723.088 7
  22755182.914    -6539057.500 6  -4345794.12521
  22971805.7194   11090717.21345   8642098.70561
  20978945.320   -17890498.072 7 -13886274.02523
 91  4 17 23 25 45.0000000  0  5G15G 2G13G19G 6
  23477372.9614   -3961407.29145  -3016801.59761
  20765616.180   -14222830.917 7
  22744803.2274   -6593607.49046  -4388300.37161
  22979269.3674   11129943.22545   8672664.34861
  20974327.016   -17914762.963 7 -13905181.68823
 91  4 17 23 26  0.0000000  0  5G15G 2G13G19G 6
  23475009.258    -3973829.927 5  -3026481.50821
  20765603.625   -14222895.108 7
  22734434.242    -6648090.439 6  -4430754.37021
  22986745.2504   11169228.87545   8703276.45261
  20969719.992   -17938971.243 7 -13924045.23723
 91  4 17 23 26 15.0000000  0  5G15G 2G13G19G 6
  23472668.6094   -3986133.78645  -3036068.87161
  20765597.773   -14222916.434 7
  22724080.133    -6702506.956 6  -4473156.61021
  22994231.7974   11208573.39345   8733934.43061
  20965124.477   -17963123.354 7 -13942865.02123
 91  4 17 23 26 30.0000000  0  5G15G 2G13G19G 6
  23470352.6644   -3998310.33145  -3045557.02861
  20765606.836   -14222886.740 7
  22713739.023    -6756848.201 6  -4515500.19321
  23001730.7734   11247984.77945   8764644.50561
  20960540.0784  -17987210.72447 -13961634.35863
 91  4 17 23 26 45.0000000  0  5G15G 2G13G19G 6
  23468055.6564   -4010357.65845  -3054944.49861
  20765619.422   -14222803.753 7
  22703411.8054   -6811111.54146  -4557783.06761
  23009243.2274   11287465.12145   8795408.32361
  20955970.1724  -18011230.96747 -13980351.38863
 91  4 17 23 27  0.0000000  0  5G15G 2G13G19G 6
  23465789.8594   -4022283.41645  -3064237.22661
  20765645.781   -14222675.563 7
  22693100.273    -6865304.805 6  -4600011.35721
  23016770.1804   11327006.40045   8826219.60861
  20951409.234   -18035191.933 7 -13999022.22623
 91  4 17 23 27 15.0000000  0  5G15G 2G13G19G 6
  23463544.906    -4034081.587 5  -3073430.55421
  20765680.2584  -14222496.71747
  22682801.711    -6919421.946 6  -4642180.30521
  23024304.4144   11366614.01045   8857082.59461
  20946862.5784  -18059087.76647 -14017642.31963
 91  4 17 23 27 30.0000000  0  5G15G 2G13G19G 6
  23461322.3524   -4045757.17045  -3082528.34061
  20765723.133   -14222272.190 7
  22672516.867    -6973467.715 6  -4684293.64721
  23031857.0164   11406282.89645   8887993.32161
  20942327.4144  -18082923.05847 -14036215.23163
 91  4 17 23 27 45.0000000  0  5G15G 2G13G19G 6
  23459122.2584   -4057310.48045  -3091530.85461
  20765770.758   -14222002.290 7 -11082036.46923
  22662247.9064   -7027442.09346  -4726351.38561
  23039413.3984   11446012.70945   8918951.52661
  20937803.172   -18106697.836 7 -14054740.98823
 91  4 17 23 28  0.0000000  0  5G15G 2G13G19G 6
  23456947.922    -4068741.845 5  -3100438.35221
  20765833.813   -14221687.982 7 -11081791.53923
  22651988.3674   -7081345.52046  -4768353.80761
  23046988.5554   11485802.51845   8949956.47961
  20933290.766   -18130412.823 7 -14073220.15323
 91  4 17 23 28 15.0000000  0  5G15G 2G13G19G 6
  23454797.0864   -4080047.37146  -3109247.79661
  20765902.945   -14221325.597 7 -11081509.14023
  22641747.094    -7135173.975 6  -4810297.84021
  23054568.6954   11525655.88245   8981010.96061
  20928788.891   -18154063.994 7 -14091649.59723
 91  4 17 23 28 30.0000000  0  5G15G 2G13G19G 6
  23452668.508    -4091228.283 6  -3117960.13521
  20765980.234   -14220916.404 7 -11081190.27523
  22631515.547    -7188928.319 6  -4852184.11021
  23062164.6724   11565571.37345   9012113.85561
  20924300.188   -18177652.320 7 -14110030.06923
 91  4 17 23 28 45.0000000  0  5G15G 2G13G19G 6
  23450563.8754   -4102281.03445  -3126572.60461
  20766065.258   -14220457.297 7 -11080832.51123
  22621301.117    -7242604.999 6  -4894009.86121
  23069772.3204   11605552.28545   9043267.71961
  20919823.977   -18201174.288 7 -14128358.83023
 91  4 17 23 29  0.0000000  0  5G15G 2G13G19G 6
  23448486.5234   -4113207.73545  -3135086.85861
  20766163.914   -14219950.538 7 -11080437.61623
  22611101.9384   -7296206.16446  -4935776.76661
  23077394.3834   11645595.98845   9074470.51961
  20915360.391   -18224631.930 7 -14146637.46923
 91  4 17 23 29 15.0000000  0  5G15G 2G13G19G 6
  23446428.898    -4124008.792 5  -3143503.20121
  20766270.055   -14219396.886 7 -11080006.18123
  22600916.711    -7349732.058 6  -4977485.02121
  23085026.9534   11685701.61845   9105721.56561
  20910908.9844  -18248025.84947 -14164866.46163
 91  4 17 23 29 30.0000000  0  5G15G 2G13G19G 6
  23444400.672    -4134687.482 6  -3151824.19921
  20766383.258   -14218799.716 7 -11079540.83723
  22590744.9844   -7403185.63446  -5019136.94061
  23092670.469    11725865.825 5   9137018.26321
  20906468.445   -18271358.886 7 -14183048.00623
 91  4 17 23 29 45.0000000  0  5G15G 2G13G19G 6
  23442388.0084   -4145241.99346  -3160048.43761
  20766502.984   -14218157.409 7 -11079040.32023
  22580585.1024   -7456564.86346  -5060730.92661
  23100322.7584   11766090.15445   9168361.80561
  20902040.297   -18294629.300 7 -14201180.75423
 91  4 17 23 30  0.0000000  0  5G15G 2G13G19G 6
  23440403.3364   -4155668.29045  -3168172.76561
  20766637.008   -14217466.044 7 -11078501.57823
  22570442.2274   -7509865.36746  -5102263.56761
  23107991.2664   11806378.54945   9199755.26861
  20897624.539   -18317832.748 7 -14219261.32023
 91  4 17 23 30 15.0000000  0  5G15G 2G13G19G 6
  23438444.453    -4165966.067 6  -3176196.93921
  20766777.250   -14216725.630 7 -11077924.61523
  22560313.453    -7563087.047 6  -5143734.76721
  23115667.6884   11846730.95645   9231198.61761
  20893222.688   -18340968.985 7 -14237289.51323
 91  4 17 23 30 30.0000000  0  5G15G 2G13G19G 6
  23436511.477    -4176136.125 6  -3184121.60621
  20766928.109   -14215937.147 7 -11077310.19723
  22550200.828    -7616230.374 6  -5185144.92621
  23123362.1254   11887146.27845   9262690.97961
  20888832.055   -18364038.645 7 -14255265.83023
 91  4 17 23 30 45.0000000  0  5G15G 2G13G19G 6
  23434600.3284   -4186178.60646  -3191946.85161
  20767084.695   -14215101.157 7 -11076658.76023
  22540104.563    -7669295.688 6  -5226494.29021
  23131062.5944   11927623.82845   9294231.82861
  20884454.258   -18387042.004 7 -14273190.48523
 91  4 17 23 31  0.0000000  0  5G15G 2G13G19G 6
  23432711.445    -4196096.256 5  -3199674.83321
  20767253.867   -14214220.554 7 -11075972.55823
  22530020.148    -7722285.500 6  -5267784.84221
  23138782.3134   11968160.71445   9325818.92061
  20880089.320   -18409981.609 7 -14291065.46023
 91  4 17 23 31 15.0000000  0  5G15G 2G13G19G 6
  23430849.984    -4205884.720 5  -3207302.15621
  20767429.672   -14213291.292 7 -11075248.44223
  22519948.500    -7775195.282 6  -5309013.03021
  23146504.406    12008760.892 5   9357455.33321
  20875737.570   -18432853.192 7 -14308887.42923
 91  4 17 23 31 30.0000000  0  5G15G 2G13G19G 6
  23429013.4224   -4215540.63046  -3214826.18161
  20767617.367   -14212310.428 7 -11074484.11623
  22509898.9774   -7828021.61746  -5350176.19961
  23154244.8204   12049427.13845   9389143.22061
  20871398.2274  -18455653.37947 -14326653.76763
 91  4 17 23 31 45.0000000  0  5G15G 2G13G19G 6
  23427197.398    -4225070.467 5  -3222251.98321
  20767812.453   -14211284.379 7 -11073684.58323
  22499857.555    -7880770.503 6  -5391278.99821
  23161990.7584   12090152.82345   9420877.41861
  20867072.250   -18478388.371 7 -14344369.30023
 91  4 17 23 32  0.0000000  0  5G15G 2G13G19G 6
  23425411.8834   -4234473.92146  -3229579.29661
  20768016.602   -14210213.036 7 -11072849.75623
  22489835.273    -7933441.532 6  -5432321.14221
  23169753.109    12130938.221 5   9452658.15321
  20862758.086   -18501057.766 7 -14362033.72023
 91  4 17 23 32 15.0000000  0  5G15G 2G13G19G 6
  23423643.1024   -4243751.83545  -3236808.78961
  20768227.430   -14209097.230 7 -11071980.27923
  22479829.266    -7986035.231 6  -5473303.02221
  23177525.7974   12171782.26045   9484484.58161
  20858456.414   -18523662.105 7 -14379647.44623
 91  4 17 23 32 30.0000000  0  5G15G 2G13G19G 6
  23421904.219    -4252903.449 6  -3243939.86221
  20768448.289   -14207936.709 7 -11071075.95923
  22469835.4384   -8038551.06046  -5514224.25461
  23185311.1644   12212685.33345   9516356.99761
  20854166.891   -18546200.679 7 -14397209.92723
 91  4 17 23 32 45.0000000  0  5G15G 2G13G19G 6
  23420183.078    -4261929.301 5  -3250972.94121
  20768678.508   -14206732.197 7 -11070137.36323
  22459856.3134   -8090989.43046  -5555085.11161
  23193103.6564   12253646.60945   9548274.78161
  20849891.1174  -18568674.01347 -14414721.57563
 91  4 17 23 33  0.0000000  0  5G15G 2G13G19G 6
  23418489.789    -4270828.968 5  -3257907.69821
  20768914.945   -14205483.616 7 -11069164.43123
  22449892.3284   -8143349.86446  -5595885.25061
  23200910.5394   12294665.90945   9580237.77761
  20845627.750   -18591081.687 7 -14432182.05623
 91  4 17 23 33 15.0000000  0  5G15G 2G13G19G 6
  23416821.6954   -4279599.39145  -3264741.73361
  20769162.594   -14204188.106 7 -11068154.92423
  22439941.922    -8195629.187 6  -5636622.18621
  23208725.4064   12335746.01745   9612248.14761
  20841376.578   -18613420.648 7 -14449588.99323
 91  4 17 23 33 30.0000000  0  5G15G 2G13G19G 6
  23415176.109    -4288247.776 5  -3271480.68921
  20769416.469   -14202852.886 7 -11067114.47623
  22430009.4614   -8247834.01246  -5677301.06461
  23216553.5234   12376879.86845   9644300.40261
  20837136.344   -18635697.681 7 -14466947.67423
 91  4 17 23 33 45.0000000  0  5G15G 2G13G19G 6
  23413554.680    -4296766.434 5  -3278118.56221
  20769679.898   -14201470.510 7 -11066037.28323
  22420089.883    -8299956.741 6  -5717915.98021
  23224392.047    12418074.708 5   9676400.16821
  20832911.406   -18657905.064 7 -14484252.08423
 91  4 17 23 34  0.0000000  0  5G15G 2G13G19G 6
  23411959.172    -4305153.654 5  -3284654.00721
  20769952.078   -14200039.533 7 -11064922.22223
  22410187.219    -8351995.393 6  -5758465.37721
  23232247.055    12459331.668 5   9708548.33421
  20828698.578   -18680041.003 7 -14501500.82223
 91  4 17 23 34 15.0000000  0  5G15G 2G13G19G 6
  23410388.711    -4313412.225 5  -3291089.21221
  20770233.141   -14198562.838 7 -11063771.53423
  22400301.1644   -8403952.51546  -5798951.25061
  23240105.797    12500647.953 5   9740742.74021
  20824499.125   -18702108.213 7 -14518696.00223
 91  4 17 23 34 30.0000000  0  5G15G 2G13G19G 6
  23408837.8524   -4321542.52145  -3297424.45161
  20770522.516   -14197041.023 7 -11062585.68823
  22390428.3134   -8455828.35946  -5839373.79161
  23247983.320    12542022.714 5   9772982.71821
  20820312.820   -18724106.958 7 -14535837.83723
 91  4 17 23 34 45.0000000  0  5G15G 2G13G19G 6
  23407317.5394   -4329545.76045  -3303660.67461
  20770820.438   -14195475.459 7 -11061365.75023
  22380572.945    -8507623.948 6  -5879733.80221
  23255864.9384   12583454.70945   9805267.26361
  20816138.922   -18746038.363 7 -14552927.20123
 91  4 17 23 35  0.0000000  0  5G15G 2G13G19G 6
  23405817.156    -4337421.753 5  -3309797.76321
  20771126.109   -14193866.101 7 -11060111.68723
  22370731.3754   -8559338.99446  -5920031.06061
  23263764.469    12624943.863 5   9837596.36621
  20811978.570   -18767901.993 7 -14569963.75123
 91  4 17 23 35 15.0000000  0  5G15G 2G13G19G 6
  23404345.563    -4345163.512 5  -3315830.25421
  20771442.578   -14192206.279 7 -11058818.30323
  22360905.695    -8610966.606 6  -5960260.17021
  23271664.6024   12666496.55745   9869974.99061
  20807832.953   -18789690.924 7 -14586942.09623
 91  4 17 23 35 30.0000000  0  5G15G 2G13G19G 6
  23402898.1724   -4352774.61945  -3321760.92261
  20771767.320   -14190499.748 7 -11057488.52423
  22351097.9144   -8662509.94246  -6000423.61561
  23279586.992    12708109.026 5   9902400.18921
  20803699.539   -18811408.456 7 -14603864.80523
 91  4 17 23 35 45.0000000  0  5G15G 2G13G19G 6
  23401474.227    -4360257.859 5  -3327591.97721
  20772099.789   -14188749.558 7 -11056124.72623
  22341305.734    -8713971.698 6  -6040523.50221
  23287514.2734   12749778.21745   9934869.59061
  20799581.1954  -18833057.35247 -14620734.03063
 91  4 17 23 36  0.0000000  0  5G15G 2G13G19G 6
  23400073.484    -4367611.375 5  -3333321.93821
  20772441.469   -14186954.169 7 -11054725.70723
  22331527.5474   -8765349.76146  -6080558.17161
  23295457.4844   12791505.64245   9967384.35761
  20795474.422   -18854635.818 7 -14637548.37523
 91  4 17 23 36 15.0000000  0  5G15G 2G13G19G 6
  23398700.109    -4374835.120 5  -3338950.77221
  20772792.070   -14185113.646 7 -11053291.51823
  22321766.227    -8816643.934 6  -6120527.49621
  23303407.719    12833291.156 5   9999944.37921
  20791381.3284  -18876143.68447 -14654307.71163
 91  4 17 23 36 30.0000000  0  5G15G 2G13G19G 6
  23397348.1884   -4381931.15545  -3344480.10161
  20773150.086   -14183229.922 7 -11051823.67023
  22312022.1804   -8867855.79246  -6160432.65761
  23311371.102    12875132.761 5  10032548.13421
  20787301.594   -18897582.566 7 -14671013.29123
 91  4 17 23 36 45.0000000  0  5G15G 2G13G19G 6
  23396025.273    -4388895.713 5  -3349906.98121
  20773517.867   -14181299.832 7 -11050319.68623
  22302291.3834   -8918981.89446  -6200270.99261
  23319339.750    12917033.700 5  10065198.09721
  20783235.4844  -18918948.91947 -14687662.35763
 91  4 17 23 37  0.0000000  0  5G15G 2G13G19G 6
  23394721.078    -4395730.728 5  -3355232.91621
  20773893.273   -14179325.221 7 -11048781.01423
  22292579.430    -8970023.824 6  -6240043.73921
  23327328.4064   12958991.80145  10097892.61861
  20779183.078   -18940244.280 7 -14704256.10323
 91  4 17 23 37 15.0000000  0  5G15G 2G13G19G 6
  23393447.109    -4402430.329 5  -3360453.33421
  20774279.969   -14177300.466 7 -11047203.26523
  22282883.000    -9020975.663 6  -6279746.31121
  23335323.2274   13001012.37145  10130635.80361
  20775144.867   -18961462.832 7 -14720789.99823
 91  4 17 23 37 30.0000000  0  5G15G 2G13G19G 6
  23392193.1564   -4409002.14645  -3365574.17461
  20774672.250   -14175233.298 7 -11045592.47123
  22273203.766    -9071844.720 6  -6319384.37121
  23343332.383    13043087.617 5  10163421.60721
  20771121.2664  -18982611.95647 -14737269.79563
 91  4 17 23 37 45.0000000  0  5G15G 2G13G19G 6
  23390973.961    -4415442.051 5  -3370592.23721
  20775074.438   -14173119.745 7 -11043945.53123
  22263538.8284   -9122626.71846  -6358954.59161
  23351346.609    13085221.620 5  10196253.18621
  20767110.5864  -19003687.39247 -14753692.17663
 91  4 17 23 38  0.0000000  0  5G15G 2G13G19G 6
  23389769.6254   -4421750.80745  -3375508.09361
  20775484.883   -14170960.875 7 -11042263.28323
  22253893.859    -9173322.394 6  -6398457.55621
  23359378.5864   13127413.18945  10229129.60961
  20763113.7194  -19024689.77547 -14770057.63763
 91  4 17 23 38 15.0000000  0  5G15G 2G13G19G 6
  23388598.3054   -4427928.23245  -3380321.61961
  20775903.641   -14168756.626 7 -11040545.67323
  22244262.414    -9223931.343 6  -6437892.92421
  23367417.3524   13169662.22145  10262050.81761
  20759131.3594  -19045618.90847 -14786366.01163
 91  4 17 23 38 30.0000000  0  5G15G 2G13G19G 6
  23387442.547    -4433973.046 5  -3385031.81421
  20776333.633   -14166505.987 7 -11038791.91823
  22234647.336    -9274452.075 6  -6477259.56521
  23375470.133    13211969.568 5  10295017.47121
  20755162.4304  -19066473.51047 -14802616.31463
 91  4 17 23 38 45.0000000  0  5G15G 2G13G19G 6
  23386318.805    -4439888.501 5  -3389641.19221
  20776769.672   -14164212.447 7 -11037004.72923
  22225049.953    -9324887.858 6  -6516559.99921
  23383529.047    13254331.801 5  10328026.88321
  20751207.8284  -19087256.71347 -14818810.97663
 91  4 17 23 39  0.0000000  0  5G15G 2G13G19G 6
  23385218.055    -4445671.773 5  -3394147.59521
  20777214.086   -14161873.393 7 -11035182.07123
  22215467.8984   -9375235.70046  -6555791.92461
  23391606.008    13296751.498 5  10361081.09721
  20747266.9924  -19107965.45247 -14834947.61763
 91  4 17 23 39 15.0000000  0  5G15G 2G13G19G 6
  23384144.055    -4451321.768 5  -3398550.15221
  20777667.148   -14159487.651 7 -11033323.04223
  22205903.9304   -9425494.08046  -6594954.14161
  23399684.7114   13339229.51845  10394180.72561
  20743341.6804  -19128598.30647 -14851025.13063
 91  4 17 23 39 30.0000000  0  5G15G 2G13G19G 6
  23383093.664    -4456839.835 5  -3402849.88221
  20778130.656   -14157056.659 7 -11031428.74823
  22196357.6564   -9475664.11546  -6634047.51261
  23407779.2664   13381764.13445  10427324.48061
  20739427.6254  -19149156.58947 -14867044.53363
 91  4 17 23 39 45.0000000  0  5G15G 2G13G19G 6
  23382068.773    -4462222.081 5  -3407043.80021
  20778602.977   -14154576.998 7 -11029496.53023
  22186827.461    -9525741.803 6  -6673068.92721
  23415884.711    13424359.061 5  10460515.18721
  20735530.8444  -19169636.23347 -14883002.66463
 91  4 17 23 40  0.0000000  0  5G15G 2G13G19G 6
  23381066.3444   -4467474.22245  -3411136.33861
  20779082.430   -14152054.673 7 -11027531.07623
  22177315.258    -9575732.914 6  -6712022.86921
  23424003.523    13467008.143 5  10493748.10221
  20731647.7664  -19190043.17447 -14898904.14263
 91  4 17 23 40 15.0000000  0  5G15G 2G13G19G 6
  23380096.4774   -4472592.24545  -3415124.36961
  20779572.1644  -14149485.62147 -11025529.21063
  22167818.8754   -9625633.06246  -6750905.94261
  23432127.4064   13509715.27345  10527026.24061
  20727777.9384  -19210372.98547 -14914745.52063
 91  4 17 23 40 30.0000000  0  5G15G 2G13G19G 6
  23379148.070    -4477578.832 5  -3419009.96621
  20780069.4774  -14146872.40047 -11023492.92663
  22158340.5004   -9675444.39946  -6789719.81861
  23440270.328    13552477.753 5  10560347.52221
  20723924.3134  -19230627.99447 -14930528.61263
 91  4 17 23 40 45.0000000  0  5G15G 2G13G19G 6
  23378221.5474   -4482433.59945  -3422792.87161
  20780574.2194  -14144214.95147 -11021422.17663
  22148879.422    -9725166.835 6  -6828464.41621
  23448412.8834   13595295.48045  10593711.86061
  20720084.2424  -19250807.86047 -14946253.14463
 91  4 17 23 41  0.0000000  0  5G15G 2G13G19G 6
  23377328.305    -4487150.858 5  -3426468.61821
  20781089.828   -14141507.805 7 -11019312.70123
  22139434.6094   -9774794.34246  -6867135.04261
  23456571.7114   13638173.93445  10627123.52161
  20716260.3594  -19270906.81047 -14961914.63263
 91  4 17 23 41 15.0000000  0  5G15G 2G13G19G 6
  23376452.8984   -4491733.32845  -3430039.33161
  20781613.3284  -14138753.77447 -11017166.69463
  22130009.2114   -9824329.48046  -6905733.69761
  23464745.2584   13681110.07045  10660580.12661
  20712450.1484  -19290927.37847 -14977515.03763
 91  4 17 23 41 30.0000000  0  5G15G 2G13G19G 6
  23375605.945    -4496184.568 5  -3433507.78221
  20782147.047   -14135956.656 7 -11014987.11123
  22120598.6484   -9873775.92646  -6944263.23761
  23472926.672    13724100.053 5  10694078.67621
  20708653.6484  -19310872.93247 -14993056.99363
 91  4 17 23 41 45.0000000  0  5G15G 2G13G19G 6
  23374786.844    -4500499.697 5  -3436870.16321
  20782687.2344  -14133111.68847 -11012770.24163
  22111207.016    -9923128.160 6  -6982719.35921
  23481116.1094   13767148.51745  10727622.82161
  20704874.0554  -19330738.41647 -15008536.55663
 91  4 17 23 42  0.0000000  0  5G15G 2G13G19G 6
  23373988.2664   -4504681.33645  -3440128.55461
  20783236.977   -14130221.498 7 -11010518.13323
  22101832.8594   -9972388.73046  -7021104.06661
  23489322.6484   13810252.44845  10761210.18261
  20701109.0164  -19350526.29647 -15023955.64463
 91  4 17 23 42 15.0000000  0  5G15G 2G13G19G 6
  23373222.789    -4508725.779 5  -3443280.00321
  20783797.5314  -14127282.43547 -11008227.94663
  22092478.680   -10021553.799 6  -7059414.34421
  23497534.258    13853415.630 5  10794843.69821
  20697358.3674  -19370232.62447 -15039311.19163
 91  4 17 23 42 30.0000000  0  5G15G 2G13G19G 6
  23372473.266    -4512632.772 5  -3446324.38321
  20784365.719   -14124294.614 7 -11005899.76023
  22083141.1414  -10070622.83946  -7097649.80261
  23505759.3524   13896638.01445  10828523.35361
  20693624.4224  -19389857.09447 -15054602.94663
 91  4 17 23 42 45.0000000  0  5G15G 2G13G19G 6
  23371761.8284   -4516402.35345  -3449261.68461
  20784942.305   -14121258.224 7 -11003533.73223
  22073819.9224  -10119595.78746  -7135810.39061
  23513994.0944   13939919.12445  10862248.78561
  20689905.5784  -19409399.72647 -15069830.93563
 91  4 17 23 43  0.0000000  0  5G15G 2G13G19G 6
  23371061.773    -4520038.449 5  -3452094.95521
  20785530.4924  -14118177.26547 -11001132.97363
  22064519.125   -10168476.388 6  -7173898.99621
  23522245.3754   13983254.83344  10896016.74561
  20686201.6564  -19428864.22147 -15084998.04063
 91  4 17 23 43 15.0000000  0  5G15G 2G13G19G 6
  23370399.7274   -4523538.41245  -3454822.15761
  20786125.086   -14115049.657 7 -10998695.86323
  22055235.055   -10217261.857 6  -7211913.48021
  23530499.0474   14026647.45345  10929829.06161
  20682512.6724  -19448247.93447 -15100102.19663
 91  4 17 23 43 30.0000000  0  5G15G 2G13G19G 6
  23369760.297    -4526902.984 5  -3457443.85421
  20786728.508   -14111876.037 8 -10996222.90023
  22045969.617   -10265952.892 6  -7249854.38021
  23538773.820    14070095.866 4  10963684.84621
  20678839.7974  -19467551.42547 -15115143.84363
 91  4 17 23 43 45.0000000  0  5G15G 2G13G19G 6
  23369146.578    -4530132.899 5  -3459960.62521
  20787341.820   -14108656.974 7 -10993714.52723
  22036721.609   -10314549.839 6  -7287721.97821
  23547043.5314   14113599.30845  10997583.50461
  20675180.5864  -19486774.97647 -15130123.19763
 91  4 17 23 44  0.0000000  0  5G15G 2G13G19G 6
  23368554.4144   -4533225.10445  -3462370.08661
  20787963.039   -14105389.614 8 -10991168.51923
  22027491.055   -10363049.344 6  -7325513.63521
  23555339.7584   14157160.70444  11031527.32961
  20671538.4144  -19505915.42947 -15145037.80163
 91  4 17 23 44 15.0000000  0  5G15G 2G13G19G 6
  23367993.344    -4536181.129 5  -3464673.43421
  20788594.508   -14102075.632 7 -10988586.18323
  22018281.469   -10411452.578 6  -7363230.28121
  23563633.5864   14200778.16645  11065514.83761
  20667911.7814  -19524974.13547 -15159888.70663
 91  4 17 23 44 30.0000000  0  5G15G 2G13G19G 6
  23367456.500    -4538999.017 5  -3466869.14821
  20789233.805   -14098713.549 7 -10985966.36623
  22009088.508   -10459757.930 6  -7400870.65221
  23571950.2974   14244453.16945  11099547.19061
  20664301.4844  -19543949.26347 -15174674.48263
 91  4 17 23 44 45.0000000  0  5G15G 2G13G19G 6
  23366945.1024   -4541679.93245  -3468958.13961
  20789882.805   -14095304.333 7 -10983309.82123
  21999915.141   -10507966.128 6  -7438435.33121
  23580268.3204   14288184.61545  11133623.51961
  20660705.0234  -19562841.47847 -15189395.65163
 91  4 17 23 45  0.0000000  0  5G15G 2G13G19G 6
  23366463.0554   -4544223.77945  -3470940.32861
  20790538.7664  -14091848.22547 -10980616.74363
  21990759.8524  -10556077.05146  -7475924.20361
  23588601.828    14331972.060 5  11167743.48521
  20657126.3524  -19581650.79447 -15204052.23063
 91  4 17 23 45 15.0000000  0  5G15G 2G13G19G 6
  23366007.8914   -4546633.78145  -3472818.22461
  20791205.7344  -14088348.37747 -10977889.58063
  21981621.688   -10604093.518 6  -7513339.47721
  23596942.625    14375812.179 5  11201904.48221
  20653562.3754  -19600380.17747 -15218646.51863
 91  4 17 23 45 30.0000000  0  5G15G 2G13G19G 6
  23365572.1484   -4548910.88945  -3474592.55461
  20791879.1254  -14084805.71347 -10975129.05263
  21972501.6254  -10652016.16146  -7550681.64161
  23605297.484    14419704.009 5  11236105.78121
  20650014.2274  -19619030.14547 -15233178.92663
 91  4 17 23 45 45.0000000  0  5G15G 2G13G19G 6
  23365164.328    -4551047.126 5  -3476257.12421
  20792564.4774  -14081212.55647 -10972329.18363
  21963402.8754  -10699837.08146  -7587944.54861
  23613659.445    14463654.998 5  11270353.17721
  20646481.3444  -19637592.88147 -15247643.36163
 91  4 17 23 46  0.0000000  0  5G15G 2G13G19G 6
  23364784.828    -4553045.815 5  -3477814.50421
  20793256.3204  -14077572.24447 -10969492.56763
  21954321.6484  -10747559.41546  -7625130.63561
  23622033.7814   14507661.56144  11304643.86261
  20642964.1724  -19656071.37547 -15262042.15763
 91  4 17 23 46 15.0000000  0  5G15G 2G13G19G 6
  23364432.180    -4554906.104 5  -3479264.05421
  20793958.1024  -14073884.20347 -10966618.75863
  21945259.2894  -10795181.97046  -7662238.97261
  23630420.484    14551724.376 5  11338978.38821
  20639465.1094  -19674464.55847 -15276374.47763
 91  4 17 23 46 29.9990000  0  5G15G 2G13G19G 6
  23364101.214    -4556627.889 5  -3480605.66121
  20794668.4094  -14070149.21147 -10963708.36863
  21936215.9094  -10842701.55246  -7699267.07161
  23638821.1204   14595839.90444  11373354.00661
  20635980.9254  -19692771.41147 -15290639.52463
 91  4 17 23 46 44.9990000  0  5G15G 2G13G19G 6
  23363806.206    -4558210.001 5  -3481838.45321
  20795389.5424  -14066365.06947 -10960759.67763
  21927192.558   -10890122.662 6  -7736218.43521
  23647218.6594   14640015.70144  11407776.55661
  20632513.5734  -19710992.41147 -15304837.67063
 91  4 17 23 46 59.9990000  0  5G15G 2G13G19G 6
  23363526.2304   -4559654.20145  -3482963.76561
  20796118.0424  -14062533.94247 -10957774.37163
  21918188.0424  -10937443.89646  -7773091.97461
  23655635.0584   14684246.59944  11442242.07061
  20629062.7064  -19729128.08347 -15318969.32863
 91  4 17 23 47 14.9990000  0  5G15G 2G13G19G 6
  23363279.3084   -4560958.29545  -3483979.91161
  20796856.6674  -14058653.92747 -10954750.97563
  21909200.5424  -10984663.13446  -7809886.04361
  23664064.5894   14728534.42344  11476751.91861
  20625628.0894  -19747176.16647 -15333032.73963
 91  4 17 23 47 29.9990000  0  5G15G 2G13G19G 6
  23363060.0584   -4562122.87645  -3484887.34661
  20797603.7924  -14054725.54247 -10951689.89263
  21900236.0114  -11031780.39146  -7846600.64461
  23672504.2764   14772878.63744  11511305.71161
  20622209.7454  -19765136.87447 -15347028.06463
 91  4 17 23 47 44.9990000  0  5G15G 2G13G19G 6
  23362859.862    -4563150.372 5  -3485687.97221
  20798360.4094  -14050751.08347 -10948592.90263
  21891288.714   -11078797.807 6  -7883237.44821
  23680950.9874   14817276.42444  11545901.23961
  20618808.0974  -19783012.40347 -15360957.01663
 91  4 17 23 47 59.9990000  0  5G15G 2G13G19G 6
  23362691.581    -4564038.038 5  -3486379.63621
  20799126.3554  -14046728.23847 -10945458.20963
  21882360.745   -11125712.567 6  -7919794.26021
  23689409.808    14861730.227 4  11580540.43221
  20615422.9094  -19800800.00547 -15374817.45363
 91  4 17 23 48 14.9990000  0  5G15G 2G13G19G 6
  23362549.3234   -4564784.56245  -3486961.31361
  20799901.878   -14042655.733 7 -10942284.81823
  21873453.487   -11172523.329 6  -7956270.04221
  23697879.9094   14906241.10844  11615224.08861
  20612056.3154  -19818498.24247 -15388608.25663
 91  4 17 23 48 29.9990000  0  5G15G 2G13G19G 6
  23362435.3004   -4565390.38145  -3487433.35161
  20800685.003   -14038534.034 7 -10939073.09523
  21864564.2924  -11219230.27346  -7992664.91861
  23706364.2374   14950808.45044  11649951.75361
  20608705.1984  -19836107.21847 -15402329.50563
 91  4 17 23 48 44.9990000  0  5G15G 2G13G19G 6
  23362347.190    -4565859.085 5  -3487798.54321
  20801478.065   -14034366.718 7 -10935825.82323
  21855695.753   -11265836.651 6  -8028981.43521
  23714853.542    14995428.451 4  11684720.44721
  20605371.1444  -19853630.31047 -15415983.82963
 91  4 17 23 48 59.9990000  0  5G15G 2G13G19G 6
  23362280.534    -4566188.460 5  -3488055.17121
  20802280.1984  -14030152.09447 -10932541.69063
  21846845.722   -11312340.295 6  -8065217.90921
  23723356.690    15040102.868 4  11719531.55621
  20602052.8944  -19871065.31447 -15429569.51463
 91  4 17 23 49 14.9990000  0  5G15G 2G13G19G 6
  23362244.745    -4566382.639 5
  20803090.464   -14025894.276 7 -10929223.90223
  21838014.636   -11358745.163 6  -8101377.41121
  23731866.5894   15084827.49944  11754381.76761
  20598752.0034  -19888416.11547 -15443089.58563
 91  4 17 23 49 29.9990000  0  5G15G 2G13G19G 6
  23362233.2304   -4566435.26645
  20803909.4954  -14021586.76847 -10925867.39363
  21829203.862   -11405044.502 6  -8137454.67421
  23740390.1834   15129608.40644  11789275.85161
  20595466.3554  -19905676.05647 -15456538.86263
 91  4 17 23 49 44.9990000  0  5G15G 2G13G19G 6
  23362252.4874   -4566348.10045
  20804738.2454  -14017231.37947 -10922473.57363
  21820414.136   -11451239.666 6  -8173450.77021
  23748918.1444   15174443.75644  11824212.33461
  20592199.3784  -19922846.55847 -15469918.44463
 91  4 17 23 49 59.9990000  0  5G15G 2G13G19G 6
  23362296.9874   -4566118.35545
  20805576.6834  -14012825.83047 -10919040.66863
  21811642.784   -11497328.024 6  -8209363.64721
  23757464.112    15219336.033 4  11859193.19521
  20588949.4404  -19939924.87947 -15483226.19763
 91  4 17 23 50 14.9990000  0  5G15G 2G13G19G 6
  23362363.3864   -4565748.96945
  20806424.144   -14008373.099 7 -10915570.99823
  21802891.659   -11543312.315 6  -8245195.42121
  23766014.870    15264281.975 4  11894215.86921
  20585716.3084  -19956913.84947 -15496464.32763
 91  4 17 23 50 29.9990000  0  5G15G 2G13G19G 6
  23362466.839    -4565236.426 5  -3487313.17821
  20807280.362   -14003869.683 7 -10912061.83123
  21794162.0034  -11589188.59346  -8280943.03961
  23774583.3084   15309284.81344  11929282.86561
  20582501.0654  -19973809.75547 -15509629.93763
 91  4 17 23 50 44.9990000  0  5G15G 2G13G19G 6
  23362586.5194   -4564585.89945  -3486806.25261
  20808147.5344  -13999320.37547 -10908516.90863
  21785452.651   -11634961.585 6  -8316610.17121
  23783151.8004   15354339.56944  11964390.32361
  20579301.3624  -19990617.22947 -15522726.63663
 91  4 17 23 50 59.9990000  0  5G15G 2G13G19G 6
  23362742.331    -4563793.511 5  -3486188.79321
  20809021.7144  -13994721.70747 -10904933.52463
  21776762.2144  -11680627.51246  -8352193.88561
  23791736.6364   15399449.70343  11999540.92561
  20576120.6364  -20007332.35947 -15535751.38563
 91  4 17 23 51 14.9990000  0  5G15G 2G13G19G 6
  23362911.378    -4562864.157 5  -3485464.59921
  20809906.4954  -13990078.53447 -10901315.46663
  21768091.386   -11726191.068 6  -8387697.81321
  23800330.120    15444610.109 4  12034730.71321
  20572957.3314  -20023959.77747 -15548707.78763
 91  4 17 23 51 29.9990000  0  5G15G 2G13G19G 6
  23363120.4094   -4561796.17145  -3484632.38061
  20810797.8784  -13985389.35547 -10897661.54363
  21759440.8554  -11771650.44746  -8423120.58861
  23808934.3154   15489822.13243  12069960.70861
  20569810.5034  -20040497.67547 -15561594.43163
 91  4 17 23 51 44.9990000  0  5G15G 2G13G19G 6
  23363349.636    -4560586.687 5  -3483689.89821
  20811698.6204  -13980651.47447 -10893969.68163
  21750810.862   -11817002.291 6  -8458459.54521
  23817548.519    15535088.506 3  12105233.05721
  20566680.5814  -20056943.03447 -15574408.96563
 91  4 17 23 51 59.9990000  0  5G15G 2G13G19G 6
  23363606.011    -4559236.284 5  -3482637.61221
  20812610.9564  -13975865.56947 -10890240.39763
  21742200.167   -11862247.204 6  -8493715.19521
  23826177.6754   15580408.14043  12140546.90061
  20563568.6674  -20073296.26347 -15587151.71363
 91  4 17 23 52 14.9990000  0  5G15G 2G13G19G 6
  23363887.3624   -4557743.97345  -3481474.75261
  20813530.9644  -13971030.73047 -10886472.98363
  21733611.690   -11907384.127 6  -8528886.69021
  23834807.831    15625781.999 3  12175903.03621
  20560475.1754  -20089556.14747 -15599821.72163
 91  4 17 23 52 29.9990000  0  5G15G 2G13G19G 6
  23364199.9564   -4556114.91745  -3480205.32761
  20814458.9254  -13966152.01247 -10882671.38063
  21725041.3624  -11952417.67546  -8563977.64061
  23843453.659    15671204.702 4  12211297.18221
  20557397.7454  -20105727.52047 -15612422.76063
 91  4 17 23 52 44.9990000  0  5G15G 2G13G19G 6
  23364536.714    -4554342.415 5  -3478824.13721
  20815397.0034  -13961222.57347 -10878830.25163
  21716493.4644  -11997340.89646  -8598982.62161
  23852105.698    15716683.008 4  12246734.67921
  20554336.9724  -20121803.26347 -15624949.28463
 91  4 17 23 52 59.9990000  0  5G15G 2G13G19G 6
  23364900.2534   -4552429.32645  -3477333.40561
  20816344.3154  -13956245.77747 -10874952.21863
  21707964.6754  -12042156.67846  -8633903.87961
  23860770.995    15762213.661 3  12282212.94321
  20551297.0814  -20137786.27447 -15637403.54563
 91  4 17 23 53 14.9990000  0  5G15G 2G13G19G 6
  23365291.925    -4550370.952 5  -3475729.45121
  20817301.6984  -13951216.69447 -10871033.45063
  21699458.3864  -12086860.07746  -8668737.57561
  23869444.276    15807801.092 4  12317735.48821
  20548273.8944  -20153671.60947 -15649781.70063
 91  4 17 23 53 29.9990000  0  5G15G 2G13G19G 6
  23365707.269    -4548175.388 5  -3474018.60721
  20818266.4334  -13946143.60647 -10867080.38863
  21690971.5504  -12131458.91046  -8703489.78261
  23878129.050    15853436.990 4  12353295.78921
  20545267.0654  -20169467.14047 -15662089.87163
 91  4 17 23 53 44.9990000  0  5G15G 2G13G19G 6
  23366156.409    -4545834.443 5  -3472194.48321
  20819240.8234  -13941018.62447 -10863086.88863
  21682504.8944  -12175944.89246  -8738154.05661
  23886822.9564   15899129.22544  12388899.98461
  20542280.9874  -20185164.62847 -15674321.65363
 91  4 17 23 53 59.9990000  0  5G15G 2G13G19G 6
  23366631.839    -4543352.401 5  -3470260.39121
  20820225.2304  -13935845.86447 -10859056.16063
  21674061.870   -12220321.919 6  -8772733.42921
  23895531.9014   15944873.50944  12424544.71261
  20539310.6284  -20200767.88447 -15686480.00263
 91  4 17 23 54 14.9990000  0  5G15G 2G13G19G 6
  23367127.4644   -4540726.81045  -3468214.48261
  20821220.0734  -13930623.20747 -10854986.55263
  21665636.917   -12264587.610 6  -8807226.05221
  23904244.8314   15990671.78644  12460231.55161
  20536361.5584  -20216274.56047 -15698563.09463
 91  4 17 23 54 29.9990000  0  5G15G 2G13G19G 6
  23367655.964    -4537959.083 5  -3466057.78421
  20822222.9094  -13925351.90747 -10850879.04263
  21657233.5424  -12308743.20046  -8841632.88061
  23912970.112    16036522.632 3  12495959.33921
  20533428.1754  -20231685.68147 -15710571.73163
 91  4 17 23 54 44.9990000  0  5G15G 2G13G19G 6
  23368209.292    -4535050.573 5  -3463791.40221
  20823234.6904  -13920033.21247 -10846734.59763
  21648852.1284  -12352789.48946  -8875954.54261
  23921705.706    16082424.681 3  12531727.01021
  20530512.6054  -20247002.23847 -15722506.68663
 91  4 17 23 54 59.9990000  0  5G15G 2G13G19G 6
  23368787.3314   -4531998.34845  -3461413.03561
  20824256.0194  -13914664.42647 -10842551.12163
  21640491.917   -12396723.393 6  -8910188.61921
  23930449.011    16128380.510 3  12567536.59821
  20527617.7694  -20262221.14847 -15734365.54463
 91  4 17 23 55 14.9990000  0  5G15G 2G13G19G 6
  23369398.347    -4528805.352 5  -3458924.97721
  20825286.9804  -13909248.31447 -10838330.77263
  21632153.0504  -12440547.35446  -8944337.04561
  23939204.534    16174386.944 3  12603385.59121
  20524738.6514  -20277345.25147 -15746150.53363
 91  4 17 23 55 29.9990000  0  5G15G 2G13G19G 6
  23370032.1284   -4525470.57645  -3456326.42661
  20826327.2304  -13903783.97847 -10834072.84263
  21623833.5734  -12484260.54046  -8978399.13961
  23947974.5194   16220444.67443  12639274.57861
  20521880.4954  -20292373.09747 -15757860.51563
 91  4 17 23 55 44.9990000  0  5G15G 2G13G19G 6
  23370690.6284   -4521995.02945  -3453618.20761
  20827376.2614  -13898272.50247 -10829778.18563
  21615536.9724  -12527863.80546  -9012375.58561
  23956744.1364   16266552.70543  12675202.76361
  20519038.2764  -20307305.60947 -15769496.21163
 91  4 17 23 55 59.9990000  0  5G15G 2G13G19G 6
  23371383.644    -4518374.696 5  -3450797.14821
  20828433.6204  -13892709.74047 -10825443.56463
  21607261.0424  -12571352.45946  -9046262.72061
  23965534.1594   16312714.88443  12711173.10761
  20516215.1984  -20322138.36347 -15781054.17563
 91  4 17 23 56 14.9990000  0  5G15G 2G13G19G 6
  23372099.948    -4514612.977 5  -3447865.93021
  20829502.1904  -13887099.42747 -10821071.89063
  21599006.8944  -12614729.76246  -9080063.09261
  23974320.245    16358927.455 3  12747182.72521
  20513410.8004  -20336874.64447 -15792536.96563
 91  4 17 23 56 29.9990000  0  5G15G 2G13G19G 6
  23372843.2844   -4510708.77246  -3444823.69861
  20830579.5584  -13881440.38647 -10816662.24563
  21590772.706   -12657994.647 6  -9113775.86521
  23983127.269    16405191.302 2  12783232.30321
  20510625.089   -20351513.127 7 -15803943.55123
 91  4 17 23 56 44.9990000  0  5G15G 2G13G19G 6
  23373610.8004   -4506661.11046  -3441669.66361
  20831665.1594  -13875731.86047 -10812214.04263
  21582561.8864  -12701146.15646  -9147400.29261
  23991940.5504   16451507.02643  12819322.29761
  20507858.925   -20366052.842 7 -15815273.17323
 91  4 17 23 56 59.9990000  0  5G15G 2G13G19G 6
  23374409.909    -4502469.026 6  -3438403.10321
  20832760.4954  -13869972.68747 -10807726.36763
  21574372.480   -12744182.914 6  -9180935.30321
  24000765.2304   16497875.60543  12855453.49361
  20505111.9334  -20380492.28447 -15826524.66263
 91  4 17 23 57 14.9990000  0  5G15G 2G13G19G 6
  23375233.8004   -4498136.23646  -3435026.88661
  20833864.7694  -13864166.83047 -10803202.32263
  21566203.6284  -12787108.30846  -9214383.53861
  24009594.105    16544293.137 3  12891622.83621
  20502382.034   -20394835.015 7 -15837700.79023
 91  4 17 23 57 29.9990000  0  5G15G 2G13G19G 6
  23376088.6284   -4493661.41645  -3431540.01061
  20834979.1904  -13858312.97247 -10798640.87163
  21558055.2144  -12829921.12846  -9247744.04661
  24018438.1514   16590760.60543  12927831.09361
  20499671.855   -20409079.626 7 -15848800.46623
 91  4 17 23 57 44.9990000  0  5G15G 2G13G19G 6
  23376964.7534   -4489043.63646  -3427941.74461
  20836102.3394  -13852410.05647 -10794041.19263
  21549931.8704  -12872619.67446  -9281015.51661
  24027291.620    16637279.097 4  12964079.11321
  20496980.245   -20423224.723 7 -15859822.59723
 91  4 17 23 57 59.9990000  0  5G15G 2G13G19G 6
  23377869.878    -4484280.228 6  -3424229.98021
  20837236.3944  -13846455.55147 -10789401.31563
  21541827.901   -12915201.212 6  -9314195.80921
  24036156.6674   16683850.82243  13000368.62161
  20494307.237   -20437267.421 7 -15870764.93723
 91  4 17 23 58 14.9990000  0  5G15G 2G13G19G 6
  23378801.9804   -4479376.18646  -3420408.64561
  20838378.1904  -13840454.49747 -10784725.16963
  21533745.4644  -12957670.42846  -9347288.57961
  24045024.940    16730470.763 4  13036695.68321
  20491654.105   -20451212.553 7 -15881631.24923
 91  4 17 23 58 29.9990000  0  5G15G 2G13G19G 6
  23379765.9484   -4474329.54446  -3416476.20061
  20839528.3394  -13834405.08547 -10780011.34163
  21525685.0194  -13000025.40946  -9380292.34361
  24053909.050    16777140.395 4  13073061.47021
  20489018.597   -20465058.074 7 -15892419.94823
 91  4 17 23 58 44.9990000  0  5G15G 2G13G19G 6
  23380748.0034   -4469142.02845  -3412433.97561
  20840689.7614  -13828308.83947 -10775261.01563
  21517647.9724  -13042267.23046  -9413207.92061
  24062794.5034   16823858.11643  13109464.72661
  20486402.503   -20478805.062 7 -15903131.86623
 91  4 17 23 58 59.9990000  0  5G15G 2G13G19G 6
  23381765.464    -4463807.058 6  -3408276.85621
  20841859.3154  -13822159.13247 -10770469.03363
  21509632.144   -13084389.153 6  -9446030.07421
  24071701.081    16870630.235 3  13145910.40121
  20483805.597   -20492446.767 7 -15913761.74523
 91  4 17 23 59 14.9990000  0  5G15G 2G13G19G 6
  23382806.4564   -4458331.83846  -3404010.45361
  20843038.4254  -13815963.34847 -10765641.14763
  21501637.7454  -13126398.67546  -9478764.64861
  24080605.347    16917449.204 3  13182392.52921
  20481228.308   -20505990.396 7 -15924315.20123
 91  4 17 23 59 29.9990000  0  5G15G 2G13G19G 6
  23383881.8474   -4452712.23746  -3399631.55061
  20844225.7614  -13809717.36247 -10760774.13863
  21493665.6514  -13168291.25846  -9511408.09961
  24089525.6364   16964319.10443  13218914.38561
  20478671.675   -20519431.559 7 -15934788.81323
 91  4 17 23 59 44.9990000  0  5G15G 2G13G19G 6
  23384973.2764   -4446947.93046  -3395139.87961
  20845425.5114  -13803420.79847 -10755867.72063
  21485716.5424  -13210066.07846  -9543959.78661
  24098450.7694   17011240.15243  13255476.07961
  20476133.081   -20532769.550 7 -15945182.03323
 91  4 17 23 59 59.9990000  0  4G15G 2G13G 6
  23386098.6284   -4441042.34846  -3390538.11661
  20846632.3944  -13797077.13747 -10750924.60463
  21477788.7224  -13251726.39546  -9576422.25561
  20473614.526   -20546007.655 7 -15955497.41923
 91  4 18  0  0 14.9990000  0  5G15G 2G13G19G 6
  23387252.3944   -4434993.05946  -3385824.37461
  20847849.4094  -13790683.97347 -10745942.91163
  21469883.3704  -13293269.79046  -9608793.61361
  24116338.605          -0.34413
  20471113.995   -20559142.986 7 -15965732.72123
 91  4 18  0  0 29.9990000  0  5G15G 2G13G19G 6
  23388431.4334   -4428799.51446  -3380998.23561
  20849073.5194  -13784240.54747 -10740922.05763
  21462000.1054  -13334695.27846  -9641073.08961
  24125298.2304      47067.92743
  20468635.222   -20572174.918 7 -15975887.45023
 91  4 18  0  0 44.9990000  0  5G15G 2G13G19G 6
  23389634.034    -4422466.149 6  -3376063.14621
  20850310.6984  -13777751.54047 -10735865.68463
  21454138.0194  -13376007.05546  -9673263.97661
  24134262.300       94181.577 3
  20466173.230   -20585107.583 7 -15985964.82723
 91  4 18  0  0 59.9990000  0  5G15G 2G13G19G 6
  23390864.503    -4415990.621 6
  20851553.8554  -13771214.60147
  21446299.0424  -13417202.55346  -9705364.25061
  24143240.026      141342.786 3        -0.04131
  20463732.269   -20597938.509 7 -15995962.92923
 91  4 18  0  1 14.9990000  0  5G15G 2G13G19G 6
  23392125.2924   -4409368.35146
  20852806.9334  -13764625.27347
  21438482.105   -13458277.020 6  -9737370.21221
  24152219.995      188556.032 3     36789.34021
  20461310.300   -20610662.634 7 -16005877.80923
 91  4 18  0  1 29.9990000  0  5G15G 2G13G19G 6
  23393416.0504   -4402605.97046  -3360587.66461
  20854069.3864  -13757990.16647 -10720467.20863
  21430688.8554  -13499236.89246  -9769286.87261
  24161216.3704     235814.27543     73613.76361
  20458908.159   -20623286.650 7 -16015714.68323
 91  4 18  0  1 44.9990000  0  5G15G 2G13G19G 6
  23394730.8474   -4395696.22446  -3355203.43961
  20855342.7534  -13751301.63947 -10715255.36663
  21422916.1594  -13540074.51346  -9801108.28061
  24170219.3234     283124.86443    110478.97961
  20456526.261   -20635802.662 7 -16025467.39623
 91  4 18  0  1 59.9990000  0  5G15G 2G13G19G 6
  23396070.815    -4388643.271 6  -3349707.61021
  20856625.0584  -13744564.28547 -10710005.47563
  21415168.526   -13580794.092 6  -9832837.71121
  24179234.042      330483.378 3    147381.54621
  20454164.7924  -20648214.82547 -16035139.18563
 91  4 18  0  2 14.9990000  0  5G15G 2G13G19G 6
  23397435.8944   -4381450.58346  -3344102.92761
  20857917.5584  -13737781.51647 -10704720.20063
  21407441.425   -13621398.946 6  -9864477.75221
  24188253.9404     377885.99043    184318.46361
  20451821.292   -20660526.399 7 -16044732.59523
 91  4 18  0  2 29.9990000  0  5G15G 2G13G19G 6
  23398837.2694   -4374116.05246  -3338387.70161
  20859215.0654  -13730950.71247 -10699397.49463
  21399735.7374  -13661886.06346  -9896026.04961
  24197286.4254     425335.09043    221291.60661
  20449498.667   -20672734.557 7 -16054245.42123
 91  4 18  0  2 44.9990000  0  5G15G 2G13G19G 6
  23400258.2694   -4366640.22546  -3332562.38061
  20860524.6284  -13724072.76547 -10694038.05163
  21392055.675   -13702256.013 6  -9927483.04121
  24206318.456      472829.770 3    258300.28621
  20447194.940   -20684839.866 7 -16063678.10523
 91  4 18  0  2 59.9990000  0  5G15G 2G13G19G 6
  23401702.9404   -4359023.70446  -3326627.42661
  20861843.0654  -13717148.24147 -10688642.31663
  21384393.651   -13742509.339 6  -9958849.16321
  24215370.2614     520369.17543    295343.80561
  20444909.6754  -20696842.62847 -16073030.87863
 91  4 18  0  3 14.9990000  0  5G15G 2G13G19G 6
  23403181.0504   -4351269.17746  -3320584.92061
  20863167.8704  -13710180.09247 -10683212.58663
  21376755.886   -13782648.524 6  -9990126.34121
  24224418.6674     567950.42843    332419.90961
  20442646.0654  -20708745.54347 -16082305.84963
 91  4 18  0  3 29.9990000  0  5G15G 2G13G19G 6
  23404685.1124   -4343366.55746  -3314427.04561
  20864504.3554  -13703158.06347 -10677740.86963
  21369142.105   -13822663.358 6 -10021306.62321
  24233486.808      615583.457 3    369536.37521
  20440403.433   -20720538.053 7 -16091494.79323
 91  4 18  0  3 44.9990000  0  4G15G 2G13G 6
  23406214.2694   -4335318.89146  -3308156.11761
  20865850.2064  -13696085.15447 -10672229.50963
  21361549.5974  -13862556.54746 -10052392.12261
  20438178.9564  -20732223.00447 -16100599.92163
 91  4 18  0  3 59.9990000  0  4G15G 2G13G 6
  23407778.6364   -4327128.82446  -3301774.24261
  20867205.1594  -13688964.06047 -10666680.60063
  21353981.495   -13902330.410 6 -10083384.63621
  20435974.753   -20743802.725 7 -16109623.05523
 91  4 18  0  4 14.9990000  0  4G15G 2G13G 6
  23409363.6364   -4318796.51346  -3295281.53261
  20868568.8624  -13681794.94847 -10661094.27564
  21346436.050   -13941984.956 6 -10114284.17621
  20433790.9254  -20755277.08347 -16118564.08663
 91  4 18  0  4 29.9990000  0  4G15G 2G13G 6
  23410974.1284   -4310319.60845  -3288676.15761
  20869943.9564  -13674575.35847 -10655468.61763
  21338912.261   -13981517.525 6 -10145088.66921
  20431627.9334  -20766643.41447 -16127420.94263
 91  4 18  0  4 44.9990000  0  4G15G 2G13G 6
  23412612.9334   -4301700.09146  -3281959.65461
  20871327.3704  -13667307.21247 -10649805.12263
  21331411.472   -14020929.769 7 -10175799.40621
  20429485.1984  -20777903.42647 -16136194.95163
 91  4 18  0  4 59.9990000  0  4G15G 2G13G 6
  23414280.0424   -4292934.49246  -3275129.32161
  20872720.8784  -13659986.91347 -10644100.98563
  21323936.448   -14060217.966 7 -10206413.48321
  20427362.972   -20789053.484 7 -16144883.28323
 91  4 18  0  5 14.9990000  0  4G15G 2G13G 6
  23415974.0894   -4284022.16846  -3268184.64661
  20874123.2694  -13652613.66047 -10638355.59363
  21316484.620   -14099380.854 7 -10236929.91421
  20425262.3474  -20800092.31647 -16153484.94263
 91  4 18  0  5 29.9990000  0  4G15G 2G13G 6
  23417698.2764   -4274971.89546  -3261132.49661
  20875534.7064  -13645196.51047 -10632575.99163
  21309052.964   -14138427.591 7 -10267355.83521
  20423181.948   -20811028.837 7 -16162006.88223
 91  4 18  0  5 44.9990000  0  4G15G 2G13G 6
  23419448.7694   -4265776.57445  -3253967.31161
  20876955.0654  -13637728.50547 -10626756.76663
  21301645.011   -14177351.022 7 -10297685.68421
  20421122.144   -20821855.736 7 -16170443.40123
 91  4 18  0  5 59.9990000  0  4G15G 2G13G 6
  23421227.5114   -4256436.91845  -3246689.65461
  20878385.1594  -13630210.08347 -10620898.25263
  21294261.300   -14216151.306 6 -10327919.56921
  20419082.6284  -20832573.28047 -16178794.70663
 91  4 18  0  6 14.9990000  0  4G15G 2G13G 6
  23423033.8154   -4246952.83445  -3239299.45361
  20879826.0974  -13622641.21047 -10615000.42163
  21286902.511   -14254828.335 7 -10358057.40421
  20417063.6834  -20843181.07947 -16187060.49963
 91  4 18  0  6 29.9990000  0  4G15G 2G13G 6
  23424861.0034   -4237328.22845  -3231799.76661
  20881275.4644  -13615025.57247 -10609066.15263
  21279564.0504  -14293385.36947 -10388101.74561
  20415064.487   -20853682.685 7 -16195243.54622
 91  4 18  0  6 44.9990000  0  4G15G 2G13G 6
  23426721.4404   -4227558.64645  -3224187.10961
  20882734.7454  -13607358.96647 -10603092.17163
  21272250.690   -14331818.014 7 -10418049.15221
  20413086.745   -20864073.560 7 -16203340.31123
 91  4 18  0  6 59.9990000  0  4G15G 2G13G 6
  23428609.7924   -4217646.82745  -3216463.62961
  20884202.2304  -13599643.88747 -10597080.41463
  21264960.698   -14370128.472 7 -10447901.35121
  20411132.292   -20874355.991 7 -16211352.57223
 91  4 18  0  7 14.9990000  0  4G15G 2G13G 6
  23430521.5034   -4207590.24045  -3208627.33261
  20885680.8624  -13591878.01647 -10591029.08263
  21257694.901   -14408314.194 7 -10477656.35521
  20409194.581   -20884527.393 7 -16219278.31823
 91  4 18  0  7 29.9990000  0  4G15G 2G13G 6
  23432464.753    -4197390.423 5  -3200679.43221
  20887167.6444  -13584062.43147 -10584939.01363
  21250452.6674  -14446376.30647 -10507315.04261
  20407281.190   -20894588.799 7 -16227118.35623
 91  4 18  0  7 44.9990000  0  4G15G 2G13G 6
  23434432.1984   -4187047.63645  -3192620.12061
  20888664.5504  -13576197.57247 -10578810.54463
  21243232.378   -14484314.930 7 -10536877.50321
  20405387.620   -20904540.217 7 -16234872.69023
 91  4 18  0  7 59.9990000  0  4G15G 2G13G 6
  23436424.8084   -4176563.69445  -3184450.81261
  20890171.5654  -13568285.08747 -10572644.96663
  21236034.886   -14522131.424 7 -10566344.79521
  20403512.847   -20914382.999 7 -16242542.37122
 91  4 18  0  8 14.9990000  0  4G15G 2G13G 6
  23438448.7144   -4165936.64345  -3176169.98761
  20891684.3864  -13560323.08547 -10566440.80963
  21228863.237   -14559823.922 6 -10595715.47021
  20401663.167   -20924115.190 7 -16250125.87923
 91  4 18  0  8 29.9990000  0  4G15G 2G13G 6
  23440501.6204   -4155163.64545  -3167775.44561
  20893210.3154  -13552308.58547 -10560195.73763
  21221715.2614  -14597388.99347 -10624986.85661
  20399831.401   -20933733.420 7 -16257620.58723
 91  4 18  0  8 44.9990000  0  4G15G 2G13G 6
  23442578.245    -4144247.321 5  -3159269.22621
  20894744.6674  -13544244.21847 -10553911.81463
  21214589.714   -14634829.298 7 -10654161.01521
  20398022.644   -20943240.242 7 -16265028.48323
 91  4 18  0  8 59.9990000  0  4G15G 2G13G 6
  23444682.5194   -4133186.42145  -3150650.34661
  20896288.6754  -13536128.53547 -10547587.90163
  21207489.940   -14672143.206 7 -10683236.68321
  20396236.003   -20952633.967 7 -16272348.25223
 91  4 18  0  9 14.9990000  0  4G15G 2G13G 6
  23446813.167    -4121983.179 5  -3141920.55921
  20897843.4724  -13527963.91347 -10541225.85463
  21200411.667   -14709332.889 7 -10712215.55921
  20394468.003   -20961916.629 7 -16279581.47823
 91  4 18  0  9 29.9990000  0  4G15G 2G13G 6
  23448969.3154   -4110637.38445  -3133079.68761
  20899406.4404  -13519749.95147 -10534825.36463
  21193358.4484  -14746397.84847 -10741097.24561
  20392723.448   -20971087.705 7 -16286727.75622
 91  4 18  0  9 44.9990000  0  4G15G 2G13G 6
  23451160.8704   -4099150.81945  -3124129.13861
  20900977.2304  -13511488.25547 -10528387.67663
  21186327.917   -14783339.510 7 -10769882.85821
  20390999.597   -20980148.605 7 -16293788.18323
 91  4 18  0  9 59.9990000  0  4G15G 2G13G 6
  23453374.2844   -4087521.08145  -3115067.02061
  20902559.0734  -13503176.52547 -10521910.99963
  21179322.972   -14820155.228 7 -10798570.32821
  20389296.558   -20989096.703 7 -16300760.71023
 91  4 18  0 10 14.9990000  0  4G15G 2G13G 6
  23455611.183    -4075749.661 5  -3105894.48521
  20904151.2224  -13494816.29847 -10515396.53963
  21172340.003   -14856846.187 7 -10827160.58721
  20387614.026   -20997933.227 7 -16307646.29922
 91  4 18  0 10 29.9990000  0  4G15G 2G13G 6
  23457876.1124   -4063834.22745  -3096609.72961
  20905752.1674  -13486405.04947 -10508842.31563
  21165383.605   -14893409.829 7 -10855651.63721
  20385954.003   -21006655.479 7 -16314442.84323
 91  4 18  0 10 44.9990000  0  4G15G 2G13G 6
  23460174.2844   -4051774.57845  -3087212.61361
  20907361.8474  -13477942.60847 -10502248.20763
  21158450.722   -14929845.761 7 -10884043.17121
  20384316.206   -21015263.132 7 -16321150.08722
 91  4 18  0 10 59.9990000  0  4G15G 2G13G 6
  23462495.605    -4039574.562 5  -3077706.12421
  20908980.0974  -13469432.64447 -10495617.06463
  21151539.300   -14966157.638 7 -10912338.03621
  20382699.495   -21023759.502 7 -16327770.61822
 91  4 18  0 11 14.9990000  0  4G15G 2G13G 6
  23464842.7224   -4027231.83245  -3068088.40961
  20910610.8154  -13460872.96047 -10488947.18063
  21144654.120   -15002342.951 7 -10940534.27921
  20381104.933   -21032142.174 7 -16334302.55522
 91  4 18  0 11 29.9990000  0  4G15G 2G13G 6
  23467217.690    -4014748.183 5  -3058360.90121
  20912247.6124  -13452265.08647 -10482239.74763
  21137791.667   -15038403.105 7 -10968632.99221
  20379531.456   -21040412.491 7 -16340746.94422
 91  4 18  0 11 44.9990000  0  4G15G 2G13G 6
  23469624.167    -4002121.859 5  -3048522.22121
  20913894.9564  -13443607.40447 -10475493.50163
  21130953.5974  -15074336.21147 -10996632.71761
  20377978.425   -21048568.546 7 -16347102.29422
 91  4 18  0 11 59.9990000  0  4G15G 2G13G 6
  23472050.253    -3989351.008 5  -3038570.92121
  20915553.3394  -13434897.80047 -10468706.79663
  21124140.2454  -15110140.09947 -11024531.76361
  20376449.034   -21056608.189 7 -16353366.93822
 91  4 18  0 12 14.9990000  0  4G15G 2G13G 6
  23474509.5974   -3976440.51745  -3028510.80061
  20917218.6364  -13426141.23347 -10461883.49763
  21117351.1444  -15145819.45447 -11052333.75661
  20374940.355   -21064535.968 7 -16359544.41423
 91  4 18  0 12 29.9990000  0  4G15G 2G13G 6
  23476993.5814   -3963388.59445  -3018340.47861
  20918893.5264  -13417335.72347 -10455022.06163
  21110586.1514  -15181371.93847 -11080036.90061
  20373454.347   -21072349.535 7 -16365632.89022
 91  4 18  0 12 44.9990000  0  4G15G 2G13G 6
  23479502.6204   -3950198.00645  -3008062.10861
  20920579.6284  -13408483.92747 -10448124.55863
  21103843.0504  -15216800.41247 -11107643.41261
  20371987.847   -21080051.610 7 -16371634.49322
 91  4 18  0 12 59.9990000  0  4G15G 2G13G 6
  23482037.362    -3936861.276 5  -2997669.86921
  20922273.5034  -13399578.28847 -10441185.10063
  21097126.4334  -15252096.86847 -11135147.05661
  20370545.151   -21087634.281 7 -16377543.04722
 91  4 18  0 13 14.9990000  0  4G15G 2G13G 6
  23484604.8084   -3923379.05145  -2987164.26261
  20923977.9174  -13390619.29047 -10434204.06363
  21090435.5114  -15287261.96747 -11162548.33261
  20369125.597   -21095097.985 7 -16383358.90422
 91  4 18  0 13 29.9990000  0  4G15G 2G13G 6
  23487195.7534   -3909755.87045  -2976548.79261
  20925693.3704  -13381611.36047 -10427184.90063
  21083767.7694  -15322299.87647 -11189850.51761
  20367725.776   -21102446.801 7 -16389085.23822
 91  4 18  0 13 44.9990000  0  4G15G 2G13G 6
  23489814.2614   -3895994.03045  -2965825.28861
  20927415.7064  -13372556.96747 -10420129.53063
  21077123.300   -15357212.786 7 -11217055.29921
  20366348.831   -21109683.082 7 -16394723.87822
 91  4 18  0 13 59.9990000  0  4G15G 2G13G 6
  23492462.1284   -3882090.22145  -2954991.15461
  20929148.3084  -13363452.54447 -10413035.17663
  21070503.519   -15391997.003 7 -11244159.79621
  20364994.917   -21116802.990 7 -16400271.84322
 91  4 18  0 14 14.9990000  0  4G15G 2G13G 6
  23495136.8154   -3868045.56345  -2944047.27961
  20930889.2614  -13354299.11747 -10405902.63763
  21063909.5034  -15426653.22247 -11271164.55861
  20363660.769   -21123807.274 7 -16405729.70722
 91  4 18  0 14 29.9990000  0  4G15G 2G13G 6
  23497838.4334   -3853857.83445  -2932991.90961
  20932642.1204  -13345094.35847 -10398730.09963
  21057338.800   -15461179.026 7 -11298067.69621
  20362350.776   -21130693.440 7 -16411095.53222
 91  4 18  0 14 44.9990000  0  4G15G 2G13G 6
  23500562.6984   -3839524.04845  -2921822.73361
  20934404.0814  -13335834.78447 -10391514.84663
  21050793.8864  -15495570.89347 -11324866.46961
  20361064.011   -21137457.703 7 -16416366.36622
 91  4 18  0 14 59.9990000  0  4G15G 2G13G 6
  23503317.7844   -3825050.41745  -2910544.58161
  20936175.1834  -13326526.87947 -10384261.93463
  21044274.5424  -15529835.07647 -11351565.74261
  20359798.261   -21144106.395 7 -16421547.15022
 91  4 18  0 15 14.9990000  0  4G15G 2G13G 6
  23506100.0264   -3810432.78745  -2899154.21761
  20937954.8704  -13317166.73447 -10376968.31463
  21037779.0894  -15563967.46247 -11378162.31761
  20358557.487   -21150635.322 7 -16426634.60822
 91  4 18  0 15 29.9990000  0  4G15G 2G13G 6
  23508907.5034   -3795674.07545  -2887653.91861
  20939746.3474  -13307756.94347 -10369636.01063
  21031307.4804  -15597970.88847 -11404658.40661
  20357335.448   -21157047.004 7 -16431630.70722
 91  4 18  0 15 44.9990000  0  4G15G 2G13G 6
  23511745.3704   -3780771.59945  -2876041.60161
  20941547.3784  -13298294.32647 -10362262.54663
  21024862.2534  -15631841.85547 -11431051.27661
  20356138.753   -21163338.120 7 -16436532.85522
 91  4 18  0 15 59.9990000  0  4G15G 2G13G 6
  23514605.8704   -3765727.81245  -2864319.16361
  20943357.6514  -13288781.66247 -10354850.08463
  21018441.433   -15665582.815 7 -11457342.84921
  20354963.667   -21169510.978 7 -16441342.85622
 91  4 18  0 16 14.9990000  0  4G15G 2G13G 6
  23517495.1284   -3750544.58545  -2852488.08861
  20945178.1514  -13279220.83747 -10347400.09263
  21012044.5974  -15699195.48347 -11483534.45161
  20353810.823   -21175567.455 7 -16446062.16022
 91  4 18  0 16 29.9990000  0  4G15G 2G13G 6
  23520413.8234   -3735221.35745  -2840547.91661
  20947006.0974  -13269610.75847 -10339911.72063
  21005673.3704  -15732678.75347 -11509625.22661
  20352681.230   -21181506.157 7 -16450689.71222
 91  4 18  0 16 44.9990000  0  4G15G 2G13G 6
  23523355.8624   -3719755.12645  -2828496.31761
  20948843.3084  -13259948.63147 -10332382.79263
  20999326.7534  -15766029.69547 -11535612.88761
  20351574.620   -21187324.174 7 -16455223.21622
 91  4 18  0 16 59.9990000  0  4G15G 2G13G 6
  23526324.417    -3704145.434 5  -2816332.94421
  20950693.0264  -13250233.60147 -10324812.63863
  20993005.3864  -15799247.07847 -11561496.47261
  20350490.933   -21193020.448 7 -16459661.85422
 91  4 18  0 17 14.9990000  0  4G15G 2G13G 6
  23529320.026    -3688395.684 5  -2804060.42521
  20952550.7844  -13240469.16447 -10317203.98663
  20986709.706   -15832334.494 7 -11587278.79421
  20349428.980   -21198598.276 7 -16464008.19922
 91  4 18  0 17 29.9990000  0  4G15G 2G13G 6
  23532345.370    -3672507.255 5  -2791679.85321
  20954418.8314  -13230656.49247 -10309557.74963
  20980437.230   -15865292.878 7 -11612960.56521
  20348389.167   -21204058.643 7 -16468263.01822
 91  4 18  0 17 44.9990000  0  4G15G 2G13G 6
  23535396.1514   -3656477.68245  -2779189.28861
  20956296.1984  -13220792.92147 -10301871.85163
  20974191.058   -15898119.452 7 -11638539.64221
  20347373.675   -21209398.434 7 -16472423.87522
 91  4 18  0 17 59.9990000  0  4G15G 2G13G 6
  23538473.7534   -3640308.15945  -2766589.67261
  20958182.8154  -13210879.73747 -10294147.29363
  20967969.401   -15930815.185 7 -11664016.75921
  20346379.683   -21214618.883 7 -16476491.74822
 91  4 18  0 18 14.9990000  0  4G15G 2G13G 6
  23541577.8784   -3623995.93645  -2753878.83961
  20960077.8084  -13200913.99947 -10286381.78863
  20961772.5814  -15963377.24147 -11689389.70661
  20345410.105   -21219717.014 7 -16480464.30122
 91  4 18  0 18 29.9990000  0  4G15G 2G13G 6
  23544708.7144   -3607541.26745  -2741057.03361
  20961983.2454  -13190895.95747 -10278575.52063
  20955601.745   -15995805.762 7 -11714658.60221
  20344464.6284  -21224692.58247 -16484341.35562
 91  4 18  0 18 44.9990000  0  4G15G 2G13G 6
  23547865.730    -3590947.000 5  -2728126.44621
  20963900.9804  -13180828.10147 -10270730.43563
  20949455.5734  -16028102.92547 -11739825.13161
  20343539.4564  -21229548.09447 -16488124.86162
 91  4 18  0 18 59.9990000  0  4G15G 2G13G 6
  23551048.4484   -3574213.30145  -2715087.20661
  20965826.3154  -13170710.77947 -10262846.80463
  20943334.628   -16060268.962 7 -11764889.49821
  20342637.784   -21234283.612 7 -16491814.86122
 91  4 18  0 19 14.9990000  0  4G15G 2G13G 6
  23554263.0654   -3557337.86545  -2701937.52661
  20967760.8704  -13160541.43647 -10254922.64063
  20937239.4014  -16092301.33747 -11789849.70161
  20341760.855   -21238896.331 7 -16495409.17422
 91  4 18  0 19 29.9990000  0  4G15G 2G13G 6
  23557501.034    -3540322.650 5  -2688678.93221
  20969705.2614  -13150321.84647 -10246959.32163
  20931167.933   -16124201.483 7 -11814706.87521
  20340905.972   -21243387.835 7 -16498909.03622
 91  4 18  0 19 44.9990000  0  4G15G 2G13G 6
  23560760.737    -3523174.697 5  -2675316.90421
  20971658.6754  -13140058.87147 -10238962.19263
  20925122.019   -16155976.332 7 -11839466.41821
  20340073.815   -21247764.792 7 -16502319.64022
 91  4 18  0 19 59.9990000  0  4G15G 2G13G 6
  23564054.175    -3505887.083 5  -2661846.04921
  20973621.3314  -13129745.48047 -10230925.78463
  20919100.956   -16187618.875 7 -11864122.86421
  20339262.956   -21252020.137 7 -16505635.48222
 91  4 18  0 20 14.9990000  0  4G15G 2G13G 6
  23567369.011    -3488461.608 5  -2648267.77521
  20975593.1444  -13119383.17247 -10222851.25563
  20913103.480   -16219130.279 7 -11888677.12621
  20338477.737   -21256155.122 7 -16508857.53222
 91  4 18  0 20 29.9990000  0  4G15G 2G13G 6
  23570708.855    -3470896.120 5  -2634580.39221
  20977575.0974  -13108969.81347 -10214736.94363
  20907132.4804  -16250508.02347 -11913127.24861
  20337711.972   -21260167.381 7 -16511983.95722
 91  4 18  0 20 44.9990000  0  4G15G 2G13G 6
  23574082.3864   -3453189.46245  -2620783.00961
  20979565.9484  -13098504.16947 -10206581.89463
  20901187.144   -16281751.194 7 -11937472.50521
  20336972.214   -21264055.481 7 -16515013.63422
 91  4 18  0 20 59.9990000  0  4G15G 2G13G 6
  23577477.5584   -3435342.15645  -2606876.05461
  20981567.1594  -13087986.75647 -10198386.50363
  20895267.589   -16312860.110 7 -11961713.14921
  20336256.878   -21267819.853 7 -16517946.89722
 91  4 18  0 21 14.9990000  0  4G15G 2G13G 6
  23580896.9724   -3417359.09645  -2592863.28561
  20983577.0894  -13077421.92847 -10190154.16763
  20889371.870   -16343839.051 7 -11985852.51321
  20335562.698   -21271464.714 7 -16520787.03722
 91  4 18  0 21 29.9990000  0  4G15G 2G13G 6
  23584344.6754   -3399236.66045  -2578741.91961
  20985598.5894  -13066805.96547 -10181881.98663
  20883502.370   -16374684.020 7 -12009887.47621
  20334893.362   -21274986.013 7 -16523530.89023
 91  4 18  0 21 44.9990000  0  4G15G 2G13G 6
  23587820.1834   -3380978.69745  -2564514.94061
  20987626.8704  -13056142.95347 -10173573.14463
  20877657.909   -16405398.988 7 -12033821.14121
  20334244.644   -21278387.537 7 -16526181.41623
 91  4 18  0 21 59.9990000  0  4G15G 2G13G 6
  23591320.2454   -3362584.39745  -2550181.73361
  20989665.5734  -13045431.76347 -10165226.75763
  20871837.605   -16435982.674 7 -12057652.51321
  20333621.136   -21281668.254 7 -16528737.80422
 91  4 18  0 22 14.9990000  0  4G15G 2G13G 6
  23594847.714    -3344052.461 5  -2535741.27621
  20991714.1514  -13034671.00047 -10156841.74563
  20866043.198   -16466433.706 7 -12081380.51421
  20333019.4954  -21284826.48847 -16531198.75663
 91  4 18  0 22 29.9990000  0  4G15G 2G13G 6
  23598402.425    -3325383.331 5  -2521193.93021
  20993770.0894  -13023860.99447 -10148418.35463
  20860273.675   -16496752.223 7 -12105005.25521
  20332442.3084  -21287862.29647 -16533564.31362
 91  4 18  0 22 44.9990000  0  4G15G 2G13G 6
  23601982.620    -3306574.919 5  -2506538.04221
  20995836.3864  -13012999.55347 -10139954.89063
  20854530.761   -16526935.851 7 -12128524.89221
  20331888.7304  -21290773.16447 -16535832.51162
 91  4 18  0 22 59.9990000  0  4G15G 2G13G 6
  23605587.120    -3287633.960 5  -2491778.87221
  20997912.2374  -13002093.00747 -10131456.28063
  20848811.065   -16556991.134 7 -12151944.51321
  20331356.917   -21293565.558 7 -16538008.39122
 91  4 18  0 23 14.9990000  0  4G15G 2G13G 6
  23609214.815    -3268557.338 5  -2476913.99921
  20999996.9874  -12991138.03447 -10122919.93563
  20843116.964   -16586914.587 7 -12175261.41521
  20330849.417   -21296235.988 7 -16540089.23222
 91  4 18  0 23 29.9990000  0  4G15G 2G13G 6
  23612869.6834   -3249342.99445  -2461941.79961
  21002091.5504  -12980132.41847 -10114344.13063
  20837447.6204  -16616703.56947 -12198473.53461
  20330364.855   -21298781.896 7 -16542073.04422
 91  4 18  0 23 44.9990000  0  4G15G 2G13G 6
  23616556.151    -3229994.970 5  -2446865.44321
  21004194.1284  -12969079.90747 -10105731.78263
  20831803.214   -16646361.959 7 -12221583.89121
  20329903.276   -21301207.009 7 -16543962.73122
 91  4 18  0 23 59.9990000  0  4G15G 2G13G 6
  23620258.4644   -3210509.78445  -2431682.18361
  21006307.5034  -12957977.10747 -10097080.25063
  20826185.480   -16675886.132 7 -12244589.66421
  20329465.6444  -21303507.64047 -16545755.41762
 91  4 18  0 24 14.9990000  0  4G15G 2G13G 6
  23623996.862    -3190889.372 5  -2416393.57821
  21008428.9954  -12946825.80747 -10088390.92563
  20820591.620   -16705277.844 7 -12267492.21821
  20329051.394   -21305685.219 7 -16547452.21922
 91  4 18  0 24 29.9990000  0  4G15G 2G13G 6
  23627752.5424   -3171131.17345  -2400997.58361
  21010562.0264  -12935623.47447 -10079661.83463
  20815025.605   -16734534.556 7 -12290289.57721
  20328660.331   -21307737.165 7 -16549051.12522
 91  4 18  0 24 44.9990000  0  4G15G 2G13G 6
  23631541.081    -3151240.844 5  -2385498.63421
  21012701.8394  -12924375.46247 -10070897.15263
  20809481.823   -16763661.727 7 -12312985.99921
  20328293.0584  -21309668.77047 -16550556.26362
 91  4 18  0 24 59.9990000  0  4G15G 2G13G 6
  23635348.534    -3131217.729 5  -2369896.23121
  21014850.9174  -12913080.89447 -10062096.19263
  20803964.940   -16792658.211 7 -12335580.58221
  20327948.761   -21311479.007 7 -16551966.82022
 91  4 18  0 25 14.9990000  0  4G15G 2G13G 6
  23639184.3084   -3111056.68145  -2354186.32961
  21017009.8154  -12901734.59547 -10053254.92063
  20798471.730   -16821518.469 7 -12358069.02121
  20327627.769   -21313162.288 7 -16553278.45222
 91  4 18  0 25 29.9990000  0  4G15G 2G13G 6
  23643047.995    -3090758.738 5  -2338369.77521
  21019179.2454  -12890337.44147 -10044374.02463
  20793006.261   -16850243.566 7 -12380452.12521
  20327331.167   -21314719.511 7 -16554491.86622
 91  4 18  0 25 44.9990000  0  4G15G 2G13G 6
  23646937.003    -3070330.516 5  -2322451.69321
  21021356.2224  -12878895.89847 -10035458.53963
  20787564.534   -16878839.760 7 -12402734.79521
  20327057.9564  -21316156.96547 -16555611.94662
 91  4 18  0 25 59.9990000  0  4G15G 2G13G 6
  23650851.8234   -3049769.21245  -2306429.93061
  21023543.0734  -12867406.71447 -10026505.92963
  20782147.534   -16907303.782 7 -12424914.47121
  20326808.6124  -21317471.34447 -16556636.12862
 91  4 18  0 26 14.9990000  0  4G15G 2G13G 6
  23654789.0734   -3029073.53245  -2290303.44261
  21025737.8154  -12855868.61047 -10017515.20363
  20776756.565   -16935634.246 7 -12446990.07721
  20326581.7224  -21318660.98147 -16557563.10862
 91  4 18  0 26 29.9990000  0  4G15G 2G13G 6
  23658751.4954   -3008247.23845  -2274075.16861
  21027942.6054  -12844285.09347 -10008489.08463
  20771389.597   -16963834.645 7 -12468964.33321
  20326378.073   -21319729.440 7 -16558395.66622
 91  4 18  0 26 44.9990000  0  4G15G 2G13G 6
  23662740.245    -2987287.430 5  -2257742.87121
  21030155.9174  -12832653.01847  -9999425.13463
  20766048.417   -16991901.831 7 -12490834.79821
  20326198.472   -21320673.446 7 -16559131.24022
 91  4 18  0 26 59.9990000  0  4G15G 2G13G 6
  23666753.3314   -2966195.16545  -2241307.35861
  21032379.1444  -12820973.27947  -9990324.04563
  20760732.745   -17019836.496 7 -12512601.99921
  20326041.339   -21321493.413 7 -16559770.16822
 91  4 18  0 27 14.9990000  0  4G15G 2G13G 6
  23670792.2924   -2944967.57845  -2224766.38561
  21034610.9954  -12809242.89347  -9981183.48563
  20755442.925   -17047635.577 7 -12534263.54621
  20325909.8004  -21322186.52147 -16560310.24062
 91  4 18  0 27 29.9990000  0  4G15G 2G13G 6
  23674858.183    -2923608.392 5  -2208122.88521
  21036852.5114  -12797465.53047  -9972006.32663
  20750178.987   -17075302.666 7 -12555822.23921
  20325802.0974  -21322756.07147 -16560754.03362
 91  4 18  0 27 44.9990000  0  4G15G 2G13G 6
  23678947.4484   -2902119.86945  -2191378.59761
  21039101.4334  -12785643.10747  -9962794.05363
  20744938.050   -17102839.459 7 -12577279.40721
  20325715.800   -21323203.816 7 -16561102.91222
 91  4 18  0 27 59.9990000  0  4G15G 2G13G 6
  23683061.276    -2880500.021 5  -2174531.98221
  21041360.7614  -12773773.34947  -9953544.89463
  20739723.0264  -17130243.69247 -12598633.27961
  20325656.011   -21323527.444 7 -16561355.07222
 91  4 18  0 28 14.9990000  0  4G15G 2G13G 6
  23687199.2694   -2858747.38845  -2157581.90661
  21043628.2534  -12761854.86247  -9944257.76963
  20734533.9174  -17157513.83347 -12619882.66561
  20325616.503   -21323725.390 7
 91  4 18  0 28 29.9990000  0  4G15G 2G13G 6
  23691362.5264   -2836861.64645  -2140528.11661
  21045905.6904  -12749886.81047  -9934932.02063
  20729368.839   -17184649.208 7 -12641027.04021
  20325604.269   -21323796.614 7
 91  4 18  0 28 44.9990000  0  4G15G 2G13G 6
  23695553.8004   -2814846.23545  -2123373.28161
  21048191.1364  -12737872.50147  -9925570.22463
  20724230.6054  -17211653.18947 -12662069.03761
  20325614.433   -21323744.400 7
 91  4 18  0 28 59.9990000  0  4G15G 2G13G 6
  23699770.2064   -2792696.63445  -2106113.87461
  21050488.3784  -12725807.25947  -9916168.74763
  20719118.269   -17238520.878 7 -12683004.82721
  20325647.776   -21323563.859 7
 91  4 18  0 29 14.9990000  0  4G15G 2G13G 6
  23704006.308    -2770416.357 5  -2088752.64321
  21052793.0894  -12713694.51147  -9906730.24863
  20714030.9954  -17265255.73647 -12703837.11461
  20325707.128   -21323258.380 7
 91  4 18  0 29 29.9990000  0  4G15G 2G13G 6
  23708273.714    -2748005.667 5  -2071289.78721
  21055106.2534  -12701534.60447  -9897255.00163
  20708967.3154  -17291857.58947 -12724565.77361
  20325788.2844  -21322827.87047 -16560809.88662
 91  4 18  0 29 44.9990000  0  4G15G 2G13G 6
  23712562.315    -2725462.511 5  -2053723.71121
  21057430.4094  -12689324.98047  -9887741.01663
  20703931.9174  -17318324.10947 -12745188.96761
  20325893.901   -21322269.895 7 -16560375.09322
 91  4 18  0 29 59.9990000  0  4G15G 2G13G 6
  23716878.8154   -2702785.98745  -2036053.70761
  21059763.1124  -12677064.68547  -9878187.54963
  20698922.9254  -17344654.07647 -12765705.76361
  20326026.9954  -21321583.11247 -16559839.93062
 91  4 18  0 30 14.9990000  0  4G15G 2G13G 6
  23721216.058    -2679980.572 5  -2018283.27121
  21062104.5584  -12664757.83647  -9868597.80363
  20693936.1904  -17370851.79947 -12786119.50761
  20326180.5264  -21320771.60847 -16559207.57962
 91  4 18  0 30 29.9990000  0  4G15G 2G13G 6
  23725581.901    -2657046.057 5  -2000412.23621
  21064456.6594  -12652403.93447  -9858971.39163
  20688976.2844  -17396916.80547 -12806429.83761
  20326358.8864  -21319834.89147 -16558477.66262
 91  4 18  0 30 44.9990000  0  4G15G 2G13G 6
  23729968.862    -2633981.247 5  -1982439.66721
  21066816.7064  -12640001.84447  -9849307.43463
  20684042.3234  -17422847.91947 -12826635.83861
  20326559.112   -21318771.532 7 -16557649.06022
 91  4 18  0 30 59.9990000  0  4G15G 2G13G 6
  23734384.175    -2610784.085 5  -1964363.97421
  21069185.7924  -12627549.19347  -9839604.07363
  20679133.4484  -17448642.56247 -12846735.49661
  20326786.487   -21317578.977 7 -16556719.78622
 91  4 18  0 31 14.9990000  0  4G15G 2G13G 6
  23738823.8944   -2587457.40945  -1946187.37861
  21071564.8554  -12615048.78447  -9829863.50563
  20674249.4334  -17474303.43147 -12866730.92261
  20327037.9174  -21316260.00647 -16555692.01162
 91  4 18  0 31 29.9990000  0  4G15G 2G13G 6
  23743289.0894   -2563997.58245  -1927907.03661
  21073952.5734  -12602496.62647  -9820082.60563
  20669393.1054  -17499826.55347 -12886619.00561
  20327314.5194  -21314810.39747 -16554562.43962
 91  4 18  0 31 44.9990000  0  4G15G 2G13G 6
  23747777.972    -2540408.961 5  -1909526.34421
  21076350.7924  -12589896.77447  -9810264.54663
  20664561.5194  -17525216.09847 -12906403.00761
  20327614.5264  -21313234.08847 -16553334.13962
 91  4 18  0 31 59.9990000  0  4G15G 2G13G 6
  23752288.9174   -2516691.69245  -1891045.38561
  21078757.5814  -12577249.28647  -9800409.36863
  20659755.7144  -17550471.79047 -12926082.70561
  20327937.9954  -21311531.03947 -16552007.07962
 91  4 18  0 32 14.9990000  0  4G15G 2G13G 6
  23756828.394    -2492840.966 5  -1872460.42221
  21081174.8314  -12564549.05047  -9790513.08463
  20654975.5194  -17575588.64947 -12945654.22161
  20328287.2304  -21309696.07047 -16550577.22962
 91  4 18  0 32 29.9990000  0  4G15G 2G13G 6
  23761392.3624   -2468864.30845  -1853777.33761
  21083600.3234  -12551803.42747  -9780581.43963
  20650221.5584  -17600573.65247 -12965122.99261
  20328660.1284  -21307736.25247 -16549050.09262
 91  4 18  0 32 44.9990000  0  4G15G 2G13G 6
  23765980.0344   -2444759.17645  -1834994.13461
  21086034.8314  -12539009.70947  -9770612.32263
  20645492.6444  -17625424.37747 -12984487.12961
  20329057.5344  -21305648.89047 -16547423.57262
 91  4 18  0 32 59.9990000  0  4G15G 2G13G 6
  23770589.511    -2420526.257 5  -1816111.36421
  21088477.8234  -12526168.27747  -9760606.01463
  20640789.5814  -17650141.26247 -13003746.98261
  20329479.1514  -21303434.24147 -16545697.87062
 91  4 18  0 33 14.9990000  0  4G15G 2G13G 6
  23775225.7844   -2396166.12045  -1797129.46861
  21090930.3864  -12513279.44347  -9750562.77363
  20636111.3944  -17674724.44147 -13022902.64161
  20329925.0974  -21301092.47447 -16543873.10862
 91  4 18  0 33 29.9990000  0  4G15G 2G13G 6
  23779887.5194   -2371675.74145  -1778046.09461
  21093393.0894  -12500340.03347  -9740480.12263
  20631458.7534  -17699170.85947 -13041951.74661
  20330395.2374  -21298620.12347 -16541946.59662
 91  4 18  0 33 44.9990000  0  4G15G 2G13G 6
  23784572.2454   -2347053.84345  -1758860.22261
  21095864.8314  -12487348.52847  -9730356.88063
  20626832.5584  -17723479.17947 -13060893.22961
  20330890.0584  -21296015.81347 -16539917.26062
 91  4 18  0 33 59.9990000  0  4G15G 2G13G 6
  23789281.8624   -2322300.15445  -1739571.65761
  21098346.7614  -12474304.78947  -9720192.93663
  20622234.3474  -17747648.92647 -13079726.73961
  20331411.3784  -21293279.13747 -16537784.78462
 91  4 18  0 34 14.9990000  0  4G15G 2G13G 6
  23794016.253    -2297418.775 5  -1720183.58721
  21100838.5114  -12461212.43547  -9709991.10963
  20617659.8154  -17771683.70947 -13098455.08562
  20331957.1904  -21290413.46547 -16535551.79262
 91  4 18  0 34 29.9990000  0  4G15G 2G13G 6
  23798776.050    -2272405.819 5  -1700692.99021
  21103340.5584  -12448067.13247  -9699748.02063
  20613112.5814  -17795579.10947 -13117074.82161
  20332525.8314  -21287414.58247 -16533214.99462
 91  4 18  0 34 44.9990000  0  4G15G 2G13G 6
  23803559.987    -2247269.506 5  -1681106.27321
  21105849.1124  -12434876.89547  -9689469.92063
  20608590.4954  -17819343.13347 -13135592.18861
  20333122.8154  -21284290.28247 -16530780.47662
 91  4 18  0 34 59.9990000  0  4G15G 2G13G 6
  23808369.198    -2222007.157 5  -1661421.34521
  21108369.5264  -12421638.80347  -9679154.52763
  20604093.6904  -17842972.68347 -13154004.75861
  20333739.8474  -21281037.60447 -16528245.91662
 91  4 18  0 35 14.9990000  0  4G15G 2G13G 6
  23813199.6284   -2196614.60745  -1641634.95361
  21110897.8944  -12408348.96347  -9668798.81263
  20599622.9724  -17866463.79647 -13172309.46561
  20334385.5194  -21277652.23547 -16525607.95962
 91  4 18  0 35 29.9990000  0  4G15G 2G13G 6
  23818057.2694   -2171092.37845  -1621747.52261
  21113437.5504  -12395007.13647  -9658402.58963
  20595178.9564  -17889816.48447 -13190506.30861
  20335054.0264  -21274134.12647 -16522866.57162
 91  4 18  0 35 44.9990000  0  4G15G 2G13G 6
  23822939.315    -2145437.431 5  -1601756.66821
  21115987.6204  -12381610.29247  -9647963.50163
  20590762.5504  -17913027.50747 -13208592.75261
  20335750.1444  -21270480.09147 -16520019.26862
 91  4 18  0 35 59.9990000  0  4G15G 2G13G 6
  23827844.4484   -2119655.09545  -1581666.54561
  21118545.2844  -12368163.40247  -9637485.41163
  20586371.9094  -17936102.03247 -13226572.84461
  20336470.9564  -21266694.91747 -16517069.78262
 91  4 18  0 36 14.9990000  0  4G15G 2G13G 6
  23832777.7144   -2093740.74445  -1561473.56661
  21121114.0734  -12354661.70947  -9626964.61863
  20582008.2224  -17959035.04647 -13244442.66761
  20337216.7224  -21262773.57347 -16514014.18462
 91  4 18  0 36 29.9990000  0  4G15G 2G13G 6
  23837731.8154   -2067699.71645  -1541181.87161
  21123694.0974  -12341110.43847  -9616405.19863
  20577669.237   -17981831.763 7 -13262206.28721
  20337986.2374  -21258721.23447 -16510856.51462
 91  4 18  0 36 44.9990000  0  4G15G 2G13G 6
  23842712.4174   -2041532.22545  -1520791.62961
  21126282.5194  -12327509.43847  -9605807.02463
  20573357.2064  -18004492.25147 -13279863.75361
  20338782.3314  -21254537.76847 -16507596.67462
 91  4 18  0 36 59.9990000  0  4G15G 2G13G 6
  23847715.2144   -2015239.08045  -1500303.47461
  21128879.6904  -12313859.31847  -9595170.57663
  20569070.4334  -18027017.20847 -13297415.60762
  20339603.5194  -21250223.74147 -16504235.09062
 91  4 18  0 37 14.9990000  0  4G15G 2G13G 6
  23852743.3624   -1988815.16345  -1479713.44461
  21131488.1984  -12300154.60147  -9584491.57763
  20564811.4484  -18049400.69147 -13314857.22361
  20340450.5424  -21245773.37147 -16500767.26562
 91  4 18  0 37 29.9990000  0  4G15G 2G13G 6
  23857794.4094   -1962265.55745  -1459025.44361
  21134104.9804  -12286400.22247  -9573773.88663
  20560577.8394  -18071647.92247 -13332192.66662
  20341322.0504  -21241191.56447 -16497197.02862
 91  4 18  0 37 44.9990000  0  4G15G 2G13G 6
  23862871.9404   -1935584.97545  -1438235.42461
  21136733.6904  -12272590.53047  -9563013.09263
  20556371.0734  -18093753.25347 -13349417.54161
  20342220.1124  -21236472.72847 -16493520.01362
 91  4 18  0 37 59.9990000  0  4G15G 2G13G 6
  23867971.370    -1908775.633 5  -1417345.05421
  21139370.0194  -12258727.54947  -9552210.77863
  20552191.3154  -18115718.62347 -13366533.35261
  20343144.6444  -21231618.74047 -16489737.68262
 91  4 18  0 38 14.9990000  0  4G15G 2G13G 6
  23873100.5264   -1881839.05545  -1396355.52161
  21142016.6204  -12244812.44447  -9541367.84863
  20548037.4804  -18137545.51847 -13383541.26161
  20344094.8394  -21226630.63147 -16485850.84362
 91  4 18  0 38 29.9990000  0  4G15G 2G13G 6
  23878251.440    -1854773.877 5  -1375265.80521
  21144677.1444  -12230843.91947  -9530483.29263
  20543910.3004  -18159232.32447 -13400440.01262
  20345069.6204  -21221507.02447 -16481858.41862
 91  4 18  0 38 44.9990000  0  4G15G 2G13G 6
  23883425.0974   -1827582.02845  -1354077.37461
  21147345.6514  -12216823.24047  -9519558.09563
  20539809.6754  -18180780.43947 -13417230.69361
  20346068.5424  -21216249.20147 -16477761.41362
 91  4 18  0 38 59.9990000  0  4G15G 2G13G 6
  23888621.964    -1800265.901 5  -1332792.09221
  21150021.1054  -12202752.67447  -9508594.02363
  20535735.4564  -18202191.98447 -13433914.95662
  20347095.8704  -21210859.06947 -16473561.30862
 91  4 18  0 39 14.9990000  0  4G15G 2G13G 6
  23893846.1124   -1772821.98945  -1311407.25361
  21152709.9174  -12188628.95247  -9497588.53063
  20531687.4254  -18223463.63647 -13450490.20761
  20348145.9804  -21205333.27647 -16469255.49462
 91  4 18  0 39 29.9990000  0  4G15G 2G13G 6
  23899090.769    -1745253.097 5  -1289925.01721
  21155406.6674  -12174454.36247  -9486543.40063
  20527666.362   -18244597.572 7 -13466958.15021
  20349223.5654  -21199674.14647 -16464845.78762
 91  4 18  0 39 44.9990000  0  4G15G 2G13G 6
  23904361.8234   -1717557.40445  -1268343.99261
  21158115.0114  -12160226.72547  -9475456.93463
  20523671.3234  -18265592.02547 -13483317.41261
  20350326.5584  -21193879.27747 -16460330.30162
 91  4 18  0 39 59.9990000  0  4G15G 2G13G 6
  23909657.042    -1689738.068 5  -1246666.61521
  21160830.0814  -12145949.03447  -9464331.46863
  20519702.3084  -18286449.86747 -13499570.22161
  20351455.0424  -21187951.81447 -16455711.49262
 91  4 18  0 40 14.9990000  0  4G15G 2G13G 6
  23914974.4094   -1661787.82645  -1224887.23461
  21163560.3554  -12131613.61547  -9453161.01863
  20515760.198   -18307163.440 7 -13515710.61021
  20352608.0344  -21181883.83947 -16450983.20662
 91  4 18  0 40 29.9990000  0  4G15G 2G13G 6
  23920315.214    -1633709.546 5  -1203008.08621
  21166297.5424  -12117223.18547  -9441947.70463
  20511845.745   -18327735.325 7 -13531740.59621
  20353790.2144  -21175677.93547 -16446147.43462
 91  4 18  0 40 44.9990000  0  4G15G 2G13G 6
  23925685.511    -1605505.456 5  -1181030.89021
  21169045.3314  -12102779.84847  -9430693.15763
  20507957.8784  -18348167.68147 -13547661.85662
  20354998.1364  -21169336.16047 -16441205.79162
 91  4 18  0 40 59.9990000  0  4G15G 2G13G 6
  23931074.300    -1577176.452 5  -1158956.36421
  21171803.9484  -12088284.12047  -9419397.79063
  20504094.6984  -18368461.06447 -13563474.83361
  20356229.3704  -21162858.96247 -16436158.62662
 91  4 18  0 41 14.9990000  0  4G15G 2G13G 6
  23936491.1514   -1548721.54645  -1136783.73561
  21174572.8004  -12073734.85047  -9408060.70563
  20500260.3314  -18388614.14747 -13579178.47761
  20357486.6514  -21156244.97847 -16431004.87462
 91  4 18  0 41 29.9990000  0  4G15G 2G13G 6
  23941926.9334   -1520144.02745  -1114515.57361
  21177353.5504  -12059134.88747  -9396684.11563
  20496451.034   -18408629.939 7 -13594775.14821
  20358771.3624  -21149497.16447 -16425746.83562
 91  4 18  0 41 44.9990000  0  4G15G 2G13G 6
  23947388.9564   -1491441.64845  -1092150.10761
  21180141.3864  -12044481.76547  -9385266.10263
  20492669.933   -18428506.048 7 -13610262.97022
  20360080.7304  -21142612.82247 -16420382.41762
 91  4 18  0 41 59.9990000  0  4G15G 2G13G 6
  23952876.222    -1462612.320 5  -1069685.72921
  21182940.5344  -12029773.07847  -9373804.80063
  20488914.136   -18448240.327 7 -13625640.28221
  20361417.3234  -21135589.59447 -16414909.77262
 91  4 18  0 42 14.9990000  0  4G15G 2G13G 6
  23958384.737    -1433658.687 5  -1047124.47421
  21185748.1444  -12015011.24147  -9362302.07763
  20485185.151   -18467834.861 7 -13640908.69521
  20362780.1834  -21128429.67847 -16409330.62262
 91  4 18  0 42 29.9990000  0  4G15G 2G13G 6
  23963918.8864   -1404582.35045  -1024467.62661
  21188567.2924  -12000197.39747  -9350758.83263
  20481483.667   -18487291.165 7 -13656069.40621
  20364169.0584  -21121134.39147 -16403645.98662
 91  4 18  0 42 44.9990000  0  4G15G 2G13G 6
  23969477.628    -1375380.969 5  -1001713.32421
  21191396.0344  -11985329.14047  -9339173.18363
  20477807.003   -18506606.560 7 -13671120.30921
  20365583.8474  -21113701.12547 -16397853.83662
 91  4 18  0 42 59.9990000  0  4G15G 2G13G 6
  23975056.3314   -1346053.81645   -978861.01561
  21194235.4644  -11970405.77947  -9327544.60063
  20474158.409   -18525780.265 7 -13686060.81221
  20367026.6054  -21106128.92547 -16391953.42462
 91  4 18  0 43 14.9990000  0  4G15G 2G13G 6
  23980661.7694   -1316603.04545   -955912.38261
  21197087.4804  -11955428.92747  -9315874.33663
  20470536.097   -18544814.102 7 -13700892.32222
  20368491.6364  -21098419.38047 -16385945.99662
 91  4 18  0 43 29.9990000  0  4G15G 2G13G 6
  23986288.675    -1287030.136 5   -932868.58721
  21199946.8154  -11940399.75947  -9304163.30563
  20466940.401   -18563709.192 7 -13715615.72522
  20369983.6514  -21090573.80647 -16379832.56662
 91  4 18  0 43 44.9990000  0  3G 2G13G 6
  21202816.0114  -11925317.22347  -9292410.69063
  20463371.542   -18582464.743 7 -13730230.38821
  20371505.8084  -21082591.00847 -16373612.21262
 91  4 18  0 43 59.9990000  0  3G 2G13G 6
  21205697.9724  -11910184.85047  -9280619.24263
  20459828.214   -18601084.301 7 -13744739.08422
  20373046.9724  -21074474.53747 -16367287.69762
 91  4 18  0 44 14.9990000  0  3G 2G13G 6
  21208585.034   -11894997.463 7  -9268784.92623
  20456311.847   -18619562.522 7 -13759137.65222
  20374621.4804  -21066218.97847 -16360854.79962
 91  4 18  0 44 29.9990000  0  3G 2G13G 6
  21211487.6984  -11879754.29847  -9256907.14763
  20452823.144   -18637898.746 7 -13773425.56922
  20376215.7064  -21057823.54747 -16354312.91462
 91  4 18  0 44 44.9990000  0  3G 2G13G 6
  21214397.6124  -11864452.40547  -9244983.60763
  20449360.831   -18656090.097 7 -13787600.60122
  20377842.9404  -21049285.25247 -16347659.70462
 91  4 18  0 44 59.9990000  0  3G 2G13G 6
  21217320.370   -11849096.126 7  -9233017.68823
  20445925.730   -18674140.993 7 -13801666.18722
  20379492.6834  -21040608.21247 -16340898.38662
 91  4 18  0 45 14.9990000  0  3G 2G13G 6
  21220253.456   -11833687.716 7  -9221011.15223
  20442517.878   -18692053.634 7 -13815624.04721
  20381167.9174  -21031794.77747 -16334030.78562
 91  4 18  0 45 29.9990000  0  3G 2G13G 6
  21223195.909   -11818227.036 7  -9208963.88123
  20439135.612   -18709827.874 7 -13829474.05521
  20382872.8864  -21022844.73447 -16327056.73562
 91  4 18  0 45 44.9990000  0  3G 2G13G 6
  21226147.073   -11802710.020 7  -9196872.71523
  20435779.565   -18727459.883 7 -13843213.23522
  20384604.7844  -21013753.96947 -16319973.03262
 91  4 18  0 45 59.9990000  0  3G 2G13G 6
  21229109.698   -11787139.642 7  -9184739.97023
  20432450.933   -18744952.636 7 -13856843.90921
  20386360.7224  -21004525.45847 -16312781.99362
 91  4 18  0 46 14.9990000  0  3G 2G13G 6
  21232083.800   -11771512.771 7  -9172563.20023
  20429148.980   -18762303.037 7 -13870363.65422
  20388143.9334  -20995156.05347 -16305481.16662
 91  4 18  0 46 29.9990000  0  3G 2G13G 6
  21235068.315   -11755826.370 7  -9160340.04623
  20425874.378   -18779508.296 7 -13883770.30022
  20389953.9254  -20985642.62247 -16298068.11462
 91  4 18  0 46 44.9990000  0  3G 2G13G 6
  21238062.331   -11740089.585 7  -9148077.63723
  20422627.034   -18796577.289 7 -13897070.77821
  20391789.7224  -20975994.20647 -16290549.88962
 91  4 18  0 46 59.9990000  0  3G 2G13G 6
  21241068.5034  -11724296.84747  -9135771.61763
  20419405.995   -18813504.413 7 -13910260.69622
  20393653.6204  -20966205.17647 -16282922.08162
 91  4 18  0 47 14.9990000  0  3G 2G13G 6
  21244085.190   -11708448.262 7  -9123422.08623
  20416210.784   -18830289.877 7 -13923340.23421
  20395541.8704  -20956275.49047 -16275184.67062
 91  4 18  0 47 29.9990000  0  3G 2G13G 6
  21247113.425   -11692543.480 7  -9111028.76623
  20413043.894   -18846933.693 7 -13936309.39621
  20397456.8864  -20946204.81947 -16267337.40462
 91  4 18  0 47 44.9990000  0  3G 2G13G 6
  21250150.323   -11676582.742 7  -9098591.84623
  20409903.706   -18863435.966 7 -13949168.26422
  20399399.8704  -20935993.35247 -16259380.42662
 91  4 18  0 47 59.9990000  0  3G 2G13G 6
  21253195.605   -11660565.866 7  -9086111.17523
  20406791.042   -18879796.512 7 -13961916.69921
  20401372.6284  -20925640.88447 -16251313.57362
 91  4 18  0 48 14.9990000  0  3G 2G13G 6
  21256256.3394  -11644494.67747  -9073588.18463
  20403703.4484  -18896017.20747 -13974556.16062
  20403366.4334  -20915149.24547 -16243138.27962
 91  4 18  0 48 29.9990000  0  3G 2G13G 6
  21259323.636   -11628368.937 7  -9061022.68623
  20400643.386   -18912097.717 7 -13987086.38122
  20405390.8624  -20904518.00547 -16234854.20462
 91  4 18  0 48 44.9990000  0  3G 2G13G 6
  21262404.081   -11612185.913 7  -9048412.55123
  20397610.542   -18928035.827 7 -13999505.64322
  20407440.2374  -20893744.67247 -16226459.40762
 91  4 18  0 48 59.9990000  0  3G 2G13G 6
  21265492.183   -11595948.104 7  -9035759.72723
  20394604.612   -18943834.114 7 -14011815.95422
  20409517.7064  -20882831.56147 -16217955.69162
 91  4 18  0 49 14.9990000  0  3G 2G13G 6
  21268595.112   -11579656.869 7  -9023065.27023
  20391624.823   -18959493.781 7 -14024018.25022
  20411619.1594  -20871779.95647 -16209344.05962
 91  4 18  0 49 29.9990000  0  3G 2G13G 6
  21271703.308   -11563312.193 7  -9010329.17423
  20388670.144   -18975015.056 7 -14036112.70422
  20413751.4334  -20860589.92747 -16200624.56462
 91  4 18  0 49 44.9990000  0  3G 2G13G 6
  21274824.5424  -11546912.87647  -8997550.49563
  20385743.870   -18990396.658 7 -14048098.32322
  20415905.4014  -20849259.97847 -16191796.03762
 91  4 18  0 49 59.9990000  0  3G 2G13G 6
  21277956.948   -11530459.020 7  -8984729.32323
  20382843.394   -19005638.868 7 -14059975.32721
  20418086.8154  -20837790.45247 -16182858.75462
 91  4 18  0 50 14.9990000  0  3G 2G13G 6
  21281097.7694  -11513953.94147  -8971868.22963
  20379969.339   -19020744.924 7 -14071746.23622
  20420295.6984  -20826184.59247 -16173815.23362
 91  4 18  0 50 29.9990000  0  3G 2G13G 6
  21284249.2614  -11497395.91247  -8958965.88063
  20377120.206   -19035713.335 7 -14083409.88922
  20422531.7374  -20814440.54447 -16164664.03762
 91  4 18  0 50 44.9990000  0  3G 2G13G 6
  21287406.9014  -11480786.58647  -8946023.55863
  20374298.167   -19050545.516 7 -14094967.39322
  20424793.8784  -20802559.78847 -16155406.30962
 91  4 18  0 50 59.9990000  0  3G 2G13G 6
  21290579.8154  -11464123.38247  -8933039.25363
  20371500.972   -19065238.883 7 -14106416.73022
  20427080.9724  -20790539.80347 -16146040.09362
 91  4 18  0 51 14.9990000  0  3G 2G13G 6
  21293760.198   -11447410.837 7  -8920016.50123
  20368730.573   -19079798.004 7 -14117761.45222
  20429393.9874  -20778385.04847 -16136568.85662
 91  4 18  0 51 29.9990000  0  3G 2G13G 6
  21296949.769   -11430647.526 7  -8906954.19523
  20365986.4724  -19094221.79747 -14129000.72861
  20431730.8864  -20766094.10047 -16126991.50162
 91  4 18  0 51 44.9990000  0  3G 2G13G 6
  21300149.8234  -11413835.62547  -8893854.02163
  20363266.4644  -19108512.79547 -14140136.53561
  20434093.3624  -20753669.36647 -16117309.89762
 91  4 18  0 51 59.9990000  0  3G 2G13G 6
  21303358.5424  -11396973.10447  -8880714.40163
  20360572.2534  -19122668.81147 -14151167.15461
  20436484.6054  -20741108.74847 -16107522.41262
 91  4 18  0 52 14.9990000  0  3G 2G13G 6
  21306574.9804  -11380059.91947  -8867535.30363
  20357904.6834  -19136689.82547 -14162092.58361
  20438903.8154  -20728411.93647 -16097628.79662
 91  4 18  0 52 29.9990000  0  3G 2G13G 6
  21309802.9174  -11363100.81147  -8854320.42663
  20355261.519   -19150580.902 7 -14172916.75621
  20441343.0734  -20715583.88147 -16087632.92062
 91  4 18  0 52 44.9990000  0  3G 2G13G 6
  21313041.0584  -11346088.58447  -8841064.15363
  20352643.5734  -19164334.77047 -14183634.01862
  20443808.5344  -20702617.30547 -16077529.09762
 91  4 18  0 52 59.9990000  0  3G 2G13G 6
  21316286.1904  -11329025.04447  -8827767.89463
  20350052.9014  -19177953.46047 -14194245.95061
  20446306.6754  -20689513.94547 -16067318.69862
 91  4 18  0 53 14.9990000  0  3G 2G13G 6
  21319545.3474  -11311909.75447  -8814431.31563
  20347487.0584  -19191436.38947 -14204752.09061
  20448821.6594  -20676273.56447 -16057001.52762
 91  4 18  0 53 29.9990000  0  3G 2G13G 6
  21322808.8784  -11294748.07947  -8801058.59063
  20344946.3394  -19204788.98547 -14215156.67462
  20451371.0194  -20662901.23447 -16046581.54162
 91  4 18  0 53 44.9990000  0  3G 2G13G 6
  21326087.3864  -11277530.21947  -8787642.08263
  20342431.7454  -19218001.73647 -14225452.28661
  20453938.9564  -20649387.13047 -16036051.08162
 91  4 18  0 53 59.9990000  0  3G 2G13G 6
  21329372.1834  -11260268.49047  -8774191.38963
  20339941.417   -19231086.967 7 -14235648.52921
  20456535.6054  -20635743.93647 -16025420.03662
 91  4 18  0 54 14.9990000  0  3G 2G13G 6
  21332663.9014  -11242958.27147  -8760702.91563
  20337476.6834  -19244039.97747 -14245741.74761
  20459160.8864  -20621966.64447 -16014684.49462
 91  4 18  0 54 29.9990000  0  3G 2G13G 6
  21335969.6904  -11225595.67447  -8747173.62363
  20335037.5974  -19256857.14547 -14255729.11661
  20461806.3554  -20608051.23047 -16003841.32662
 91  4 18  0 54 44.9990000  0  3G 2G13G 6
  21339283.628   -11208186.119 7  -8733607.74623
  20332623.1904  -19269544.18147 -14265615.08361
  20464477.7614  -20594003.62747 -15992895.15262
 91  4 18  0 54 59.9990000  0  3G 2G13G 6
  21342606.4174  -11190727.47747  -8720003.61963
  20330235.1204  -19282099.22047 -14275398.18961
  20467177.2614  -20579821.52647 -15981844.18062
 91  4 18  0 55 14.9990000  0  3G 2G13G 6
  21345938.1364  -11173219.16647  -8706360.78463
  20327869.3394  -19294521.41247 -14285077.78661
  20469901.5344  -20565504.13647 -15970687.77962
 91  4 18  0 55 29.9990000  0  3G 2G13G 6
  21349277.9564  -11155664.14847  -8692681.55663
  20325531.1834  -19306813.90947 -14294656.32061
  20472650.8944  -20551054.50447 -15959428.33962
 91  4 18  0 55 44.9990000  0  3G 2G13G 6
  21352628.1444  -11138060.70547  -8678964.59863
  20323216.8084  -19318974.96147 -14304132.42761
  20475426.0034  -20536470.94247 -15948064.53362
 91  4 18  0 55 59.9990000  0  3G 2G13G 6
  21355986.9564  -11120409.32847  -8665210.28663
  20320926.7144  -19331005.27847 -14313506.66961
  20478226.1674  -20521753.93447 -15936596.74562
 91  4 18  0 56 14.9990000  0  3G 2G13G 6
  21359355.3944  -11102707.63247  -8651416.76563
  20318662.4644  -19342902.60447 -14322777.27362
  20481052.5504  -20506900.97747 -15925023.02362
 91  4 18  0 56 29.9990000  0  3G 2G13G 6
  21362731.2614  -11084959.02947  -8637586.69163
  20316423.8864  -19354670.40647 -14331946.95761
  20483907.1984  -20491915.63947 -15913346.14762
 91  4 18  0 56 44.9990000  0  3G 2G13G 6
  21366117.3704  -11067162.35747  -8623719.16363
  20314209.3394  -19366307.65947 -14341014.91161
  20486785.667   -20476796.820 7 -15901565.26622
 91  4 18  0 56 59.9990000  0  3G 2G13G 6
  21369516.1984  -11049313.40947  -8609810.89963
  20312020.7764  -19377810.45347 -14349978.09561
  20489685.151   -20461540.280 7 -15889677.06922
 91  4 18  0 57 14.9990000  0  3G 2G13G 6
  21372918.8314  -11031417.70147  -8595866.19962
  20309856.3084  -19389184.13547 -14358840.66661
  20492615.753   -20446151.586 7 -15877685.89322
 91  4 18  0 57 29.9990000  0  3G 2G13G 6
  21376334.2614  -11013475.82547  -8581885.52563
  20307716.5344  -19400429.39347 -14367603.17262
  20495568.948   -20430631.288 7 -15865592.17022
 91  4 18  0 57 44.9990000  0  3G 2G13G 6
  21379757.4484  -10995486.58347  -8567867.94163
  20305600.4564  -19411545.26247 -14376264.85361
  20498546.909   -20414978.076 7 -15853394.87822
 91  4 18  0 57 59.9990000  0  3G 2G13G 6
  21383190.8554  -10977449.32747  -8553812.94863
  20303509.6754  -19422531.19347 -14384825.28761
  20501551.2764  -20399191.23247 -15841093.45162
 91  4 18  0 58 14.9990000  0  3G 2G13G 6
  21386629.7064  -10959364.88847  -8539721.18863
  20301443.3864  -19433388.14747 -14393285.21761
  20504582.4174  -20383271.90247 -15828688.79162
 91  4 18  0 58 29.9990000  0  3G 2G13G 6
  21390082.6834  -10941237.67647  -8525596.09863
  20299401.7694  -19444120.75247 -14401648.25261
  20507632.3154  -20367224.45347 -15816184.29662
 91  4 18  0 58 44.9990000  0  3G 2G13G 6
  21393539.558   -10923062.174 7  -8511433.38022
  20297384.0654  -19454723.33947 -14409909.97661
  20510713.753   -20351043.106 7 -15803575.47022
 91  4 18  0 58 59.9990000  0  3G 2G13G 6
  21397004.878   -10904840.870 7  -8497234.97522
  20295390.6364  -19465198.79647 -14418072.63961
  20513819.4334  -20334730.62447 -15790864.45762
 91  4 18  0 59 14.9990000  0  3G 2G13G 6
  21400482.4404  -10886573.18647  -8483000.42662
  20293422.0654  -19475546.45747 -14426135.71161
  20516946.8624  -20318286.42147 -15778050.80462
 91  4 18  0 59 29.9990000  0  3G 2G13G 6
  21403970.0504  -10868259.85847  -8468730.31062
  20291476.3554  -19485767.28147 -14434099.96061
  20520099.2924  -20301711.31147 -15765135.14162
 91  4 18  0 59 44.9990000  0  3G 2G13G 6
  21407463.6984  -10849896.74147  -8454421.39762
  20289556.6054  -19495857.59447 -14441962.50761
  20523279.0114  -20285001.27547 -15752114.34662
 91  4 18  0 59 59.9990000  0  3G 2G13G 6
  21410967.1984  -10831488.26347  -8440077.14263
  20287659.8474  -19505821.58947 -14449726.62861
  20526484.3084  -20268160.58847 -15738991.74162
 91  4 18  1  0 14.9990000  0  3G 2G13G 6
  21414479.9254  -10813028.77447  -8425693.13562
  20285789.8864  -19515653.87047 -14457388.11161
  20529714.6984  -20251183.61247 -15725762.94062
 91  4 18  1  0 29.9990000  0  3G 2G13G 6
  21417999.159   -10794524.983 7  -8411274.60923
  20283942.3784  -19525361.21847 -14464952.24461
  20532970.847   -20234077.157 7 -15712433.24822
 91  4 18  1  0 44.9990000  0  3G 2G13G 6
  21421527.878   -10775977.678 7  -8396822.17723
  20282118.1284  -19534944.66047 -14472419.82861
  20536252.644   -20216842.147 7 -15699003.38322
 91  4 18  1  0 59.9990000  0  3G 2G13G 6
  21425066.675   -10757382.911 7  -8382332.76422
  20280318.3784  -19544400.40847 -14479787.91561
  20539559.089   -20199474.672 7 -15685470.29922
 91  4 18  1  1 14.9990000  0  3G 2G13G 6
  21428615.284   -10738741.535 7  -8367807.03022
  20278543.6284  -19553729.28547 -14487057.13462
  20542886.003   -20181975.465 7 -15671834.56522
